[[{"header":{"parameterUnit":"m.s-1","parameterCategory":1,"la1":31.0,"la2":29.5877,"lo1":-88.7671,"lo2":-86.6584,"dy":0.0162,"dx":0.0185,"nx":115,"ny":88,"refTime":"2023-11-19T18:00:00:Z","depth":0,"parameterNumber":2,"parameterNumberName":"U-component_of_WINDS"},"data":[0.0,0.0,0.0,0.0,0.0,0.0,0.0,0.0,0.0,0.0,0.0,0.0,0.0,0.0,0.0,0.0,0.0,0.0,0.0,0.0,0.0,0.0,0.0,0.0,0.0,0.0,0.0,0.0,0.0,0.0,0.0,0.0,0.0,0.0,0.0,0.0,0.0,0.0,0.0,0.0,0.0,0.0,0.0,0.0,0.0,0.0,0.0,0.0,0.0,0.0,0.0,0.0,0.0,0.0,0.0,0.0,0.0,0.0,0.0,0.0,0.0,0.0,0.0,0.0,0.0,0.0,0.0,0.0,0.0,0.0,0.0,0.0,0.0,0.0,0.0,0.0,0.0,0.0,0.0,0.0,0.0,0.0,0.0,0.0,0.0,0.0,0.0,0.0,0.0,0.0,0.0,0.0,0.0,0.0,0.0,0.0,0.0,0.0,0.0,0.0,0.0,0.0,0.0,0.0,0.0,0.0,0.0,0.0,0.0,0.0,0.0,0.0,0.0,0.0,0.0,0.0,0.0,0.0,0.0,0.0,0.0,0.0,0.0,0.0,0.0,0.0,0.0,0.0,0.0,0.0,0.0,0.0,0.0,0.0,0.0,0.0,0.0,0.0,0.0,0.0,0.0,0.0,0.0,0.0,0.0,0.0,0.0,0.0,0.0,0.0,0.0,0.0,0.0,0.0,0.0,0.0,0.0,0.0,0.0,0.0,0.0,0.0,0.0,0.0,0.0,0.0,0.0,0.0,0.0,0.0,0.0,0.0,0.0,0.0,0.0,0.0,0.0,0.0,0.0,0.0,0.0,0.0,0.0,0.0,0.0,0.0,0.0,0.0,0.0,0.0,0.0,0.0,0.0,0.0,0.0,0.0,0.0,0.0,0.0,0.0,0.0,0.0,0.0,0.0,0.0,0.0,0.0,0.0,0.0,0.0,0.0,0.0,0.0,0.0,0.0,0.0,0.0,0.0,0.0,0.0,0.0,0.0,0.0,0.0,0.0,0.0,0.0,0.0,0.0,0.0,0.0,0.0,0.0,0.0,0.0,0.0,0.0,0.0,0.0,0.0,0.0,0.0,0.0,0.0,0.0,0.0,0.0,0.0,0.0,0.0,0.0,0.0,0.0,0.0,0.0,0.0,0.0,0.0,0.0,0.0,0.0,0.0,0.0,0.0,0.0,0.0,0.0,0.0,0.0,0.0,0.0,0.0,0.0,0.0,0.0,0.0,0.0,0.0,0.0,0.0,0.0,0.0,0.0,0.0,0.0,0.0,0.0,0.0,0.0,0.0,0.0,0.0,0.0,0.0,0.0,0.0,0.0,0.0,0.0,0.0,0.0,0.0,0.0,0.0,0.0,0.0,0.0,0.0,0.0,0.0,0.0,0.0,0.0,0.0,0.0,0.0,0.0,0.0,0.0,0.0,0.0,0.0,0.0,0.0,0.0,0.0,0.0,0.0,0.0,0.0,0.0,0.0,0.0,0.0,0.0,0.0,0.0,0.0,0.0,0.0,0.0,0.0,0.0,0.0,0.0,0.0,0.0,0.0,0.0,0.0,0.0,0.0,0.0,0.0,0.0,0.0,0.0,0.0,0.0,0.0,0.0,0.0,0.0,0.0,0.0,0.0,0.0,0.0,0.0,0.0,0.0,0.0,0.0,0.0,0.0,0.0,0.0,0.0,0.0,0.0,0.0,0.0,0.0,0.0,0.0,0.0,0.0,0.0,0.0,0.0,0.0,0.0,0.0,0.0,0.0,0.0,0.0,0.0,0.0,0.0,0.0,0.0,0.0,0.0,0.0,0.0,0.0,0.0,0.0,0.0,0.0,0.0,0.0,0.0,0.0,0.0,0.0,0.0,0.0,0.0,0.0,0.0,0.0,0.0,0.0,0.0,0.0,0.0,0.0,0.0,0.0,0.0,0.0,0.0,0.0,0.0,0.0,0.0,0.0,0.0,0.0,0.0,0.0,0.0,0.0,0.0,0.0,0.0,0.0,0.0,0.0,0.0,0.0,0.0,0.0,0.0,0.0,0.0,0.0,0.0,0.0,0.0,0.0,0.0,0.0,0.0,0.0,0.0,0.0,0.0,0.0,0.0,0.0,0.0,0.0,0.0,0.0,0.0,0.0,0.0,0.0,0.0,0.0,0.0,0.0,0.0,0.0,0.0,0.0,0.0,0.0,0.0,0.0,0.0,0.0,0.0,0.0,0.0,0.0,0.0,0.0,0.0,0.0,0.0,0.0,0.0,0.0,0.0,0.0,0.0,0.0,0.0,0.0,0.0,0.0,0.0,0.0,0.0,0.0,0.0,0.0,0.0,0.0,0.0,0.0,0.0,0.0,0.0,0.0,0.0,0.0,0.0,0.0,0.0,0.0,0.0,0.0,0.0,0.0,0.0,0.0,0.0,0.0,0.0,0.0,0.0,0.0,0.0,0.0,0.0,0.0,0.0,0.0,0.0,0.0,0.0,0.0,0.0,0.0,0.0,0.0,0.0,0.0,0.0,0.0,0.0,0.0,0.0,0.0,0.0,0.0,0.0,0.0,0.0,0.0,0.0,0.0,0.0,0.0,0.0,0.0,0.0,0.0,0.0,0.0,0.0,0.0,0.0,0.0,0.0,0.0,0.0,0.0,0.0,0.0,0.0,0.0,0.0,0.0,0.0,0.0,0.0,0.0,0.0,0.0,0.0,0.0,0.0,0.0,0.0,0.0,0.0,0.0,0.0,0.0,0.0,0.0,0.0,0.0,0.0,0.0,0.0,0.0,0.0,0.0,0.0,0.0,0.0,0.0,0.0,0.0,0.0,0.0,0.0,0.0,0.0,0.0,0.0,0.0,0.0,0.0,0.0,0.0,0.0,0.0,0.0,0.0,0.0,0.0,0.0,0.0,0.0,0.0,0.0,0.0,0.0,0.0,0.0,0.0,0.0,0.0,0.0,0.0,0.0,0.0,0.0,0.0,0.0,0.0,0.0,0.0,0.0,0.0,0.0,0.0,0.0,0.0,0.0,0.0,0.0,0.0,0.0,0.0,0.0,0.0,0.0,0.0,0.0,0.0,0.0,0.0,0.0,0.0,0.0,0.0,0.0,0.0,0.0,0.0,0.0,0.0,0.0,0.0,0.0,0.0,0.0,0.0,0.0,0.0,0.0,0.0,0.0,0.0,0.0,0.0,0.0,0.0,0.0,0.0,0.0,0.0,0.0,0.0,0.0,0.0,0.0,0.0,0.0,0.0,0.0,0.0,0.0,0.0,0.0,0.0,0.0,0.0,0.0,0.0,0.0,0.0,0.0,0.0,0.0,0.0,0.0,0.0,0.0,0.0,0.0,0.0,0.0,0.0,0.0,0.0,0.0,0.0,0.0,0.0,0.0,0.0,0.0,0.0,0.0,0.0,0.0,0.0,0.0,0.0,0.0,0.0,0.0,0.0,0.0,0.0,0.0,0.0,0.0,0.0,0.0,0.0,0.0,0.0,0.0,0.0,0.0,0.0,0.0,0.0,0.0,0.0,0.0,0.0,0.0,0.0,0.0,0.0,0.0,0.0,0.0,0.0,0.0,0.0,0.0,0.0,0.0,0.0,0.0,0.0,0.0,0.0,0.0,0.0,0.0,0.0,0.0,0.0,0.0,0.0,0.0,0.0,0.0,0.0,0.0,0.0,0.0,0.0,0.0,0.0,0.0,0.0,0.0,0.0,0.0,0.0,0.0,0.0,0.0,0.0,0.0,0.0,0.0,0.0,0.0,0.0,0.0,0.0,0.0,0.0,0.0,0.0,0.0,0.0,0.0,0.0,0.0,0.0,0.0,0.0,0.0,0.0,0.0,0.0,0.0,0.0,0.0,0.0,0.0,0.0,0.0,0.0,0.0,0.0,0.0,0.0,0.0,0.0,0.0,0.0,0.0,0.0,0.0,0.0,0.0,0.0,0.0,0.0,0.0,0.0,0.0,0.0,0.0,0.0,0.0,0.0,0.0,0.0,0.0,0.0,0.0,0.0,0.0,0.0,0.0,0.0,0.0,0.0,0.0,0.0,0.0,0.0,0.0,0.0,0.0,0.0,0.0,0.0,0.0,0.0,0.0,0.0,0.0,0.0,0.0,0.0,0.0,0.0,0.0,0.0,0.0,0.0,0.0,0.0,0.0,0.0,0.0,0.0,0.0,0.0,0.0,0.0,0.0,0.0,0.0,0.0,0.0,0.0,0.0,0.0,0.0,0.0,0.0,0.0,0.0,0.0,0.0,0.0,0.0,0.0,0.0,0.0,0.0,0.0,0.0,0.0,0.0,-5.1205,0.0,0.0,0.0,0.0,0.0,0.0,0.0,0.0,0.0,0.0,0.0,0.0,0.0,0.0,0.0,0.0,0.0,0.0,0.0,0.0,0.0,0.0,0.0,0.0,0.0,0.0,0.0,0.0,0.0,0.0,0.0,0.0,0.0,0.0,0.0,0.0,0.0,0.0,0.0,0.0,0.0,0.0,0.0,0.0,0.0,0.0,0.0,0.0,0.0,0.0,0.0,0.0,0.0,0.0,0.0,0.0,0.0,0.0,0.0,0.0,0.0,0.0,0.0,0.0,0.0,0.0,0.0,0.0,0.0,0.0,0.0,0.0,0.0,0.0,0.0,0.0,0.0,0.0,0.0,0.0,0.0,0.0,0.0,0.0,0.0,0.0,0.0,0.0,0.0,0.0,0.0,0.0,0.0,0.0,0.0,0.0,0.0,0.0,0.0,0.0,0.0,0.0,0.0,0.0,0.0,0.0,0.0,0.0,0.0,0.0,-5.1462,-5.135,-5.1162,-5.1086,-5.1167,0.0,0.0,0.0,0.0,0.0,0.0,0.0,0.0,0.0,0.0,0.0,0.0,0.0,0.0,0.0,0.0,0.0,0.0,0.0,0.0,0.0,0.0,0.0,0.0,0.0,0.0,0.0,0.0,0.0,0.0,0.0,0.0,0.0,0.0,0.0,0.0,0.0,0.0,0.0,0.0,0.0,0.0,0.0,0.0,0.0,0.0,0.0,0.0,0.0,0.0,0.0,0.0,0.0,0.0,0.0,0.0,0.0,0.0,0.0,0.0,0.0,0.0,0.0,0.0,0.0,0.0,0.0,0.0,0.0,0.0,0.0,0.0,0.0,0.0,0.0,0.0,0.0,0.0,0.0,0.0,0.0,0.0,0.0,0.0,0.0,0.0,0.0,0.0,0.0,0.0,0.0,0.0,0.0,0.0,0.0,0.0,0.0,0.0,0.0,0.0,0.0,0.0,0.0,0.0,0.0,0.0,0.0,0.0,0.0,0.0,0.0,0.0,-5.0972,-5.0934,-5.1086,0.0,0.0,0.0,0.0,0.0,0.0,0.0,0.0,0.0,0.0,0.0,0.0,0.0,0.0,0.0,0.0,0.0,0.0,0.0,0.0,0.0,0.0,0.0,0.0,0.0,0.0,0.0,0.0,0.0,0.0,0.0,0.0,0.0,0.0,0.0,0.0,0.0,0.0,0.0,0.0,0.0,0.0,0.0,0.0,0.0,0.0,0.0,0.0,0.0,0.0,0.0,0.0,0.0,0.0,0.0,0.0,0.0,0.0,0.0,0.0,0.0,0.0,0.0,0.0,0.0,0.0,0.0,0.0,0.0,0.0,0.0,0.0,0.0,0.0,0.0,0.0,0.0,0.0,0.0,0.0,0.0,0.0,0.0,0.0,0.0,0.0,0.0,0.0,0.0,0.0,0.0,0.0,0.0,0.0,0.0,0.0,0.0,0.0,0.0,0.0,0.0,0.0,0.0,0.0,0.0,0.0,0.0,0.0,0.0,0.0,-5.1124,-5.0934,-5.0896,0.0,-5.0666,0.0,0.0,0.0,0.0,0.0,0.0,0.0,0.0,0.0,0.0,0.0,0.0,0.0,0.0,0.0,0.0,0.0,0.0,0.0,0.0,0.0,0.0,0.0,0.0,0.0,0.0,0.0,0.0,0.0,0.0,0.0,0.0,0.0,0.0,0.0,0.0,0.0,0.0,0.0,0.0,0.0,0.0,0.0,0.0,0.0,0.0,0.0,0.0,0.0,0.0,0.0,0.0,0.0,0.0,0.0,0.0,0.0,0.0,0.0,0.0,0.0,0.0,0.0,0.0,0.0,0.0,0.0,0.0,0.0,0.0,0.0,0.0,0.0,0.0,0.0,0.0,0.0,0.0,0.0,0.0,0.0,0.0,0.0,0.0,0.0,0.0,0.0,0.0,0.0,0.0,0.0,0.0,0.0,0.0,0.0,0.0,0.0,0.0,0.0,0.0,0.0,0.0,0.0,0.0,0.0,0.0,0.0,0.0,0.0,0.0,-5.0972,-5.0928,-5.0781,-5.0628,0.0,0.0,0.0,0.0,0.0,0.0,0.0,0.0,0.0,0.0,0.0,0.0,0.0,0.0,0.0,0.0,0.0,0.0,0.0,0.0,0.0,0.0,0.0,0.0,0.0,0.0,0.0,0.0,0.0,0.0,0.0,0.0,0.0,0.0,0.0,0.0,0.0,0.0,0.0,0.0,0.0,0.0,0.0,0.0,0.0,0.0,0.0,0.0,0.0,0.0,0.0,0.0,0.0,0.0,0.0,0.0,0.0,0.0,0.0,0.0,0.0,0.0,0.0,0.0,0.0,0.0,0.0,0.0,0.0,0.0,0.0,0.0,0.0,0.0,0.0,0.0,0.0,0.0,0.0,0.0,0.0,0.0,0.0,0.0,0.0,0.0,0.0,0.0,0.0,0.0,0.0,0.0,0.0,0.0,0.0,0.0,0.0,0.0,0.0,0.0,0.0,0.0,0.0,0.0,0.0,0.0,0.0,0.0,0.0,0.0,-5.101,-5.082,-5.0743,-5.0512,-5.0324,-5.0207,0.0,0.0,0.0,0.0,0.0,0.0,0.0,0.0,0.0,0.0,0.0,0.0,0.0,0.0,0.0,0.0,0.0,0.0,0.0,0.0,0.0,0.0,0.0,0.0,0.0,0.0,0.0,0.0,0.0,0.0,0.0,0.0,0.0,0.0,0.0,0.0,0.0,0.0,0.0,0.0,0.0,0.0,0.0,0.0,0.0,0.0,0.0,0.0,0.0,0.0,0.0,0.0,0.0,0.0,0.0,0.0,0.0,0.0,0.0,0.0,0.0,0.0,0.0,0.0,0.0,0.0,0.0,0.0,0.0,0.0,0.0,0.0,0.0,0.0,0.0,0.0,0.0,0.0,0.0,0.0,0.0,0.0,0.0,0.0,0.0,0.0,0.0,0.0,0.0,0.0,0.0,0.0,0.0,0.0,0.0,0.0,0.0,0.0,0.0,0.0,0.0,0.0,0.0,0.0,0.0,0.0,0.0,0.0,-5.1199,-5.101,-5.0705,-5.0324,-5.0089,-4.9931,0.0,0.0,0.0,0.0,0.0,0.0,0.0,0.0,0.0,0.0,0.0,0.0,0.0,0.0,0.0,0.0,0.0,0.0,0.0,0.0,0.0,0.0,0.0,0.0,0.0,0.0,0.0,0.0,0.0,0.0,0.0,0.0,0.0,0.0,0.0,0.0,0.0,0.0,0.0,0.0,0.0,0.0,0.0,0.0,0.0,0.0,0.0,0.0,0.0,0.0,0.0,0.0,0.0,0.0,0.0,0.0,0.0,0.0,0.0,0.0,0.0,0.0,0.0,0.0,0.0,0.0,0.0,0.0,0.0,0.0,0.0,0.0,0.0,0.0,0.0,0.0,0.0,0.0,0.0,0.0,0.0,0.0,0.0,0.0,0.0,0.0,0.0,0.0,0.0,0.0,0.0,0.0,0.0,0.0,0.0,0.0,0.0,0.0,0.0,0.0,0.0,0.0,0.0,0.0,0.0,0.0,0.0,0.0,0.0,-5.1167,-5.0896,-5.0512,-5.005,-4.9971,-4.99,0.0,0.0,0.0,0.0,0.0,0.0,0.0,0.0,0.0,0.0,0.0,0.0,0.0,0.0,0.0,0.0,0.0,0.0,0.0,0.0,0.0,0.0,0.0,0.0,0.0,0.0,0.0,0.0,0.0,0.0,0.0,0.0,0.0,0.0,0.0,0.0,0.0,0.0,0.0,0.0,0.0,0.0,0.0,0.0,0.0,0.0,0.0,0.0,0.0,0.0,0.0,0.0,0.0,0.0,0.0,0.0,0.0,0.0,0.0,0.0,0.0,0.0,0.0,0.0,0.0,0.0,0.0,0.0,0.0,0.0,0.0,0.0,0.0,0.0,0.0,0.0,0.0,0.0,0.0,0.0,0.0,0.0,0.0,0.0,0.0,0.0,0.0,0.0,0.0,0.0,0.0,0.0,0.0,0.0,0.0,0.0,0.0,0.0,0.0,0.0,0.0,0.0,0.0,0.0,0.0,0.0,0.0,0.0,0.0,-5.0934,0.0,-5.0363,-4.9931,-4.99,-4.99,0.0,0.0,0.0,0.0,0.0,0.0,0.0,0.0,0.0,0.0,0.0,0.0,0.0,0.0,0.0,0.0,0.0,0.0,0.0,0.0,0.0,0.0,0.0,0.0,0.0,0.0,0.0,0.0,0.0,0.0,0.0,0.0,0.0,0.0,0.0,0.0,0.0,0.0,0.0,0.0,0.0,0.0,0.0,0.0,0.0,0.0,0.0,0.0,0.0,0.0,0.0,0.0,0.0,0.0,0.0,0.0,0.0,0.0,0.0,0.0,0.0,0.0,0.0,0.0,0.0,0.0,0.0,0.0,0.0,0.0,0.0,0.0,0.0,0.0,0.0,0.0,0.0,0.0,0.0,0.0,0.0,0.0,0.0,0.0,0.0,0.0,0.0,0.0,0.0,0.0,0.0,0.0,0.0,0.0,0.0,0.0,0.0,0.0,0.0,0.0,0.0,0.0,0.0,0.0,0.0,0.0,0.0,0.0,-5.1378,-5.0388,-5.0543,-5.0427,-4.9931,-4.9931,-4.9931,0.0,0.0,0.0,0.0,0.0,0.0,0.0,0.0,0.0,0.0,0.0,0.0,0.0,0.0,0.0,0.0,0.0,0.0,0.0,0.0,0.0,0.0,0.0,0.0,0.0,0.0,0.0,0.0,0.0,0.0,0.0,0.0,0.0,0.0,0.0,0.0,0.0,0.0,0.0,0.0,0.0,0.0,0.0,0.0,0.0,0.0,0.0,0.0,0.0,0.0,0.0,0.0,0.0,0.0,0.0,0.0,0.0,0.0,0.0,0.0,0.0,0.0,0.0,0.0,0.0,0.0,0.0,0.0,0.0,0.0,0.0,0.0,0.0,0.0,0.0,0.0,0.0,0.0,0.0,0.0,0.0,0.0,0.0,0.0,0.0,0.0,0.0,0.0,0.0,0.0,0.0,0.0,0.0,0.0,0.0,0.0,0.0,0.0,0.0,0.0,0.0,0.0,0.0,0.0,0.0,0.0,0.0,0.0,0.0,-5.1214,-5.1293,-5.1096,-5.0667,-5.0153,-5.0153,0.0,0.0,0.0,0.0,0.0,0.0,0.0,0.0,0.0,0.0,0.0,0.0,0.0,0.0,0.0,0.0,0.0,0.0,0.0,0.0,0.0,0.0,0.0,0.0,0.0,0.0,0.0,0.0,0.0,0.0,0.0,0.0,0.0,0.0,0.0,0.0,0.0,0.0,0.0,0.0,0.0,0.0,0.0,0.0,0.0,0.0,0.0,0.0,0.0,0.0,0.0,0.0,0.0,0.0,0.0,0.0,0.0,0.0,0.0,0.0,0.0,0.0,0.0,0.0,0.0,0.0,0.0,0.0,0.0,0.0,0.0,0.0,0.0,0.0,0.0,0.0,0.0,0.0,0.0,0.0,0.0,0.0,0.0,0.0,0.0,0.0,0.0,0.0,0.0,0.0,0.0,0.0,0.0,0.0,0.0,0.0,0.0,0.0,0.0,0.0,0.0,0.0,0.0,0.0,0.0,0.0,0.0,0.0,0.0,-5.5005,-5.3836,-5.3045,-5.2584,-5.2579,-5.2073,-5.1055,0.0,0.0,0.0,0.0,0.0,0.0,0.0,0.0,0.0,0.0,0.0,0.0,0.0,0.0,0.0,0.0,0.0,0.0,0.0,0.0,0.0,0.0,0.0,0.0,0.0,0.0,0.0,0.0,0.0,0.0,0.0,0.0,0.0,0.0,0.0,0.0,0.0,0.0,0.0,0.0,0.0,0.0,0.0,0.0,0.0,0.0,0.0,0.0,0.0,0.0,0.0,0.0,0.0,0.0,0.0,0.0,0.0,0.0,0.0,0.0,0.0,0.0,0.0,0.0,0.0,0.0,0.0,0.0,0.0,0.0,0.0,0.0,0.0,0.0,0.0,0.0,0.0,0.0,0.0,0.0,0.0,0.0,0.0,0.0,0.0,0.0,0.0,0.0,0.0,0.0,0.0,0.0,0.0,0.0,0.0,0.0,0.0,0.0,0.0,0.0,0.0,0.0,0.0,0.0,0.0,0.0,0.0,0.0,-6.1037,-5.8245,-5.6499,-5.5854,-5.6612,-5.5297,0.0,0.0,0.0,0.0,0.0,0.0,0.0,0.0,0.0,0.0,0.0,0.0,0.0,0.0,0.0,0.0,0.0,0.0,0.0,0.0,0.0,0.0,0.0,0.0,0.0,0.0,0.0,0.0,0.0,0.0,0.0,0.0,0.0,0.0,0.0,0.0,0.0,0.0,0.0,0.0,0.0,0.0,0.0,0.0,0.0,0.0,0.0,0.0,0.0,0.0,0.0,0.0,0.0,0.0,0.0,0.0,0.0,0.0,0.0,0.0,0.0,0.0,0.0,0.0,0.0,0.0,0.0,0.0,0.0,0.0,0.0,0.0,0.0,0.0,0.0,0.0,0.0,0.0,0.0,0.0,0.0,0.0,0.0,0.0,0.0,0.0,0.0,0.0,0.0,0.0,0.0,0.0,0.0,0.0,0.0,0.0,0.0,0.0,0.0,0.0,0.0,0.0,0.0,0.0,0.0,0.0,0.0,0.0,0.0,-6.4072,-6.6216,-6.5582,-6.2018,-5.9295,-5.7292,0.0,0.0,0.0,0.0,0.0,0.0,0.0,0.0,0.0,0.0,0.0,0.0,0.0,0.0,0.0,0.0,0.0,0.0,0.0,0.0,0.0,0.0,0.0,0.0,0.0,0.0,0.0,0.0,0.0,0.0,0.0,0.0,0.0,0.0,0.0,0.0,0.0,0.0,0.0,0.0,0.0,0.0,0.0,0.0,0.0,0.0,0.0,0.0,0.0,0.0,0.0,0.0,0.0,0.0,0.0,0.0,0.0,0.0,0.0,0.0,0.0,0.0,0.0,0.0,0.0,0.0,0.0,0.0,0.0,0.0,0.0,0.0,0.0,0.0,0.0,0.0,0.0,0.0,0.0,0.0,0.0,0.0,0.0,0.0,0.0,0.0,0.0,0.0,0.0,0.0,0.0,0.0,0.0,0.0,0.0,0.0,0.0,0.0,0.0,0.0,0.0,0.0,0.0,0.0,0.0,0.0,0.0,0.0,-6.4823,-6.7267,-7.2115,-7.3469,-7.0838,-6.5357,-6.1272,0.0,0.0,0.0,0.0,0.0,0.0,0.0,0.0,0.0,0.0,0.0,0.0,0.0,0.0,0.0,0.0,0.0,0.0,0.0,0.0,0.0,0.0,0.0,0.0,0.0,0.0,0.0,0.0,0.0,0.0,0.0,0.0,0.0,0.0,0.0,0.0,0.0,0.0,0.0,0.0,0.0,0.0,0.0,0.0,0.0,0.0,0.0,0.0,0.0,0.0,0.0,0.0,0.0,0.0,0.0,0.0,0.0,0.0,0.0,0.0,0.0,0.0,0.0,0.0,0.0,0.0,0.0,0.0,0.0,0.0,0.0,0.0,0.0,0.0,0.0,0.0,0.0,0.0,0.0,0.0,0.0,0.0,0.0,0.0,0.0,0.0,0.0,0.0,0.0,0.0,0.0,0.0,0.0,0.0,0.0,0.0,0.0,0.0,0.0,0.0,0.0,0.0,0.0,0.0,0.0,0.0,0.0,0.0,-6.8745,-7.0619,-7.6473,-7.9696,-7.9787,-7.2478,-6.6164,0.0,0.0,0.0,0.0,0.0,0.0,0.0,0.0,0.0,0.0,0.0,0.0,0.0,0.0,0.0,0.0,0.0,0.0,0.0,0.0,0.0,0.0,0.0,0.0,0.0,0.0,0.0,0.0,0.0,0.0,0.0,0.0,0.0,0.0,0.0,0.0,0.0,0.0,0.0,0.0,0.0,0.0,0.0,0.0,0.0,0.0,0.0,0.0,0.0,0.0,0.0,0.0,0.0,0.0,0.0,0.0,0.0,0.0,0.0,0.0,0.0,0.0,0.0,0.0,0.0,0.0,0.0,0.0,0.0,0.0,0.0,0.0,0.0,0.0,0.0,0.0,0.0,0.0,0.0,0.0,0.0,0.0,0.0,0.0,0.0,0.0,0.0,0.0,0.0,0.0,0.0,0.0,0.0,0.0,0.0,0.0,0.0,0.0,0.0,0.0,0.0,0.0,0.0,0.0,0.0,0.0,0.0,0.0,-7.1087,-7.4401,-7.9384,-8.1661,-8.0838,-7.3867,-6.877,0.0,0.0,0.0,0.0,0.0,0.0,0.0,0.0,0.0,0.0,0.0,0.0,0.0,0.0,0.0,0.0,0.0,0.0,0.0,0.0,0.0,0.0,0.0,0.0,0.0,0.0,0.0,0.0,0.0,0.0,0.0,0.0,0.0,0.0,0.0,0.0,0.0,0.0,0.0,0.0,0.0,0.0,0.0,0.0,0.0,0.0,0.0,0.0,-5.1367,0.0,0.0,0.0,0.0,0.0,0.0,0.0,0.0,0.0,0.0,0.0,0.0,0.0,0.0,0.0,0.0,0.0,0.0,0.0,0.0,0.0,0.0,0.0,0.0,0.0,0.0,0.0,0.0,0.0,0.0,0.0,0.0,0.0,0.0,0.0,0.0,0.0,0.0,0.0,0.0,0.0,0.0,0.0,0.0,0.0,0.0,0.0,0.0,0.0,0.0,0.0,0.0,0.0,0.0,0.0,0.0,0.0,0.0,0.0,-7.2793,-7.7197,-8.1231,-8.3008,-8.2106,-7.6801,-7.2171,0.0,0.0,0.0,0.0,0.0,0.0,0.0,0.0,0.0,0.0,0.0,0.0,0.0,0.0,0.0,0.0,0.0,0.0,0.0,0.0,0.0,0.0,0.0,0.0,0.0,0.0,0.0,0.0,0.0,0.0,0.0,0.0,0.0,0.0,0.0,0.0,0.0,0.0,0.0,0.0,0.0,0.0,0.0,0.0,0.0,0.0,0.0,0.0,0.0,0.0,0.0,0.0,0.0,0.0,0.0,0.0,0.0,0.0,0.0,0.0,0.0,0.0,0.0,0.0,0.0,0.0,0.0,0.0,0.0,0.0,0.0,0.0,0.0,0.0,0.0,0.0,0.0,0.0,0.0,0.0,0.0,0.0,0.0,0.0,0.0,0.0,0.0,0.0,0.0,0.0,0.0,0.0,0.0,0.0,0.0,0.0,0.0,0.0,0.0,0.0,0.0,0.0,0.0,0.0,0.0,0.0,0.0,-6.9319,-7.4361,-7.9937,-8.2792,-8.3954,-8.3447,-7.9424,-7.4803,-6.9623,0.0,0.0,0.0,0.0,0.0,0.0,0.0,0.0,0.0,0.0,0.0,0.0,0.0,0.0,0.0,0.0,0.0,0.0,0.0,0.0,0.0,0.0,0.0,0.0,0.0,0.0,0.0,0.0,0.0,0.0,0.0,0.0,0.0,0.0,0.0,0.0,0.0,0.0,-5.4922,-5.4985,0.0,0.0,0.0,0.0,0.0,0.0,0.0,0.0,-5.1936,0.0,0.0,0.0,0.0,0.0,0.0,0.0,0.0,0.0,0.0,0.0,0.0,0.0,0.0,0.0,0.0,0.0,0.0,0.0,0.0,0.0,0.0,0.0,0.0,0.0,0.0,0.0,0.0,0.0,0.0,0.0,0.0,0.0,0.0,0.0,0.0,0.0,0.0,0.0,0.0,0.0,0.0,0.0,0.0,0.0,0.0,0.0,0.0,0.0,0.0,0.0,0.0,0.0,0.0,0.0,0.0,-7.0258,-7.1706,-7.6371,-8.4447,-8.4894,-8.45,-8.3411,-7.8329,-7.3405,-6.9038,0.0,0.0,0.0,0.0,0.0,0.0,0.0,0.0,0.0,0.0,0.0,0.0,0.0,0.0,0.0,0.0,0.0,0.0,0.0,0.0,0.0,0.0,0.0,0.0,0.0,0.0,0.0,0.0,0.0,0.0,0.0,0.0,0.0,0.0,0.0,0.0,0.0,0.0,0.0,-5.6617,-5.6338,0.0,0.0,0.0,0.0,0.0,0.0,0.0,0.0,-5.3518,0.0,0.0,0.0,0.0,0.0,0.0,0.0,0.0,0.0,0.0,0.0,0.0,0.0,0.0,0.0,0.0,0.0,0.0,0.0,0.0,0.0,0.0,0.0,0.0,0.0,0.0,0.0,0.0,0.0,0.0,0.0,0.0,0.0,0.0,0.0,0.0,0.0,0.0,0.0,0.0,0.0,0.0,0.0,0.0,0.0,0.0,0.0,0.0,0.0,0.0,0.0,0.0,0.0,0.0,0.0,-7.1471,-7.4185,-7.8999,-8.6082,-8.6024,-8.53,-8.4173,-7.8477,-7.3475,0.0,0.0,0.0,0.0,0.0,0.0,0.0,0.0,0.0,0.0,0.0,0.0,0.0,0.0,0.0,0.0,0.0,0.0,0.0,0.0,0.0,0.0,0.0,0.0,0.0,0.0,0.0,0.0,0.0,0.0,0.0,0.0,0.0,0.0,0.0,0.0,0.0,0.0,0.0,0.0,-5.8479,-5.8702,-6.0457,0.0,0.0,0.0,0.0,0.0,0.0,-5.4813,-5.4774,0.0,0.0,0.0,0.0,0.0,0.0,0.0,0.0,0.0,0.0,0.0,0.0,0.0,0.0,0.0,0.0,0.0,0.0,0.0,0.0,0.0,0.0,0.0,0.0,0.0,0.0,0.0,0.0,0.0,0.0,0.0,0.0,0.0,0.0,0.0,0.0,0.0,0.0,0.0,0.0,0.0,0.0,0.0,0.0,0.0,0.0,0.0,0.0,0.0,0.0,0.0,0.0,0.0,0.0,0.0,-7.2043,-7.6052,-8.0979,-8.6669,-8.6644,-8.5883,-8.4573,-7.8367,-7.3326,0.0,0.0,0.0,0.0,0.0,0.0,0.0,0.0,0.0,0.0,0.0,0.0,0.0,0.0,0.0,0.0,0.0,0.0,0.0,0.0,0.0,0.0,0.0,0.0,0.0,0.0,0.0,0.0,0.0,0.0,0.0,0.0,0.0,0.0,0.0,0.0,0.0,0.0,0.0,0.0,0.0,-6.1404,-6.2519,-6.1138,0.0,0.0,0.0,0.0,-5.5879,-5.6834,0.0,0.0,0.0,0.0,0.0,0.0,0.0,0.0,0.0,0.0,0.0,0.0,0.0,0.0,0.0,0.0,0.0,0.0,0.0,0.0,0.0,0.0,0.0,0.0,0.0,0.0,0.0,0.0,0.0,0.0,0.0,0.0,0.0,0.0,0.0,0.0,0.0,0.0,0.0,0.0,0.0,0.0,0.0,0.0,0.0,0.0,0.0,0.0,0.0,0.0,0.0,0.0,0.0,0.0,0.0,0.0,-7.2749,-7.6303,-8.0979,-8.6632,-8.6749,-8.5735,-8.3665,-7.6753,-7.1625,0.0,0.0,0.0,0.0,0.0,0.0,0.0,0.0,0.0,0.0,0.0,0.0,0.0,0.0,0.0,0.0,0.0,0.0,0.0,0.0,0.0,0.0,0.0,0.0,0.0,0.0,0.0,0.0,0.0,0.0,0.0,0.0,0.0,0.0,0.0,0.0,0.0,0.0,0.0,0.0,0.0,-6.3452,-6.299,-6.2745,-6.1815,0.0,0.0,-6.0332,-6.0358,-6.1945,0.0,0.0,0.0,0.0,0.0,0.0,0.0,0.0,0.0,0.0,0.0,0.0,0.0,0.0,0.0,0.0,0.0,0.0,0.0,0.0,0.0,0.0,0.0,0.0,0.0,0.0,0.0,0.0,0.0,0.0,0.0,0.0,0.0,0.0,0.0,0.0,0.0,0.0,0.0,0.0,0.0,0.0,0.0,0.0,0.0,0.0,0.0,0.0,0.0,0.0,0.0,0.0,0.0,0.0,0.0,-6.9586,-7.3217,-7.8419,-8.303,-8.6813,-8.6715,-8.5809,-8.4282,-7.6508,-7.1637,0.0,0.0,0.0,0.0,0.0,0.0,0.0,0.0,0.0,0.0,0.0,0.0,0.0,0.0,0.0,0.0,0.0,0.0,0.0,0.0,0.0,0.0,0.0,0.0,0.0,0.0,0.0,0.0,0.0,0.0,0.0,0.0,0.0,0.0,0.0,0.0,0.0,0.0,0.0,0.0,0.0,0.0,-6.4816,-6.527,0.0,0.0,0.0,-6.2458,-6.1375,0.0,0.0,0.0,0.0,0.0,0.0,0.0,0.0,0.0,0.0,0.0,0.0,0.0,0.0,0.0,0.0,0.0,0.0,0.0,0.0,0.0,0.0,0.0,0.0,0.0,0.0,0.0,0.0,0.0,0.0,0.0,0.0,0.0,0.0,0.0,0.0,0.0,0.0,0.0,0.0,0.0,0.0,0.0,0.0,0.0,0.0,0.0,0.0,0.0,0.0,0.0,0.0,0.0,0.0,0.0,0.0,0.0,-7.3327,-7.9776,-8.4278,-8.6591,-8.6605,-8.6064,-8.4864,-7.7504,0.0,0.0,0.0,0.0,0.0,0.0,0.0,0.0,0.0,0.0,0.0,0.0,0.0,0.0,0.0,0.0,0.0,0.0,0.0,0.0,0.0,0.0,0.0,0.0,0.0,0.0,0.0,-5.4518,0.0,0.0,0.0,0.0,0.0,0.0,0.0,0.0,0.0,0.0,0.0,0.0,0.0,0.0,-6.8127,-6.6334,-6.759,-6.8132,0.0,0.0,-6.4854,-6.3844,-6.5673,-6.5789,0.0,0.0,0.0,0.0,0.0,0.0,0.0,0.0,0.0,0.0,0.0,0.0,0.0,0.0,0.0,0.0,0.0,0.0,0.0,0.0,0.0,0.0,0.0,0.0,0.0,0.0,0.0,0.0,0.0,0.0,0.0,0.0,0.0,0.0,0.0,0.0,0.0,0.0,0.0,0.0,0.0,0.0,0.0,0.0,0.0,0.0,0.0,0.0,0.0,0.0,0.0,0.0,0.0,0.0,-7.0805,-7.329,-7.9197,-8.3471,-8.5783,-8.6593,-8.6383,-8.5116,-7.9936,-7.5383,0.0,0.0,0.0,0.0,0.0,0.0,0.0,0.0,0.0,0.0,0.0,0.0,0.0,0.0,0.0,0.0,0.0,0.0,0.0,0.0,0.0,0.0,0.0,0.0,0.0,0.0,0.0,0.0,0.0,0.0,0.0,0.0,0.0,0.0,0.0,0.0,0.0,0.0,0.0,0.0,0.0,-6.8943,-6.6934,-6.9236,-7.1439,0.0,-6.9508,-6.8028,-6.9986,-7.1621,-7.0573,-6.4159,0.0,0.0,0.0,0.0,0.0,0.0,0.0,0.0,0.0,0.0,0.0,0.0,0.0,0.0,0.0,0.0,0.0,0.0,0.0,0.0,0.0,0.0,0.0,0.0,0.0,0.0,0.0,0.0,0.0,0.0,0.0,0.0,0.0,0.0,0.0,0.0,0.0,0.0,0.0,0.0,0.0,0.0,0.0,0.0,0.0,0.0,0.0,0.0,0.0,0.0,0.0,0.0,0.0,-7.173,-7.433,-7.999,-8.4132,-8.6444,-8.6744,-8.6313,-8.5225,-8.0804,-7.632,0.0,0.0,0.0,0.0,0.0,0.0,0.0,0.0,0.0,0.0,0.0,0.0,0.0,0.0,0.0,0.0,0.0,0.0,0.0,0.0,0.0,0.0,0.0,0.0,0.0,0.0,0.0,0.0,-5.6668,-5.6906,-5.7519,0.0,0.0,0.0,0.0,0.0,0.0,0.0,0.0,0.0,0.0,-7.148,-7.2045,-7.384,0.0,0.0,-7.2529,-7.0927,-7.0199,-7.0567,-6.9242,-6.4264,-6.2161,0.0,0.0,0.0,0.0,0.0,0.0,0.0,0.0,0.0,0.0,0.0,0.0,0.0,0.0,0.0,0.0,0.0,0.0,0.0,0.0,0.0,0.0,0.0,0.0,0.0,0.0,0.0,0.0,0.0,0.0,0.0,0.0,0.0,0.0,0.0,0.0,0.0,0.0,0.0,0.0,0.0,0.0,0.0,0.0,0.0,0.0,0.0,0.0,0.0,0.0,0.0,0.0,-7.23,-7.4582,-8.0169,-8.4095,-8.6261,-8.6599,-8.6348,-8.533,-8.2032,-7.7917,0.0,0.0,0.0,0.0,0.0,0.0,0.0,0.0,0.0,0.0,0.0,0.0,0.0,0.0,0.0,0.0,0.0,0.0,0.0,0.0,0.0,0.0,0.0,0.0,0.0,0.0,0.0,0.0,-5.7981,-5.8297,-5.9011,0.0,0.0,0.0,0.0,0.0,0.0,0.0,0.0,0.0,0.0,-7.339,-7.4309,-7.5544,-7.5933,-7.4788,-7.2897,-7.1242,-7.0107,-6.9301,-6.7751,-6.4593,0.0,0.0,0.0,0.0,0.0,0.0,0.0,0.0,0.0,0.0,0.0,0.0,0.0,0.0,0.0,0.0,0.0,0.0,0.0,0.0,0.0,0.0,0.0,0.0,0.0,0.0,0.0,-6.3235,0.0,0.0,-6.4011,0.0,0.0,0.0,0.0,0.0,0.0,0.0,0.0,0.0,0.0,0.0,0.0,0.0,0.0,0.0,0.0,0.0,0.0,0.0,0.0,0.0,0.0,-7.2121,-7.3797,-7.9369,-8.303,-8.4682,-8.6187,-8.6628,-8.5783,-8.4,-8.0501,-7.512,0.0,0.0,0.0,0.0,0.0,0.0,0.0,0.0,0.0,0.0,0.0,0.0,0.0,0.0,0.0,0.0,0.0,0.0,0.0,0.0,0.0,0.0,0.0,0.0,0.0,0.0,-6.0526,-6.0064,-5.9719,0.0,0.0,0.0,0.0,0.0,0.0,0.0,0.0,0.0,0.0,-7.1286,-7.4228,-7.2262,-7.313,-7.4042,-7.3733,-7.0174,-6.8224,-7.0529,-6.8974,-6.7061,0.0,0.0,0.0,0.0,0.0,0.0,0.0,0.0,0.0,0.0,0.0,0.0,0.0,0.0,0.0,0.0,0.0,0.0,0.0,0.0,0.0,0.0,0.0,0.0,0.0,0.0,0.0,-6.6848,-6.7065,0.0,0.0,0.0,0.0,0.0,0.0,0.0,0.0,0.0,0.0,0.0,-7.0842,-7.1146,0.0,0.0,0.0,0.0,0.0,0.0,0.0,0.0,0.0,0.0,0.0,0.0,-7.2442,-7.4798,-7.9621,-8.3251,-8.5343,-8.6444,-8.6628,-8.582,-8.4722,-8.1071,-7.4687,0.0,0.0,0.0,0.0,0.0,0.0,0.0,0.0,0.0,0.0,0.0,0.0,0.0,0.0,0.0,0.0,0.0,0.0,0.0,0.0,0.0,0.0,0.0,0.0,0.0,-6.1425,0.0,0.0,0.0,0.0,0.0,0.0,0.0,0.0,0.0,0.0,0.0,-6.6242,-6.9712,-7.1259,-7.2563,-7.3774,-7.4746,-7.5699,0.0,0.0,0.0,0.0,0.0,0.0,0.0,0.0,0.0,0.0,0.0,0.0,0.0,0.0,-6.2403,-5.7253,-5.7314,-5.8022,-5.7516,0.0,0.0,0.0,0.0,0.0,0.0,0.0,0.0,0.0,0.0,0.0,0.0,0.0,0.0,-6.9654,-6.9515,-6.9411,0.0,0.0,0.0,0.0,0.0,0.0,0.0,0.0,-7.2159,-7.3623,-7.4482,-7.4913,-7.5031,0.0,-7.372,-7.1339,0.0,0.0,0.0,0.0,0.0,0.0,0.0,0.0,-7.319,-7.5299,-8.0092,-8.3508,-8.5306,-8.6151,-8.6187,-8.538,-8.3698,-8.0582,-7.5774,-7.1587,-6.8562,0.0,0.0,0.0,0.0,0.0,0.0,0.0,0.0,0.0,0.0,0.0,0.0,0.0,0.0,0.0,0.0,0.0,0.0,0.0,0.0,0.0,0.0,0.0,-6.2987,0.0,0.0,0.0,0.0,0.0,0.0,0.0,0.0,0.0,-6.6674,-6.7028,-6.876,-7.2401,-7.2868,-7.3068,-7.342,0.0,0.0,0.0,0.0,0.0,0.0,0.0,-6.5995,-6.5278,-6.6017,-6.7282,-6.8989,-6.9836,-6.9975,-6.9004,0.0,0.0,-6.2456,-6.2081,-6.2718,-6.2718,-6.2652,-6.2516,-6.2349,-6.2401,-6.2567,0.0,0.0,0.0,0.0,-7.1618,0.0,0.0,0.0,-7.2899,-7.21,0.0,-7.205,0.0,0.0,0.0,0.0,-7.0057,-7.1946,0.0,0.0,-7.7794,-7.9443,-7.8313,-7.8571,-7.8467,-7.7804,-7.5469,-7.3937,-7.3252,-7.2185,0.0,0.0,0.0,0.0,0.0,0.0,-7.4369,-7.5442,-8.0602,-8.3765,-8.4572,-8.5343,-8.538,-8.4535,-8.1362,-7.9178,-7.8231,-7.4604,-7.2121,-7.1126,-6.7982,0.0,0.0,0.0,0.0,0.0,0.0,0.0,0.0,0.0,0.0,0.0,0.0,0.0,0.0,0.0,0.0,0.0,0.0,0.0,0.0,-6.4823,0.0,0.0,0.0,0.0,0.0,0.0,0.0,0.0,0.0,0.0,-7.0068,-7.1064,-7.2469,-7.402,0.0,0.0,0.0,0.0,-7.3191,-6.8519,-6.7357,-6.7089,-6.6697,-6.7843,-6.9077,-6.9982,0.0,0.0,-7.4887,-7.2944,-7.1489,-7.0996,-7.2312,-7.2085,-6.8652,-6.7497,-6.7069,-6.7038,-6.6729,-6.6207,-6.6148,-6.6243,-6.595,-7.9799,0.0,0.0,0.0,0.0,-7.3802,-7.4922,-7.7525,-7.704,-7.6523,-7.5985,-7.568,0.0,0.0,0.0,0.0,0.0,0.0,-7.5238,-7.7139,-7.8321,-7.9748,-8.1376,-8.1245,-8.1077,-8.089,-7.9636,-7.8588,-7.7851,-7.6332,-7.4129,-7.1184,0.0,0.0,0.0,0.0,-7.5045,-7.6939,-8.0585,-8.292,-8.3728,-8.4535,-8.4572,-8.3765,-8.1546,-7.9917,-7.8979,-7.7207,-7.5114,-7.2688,-7.1136,0.0,0.0,0.0,0.0,0.0,0.0,0.0,0.0,0.0,0.0,0.0,0.0,0.0,0.0,0.0,0.0,0.0,0.0,0.0,-6.6832,-6.6733,-6.6556,0.0,0.0,0.0,0.0,0.0,0.0,0.0,0.0,0.0,-7.5301,-7.2912,-7.1594,0.0,0.0,-7.1307,-7.0573,-7.2165,-7.3658,-7.4256,-7.3708,0.0,-7.4972,-7.362,-7.2564,-7.2854,-7.5829,-7.796,-7.7464,-7.8681,-7.9494,-7.8658,-7.8421,-7.7906,-7.6901,-7.4626,-7.3011,-7.2922,-7.3006,-7.2995,-7.2786,-7.2765,-7.2799,-8.4619,-8.152,-7.8491,-7.7747,-7.8462,-7.7595,-7.8703,-8.1186,-8.0783,-8.0254,-7.9726,-7.9595,-7.7866,-7.4872,-7.3885,0.0,0.0,0.0,-7.7717,-8.0141,-8.0045,-8.1155,-8.3108,-8.3157,-8.2994,-8.2663,-8.1856,-8.1048,-8.0241,-7.84,-7.6584,-7.4619,0.0,0.0,-7.2722,-7.4617,-7.6363,-7.8008,-8.1087,-8.292,-8.3398,-8.3875,-8.3765,-8.292,-8.1802,-8.0722,-7.9819,-7.9111,-7.7472,-7.469,-7.3509,-7.1663,0.0,0.0,0.0,0.0,0.0,0.0,0.0,0.0,0.0,0.0,0.0,-6.4404,-6.5082,0.0,0.0,0.0,-6.8316,-6.8412,-6.8348,-6.807,0.0,0.0,0.0,0.0,0.0,0.0,0.0,-7.1405,-7.3208,-7.5281,-7.7595,-7.546,-7.4329,-7.6212,-7.5004,-7.3824,-7.3371,0.0,-7.6676,-7.7565,-7.7379,-7.7496,-7.8673,-7.7777,-7.7125,-7.7854,-7.9604,-8.0939,-8.0674,-8.2156,-8.301,-8.2455,-8.1623,-8.099,-8.099,-7.9042,-7.7381,-7.7294,-7.7312,-7.7295,-7.6989,-7.6963,-7.6932,-8.8426,-8.6959,-8.2665,-8.1407,-8.2177,-8.2023,-8.2731,-8.4029,-8.4019,-8.3368,-8.235,-8.3368,-8.1557,-7.7561,-7.6857,0.0,-7.9313,-7.9342,-8.0504,-8.249,-8.2763,-8.3287,-8.3994,-8.4334,-8.4095,-8.3287,-8.2553,-8.1782,-8.0906,-7.9019,-7.828,-7.8719,-7.5647,-7.4127,-7.4332,-7.6366,-7.7865,-7.8767,-8.1602,-8.3184,-8.3398,-8.3361,-8.2994,-8.2333,-8.1985,-8.1413,-8.0718,-8.031,-7.9015,-7.6766,-7.5335,-7.3469,-7.116,0.0,0.0,0.0,0.0,0.0,0.0,0.0,0.0,0.0,0.0,0.0,0.0,0.0,0.0,0.0,-6.9921,0.0,-6.9883,-6.9501,0.0,0.0,0.0,-7.1766,-7.3078,-7.3591,-7.4139,-7.4737,0.0,0.0,-7.8215,-7.8453,-7.9405,-8.1952,-8.1455,-8.0141,-7.813,-8.0003,-8.1172,-7.9179,-7.9376,-7.9775,-8.0118,-8.0747,-8.1799,-8.3147,-8.3884,-8.375,-8.3695,-8.3564,-8.3432,-8.3399,-8.2614,-8.2042,-8.2017,-8.1062,-8.0449,-8.0018,-7.9716,-7.941,-7.9129,-7.8785,-7.8376,-9.0944,-8.9108,-8.8462,-8.6889,-8.4703,-8.4123,-8.4799,-8.6242,-8.5882,-8.5526,-8.5218,-8.4816,-8.3553,-8.1823,-8.292,-8.298,-8.2275,-8.3552,-8.4362,-8.477,-8.462,-8.4616,-8.4769,-8.404,-8.3287,-8.2517,-8.2296,-8.1782,-8.1012,-8.0479,-7.945,-7.8028,-7.7162,-7.657,-7.623,-7.6731,-7.7658,-7.8833,-8.0203,-8.1715,-8.3328,-8.281,-8.27,-8.3104,-8.1596,-8.0698,-8.0445,-7.9558,-7.8517,-7.7357,-7.6361,-7.4974,-7.3011,-7.0876,0.0,0.0,0.0,0.0,0.0,0.0,0.0,0.0,0.0,-6.6356,-6.7617,0.0,-6.9242,0.0,-7.1479,-7.3264,-7.4992,-7.4387,0.0,0.0,-7.4425,-7.5046,-7.6313,-7.6851,-7.725,-7.7477,-7.8362,-7.9729,-8.1685,-8.2335,-8.3542,-8.5939,-8.2425,-7.9476,-7.9348,-8.1358,-8.2731,-8.2208,-8.379,-8.5121,-8.4319,-8.4351,-8.4483,-8.4698,-8.48,-8.4694,-8.448,-8.4339,-8.4285,-8.4231,-8.3708,-8.3265,-8.2986,-8.1796,-8.0743,-8.0425,-8.0159,-7.9937,-7.9846,-7.9535,-7.9255,-9.203,-9.0727,-9.0311,-8.9026,-8.7315,-8.6869,-8.7041,-8.7615,-8.7404,-8.7519,-8.7876,-8.6976,-8.5952,-8.4971,-8.5455,-8.5232,-8.4488,-8.5395,-8.5805,-8.5753,-8.5442,-8.5255,-8.506,-8.3995,-8.3243,-8.2737,-8.2398,-8.2059,-8.1622,-8.1622,-8.1016,-7.9804,-7.9742,-7.9223,-7.8345,-7.7378,-7.7449,-7.8524,-7.9927,-8.1506,-8.3328,-8.2957,-8.2605,-8.2301,-8.079,-7.9679,-7.8999,-7.8279,-7.745,-7.6553,-7.6123,-7.5046,-7.3246,-7.1524,-7.0305,0.0,0.0,0.0,0.0,0.0,0.0,0.0,0.0,0.0,0.0,0.0,-7.2321,-7.325,-7.4405,-7.5709,-7.7082,-7.6388,-7.6122,-7.676,-7.7062,-7.7705,-7.891,-7.9751,-8.0524,-8.1103,-8.183,-8.2935,-8.4669,-8.51,-8.5879,-8.7656,-8.5073,-8.301,-8.3183,-8.4361,-8.5355,-8.5514,-8.6731,-8.7332,-8.6354,-8.6166,-8.596,-8.5393,-8.5273,-8.5168,-8.4906,-8.4853,-8.48,-8.4606,-8.3854,-8.3184,-8.2986,-8.1645,-8.0541,-8.0231,-7.9912,-7.9768,-7.985,-7.964,-7.955,-9.2308,-9.1715,-9.018,-8.9467,-8.9336,-8.933,-8.8915,-8.8354,-8.8503,-8.9107,-8.9906,-8.9144,-8.822,-8.7332,-8.6325,-8.5983,-8.6087,-8.6162,-8.6162,-8.6058,-8.5946,-8.5627,-8.506,-8.4235,-8.3742,-8.3431,-8.2748,-8.2444,-8.2586,-8.2444,-8.2339,-8.2159,-8.2003,-8.127,-7.9851,-7.7988,-7.7452,-7.8279,-8.0258,-8.2016,-8.3374,-8.3084,-8.2233,-8.0911,-7.972,-7.8421,-7.7141,-7.6731,-7.6148,-7.5207,-7.5137,-7.4495,-7.3108,-7.189,-7.1258,0.0,-7.0254,0.0,0.0,0.0,0.0,0.0,0.0,0.0,0.0,-7.4932,-7.5891,-7.7955,-7.7802,-7.7776,-7.8265,-7.7642,-7.7661,-7.8749,-7.9394,-8.0164,-8.1199,-8.2276,-8.3445,-8.4697,-8.5024,-8.5631,-8.6717,-8.6843,-8.7011,-8.7573,-8.7632,-8.7233,-8.7318,-8.7394,-8.7735,-8.8415,-8.8123,-8.7332,-8.6697,-8.6732,-8.6577,-8.5772,-8.5532,-8.5514,-8.5307,-8.515,-8.5011,-8.4626,-8.3658,-8.2778,-8.269,-8.1348,-8.0233,-7.9922,-7.9462,-7.9177,-7.9527,-7.9607,-7.974,-9.2448,-9.1192,-9.0825,-8.9838,-8.8591,-8.9194,-8.9069,-8.8466,-8.865,-8.9136,-8.9795,-8.9683,-8.9316,-8.8853,-8.8004,-8.7322,-8.6945,-8.7548,-8.7474,-8.6907,-8.7359,-8.6671,-8.5133,-8.4825,-8.4322,-8.3627,-8.278,-8.2802,-8.3593,-8.2802,-8.1912,-8.0955,-8.0661,-7.9887,-7.8671,0.0,0.0,0.0,-8.0548,-8.2063,-8.348,-8.1237,-8.0081,-8.0219,-7.8094,0.0,-7.6249,-7.5418,-7.4765,-7.4357,-7.4357,0.0,0.0,0.0,0.0,0.0,0.0,0.0,0.0,0.0,0.0,0.0,-7.6845,-7.6559,-7.6654,-7.638,-7.7415,-8.0271,-7.992,-8.0288,-8.2318,-8.2315,-8.2241,-8.2464,-8.2609,-8.3044,-8.3843,-8.3867,-8.4352,-8.5854,-8.5639,-8.5685,-8.6557,-8.6842,-8.6994,-8.716,-8.7596,-8.7995,-8.8291,-8.8175,-8.8019,-8.7706,-8.7193,-8.6676,-8.6419,-8.6385,-8.6435,-8.6178,-8.5941,-8.584,-8.5737,-8.5343,-8.5116,-8.4924,-8.405,-8.3192,-8.2979,-8.1598,-8.0288,-7.9986,-7.887,-7.8313,-7.9594,-7.9898,-8.0124,-9.3041,-9.1799,-9.1185,-9.0167,0.0,-8.9011,-8.8877,-8.8687,-8.9186,-8.9793,-9.0483,-9.0483,-9.0079,-8.9361,-8.8635,-8.81,-8.7817,-8.8316,-8.8309,-8.7935,-8.8167,-8.7626,-8.6534,-8.6005,-8.5471,-8.4931,-8.3809,-8.3503,-8.3929,-8.3096,-8.2375,-8.1739,-8.1489,-8.111,-8.0506,-8.0807,-8.0752,-8.0297,-8.1342,-8.2858,-8.4705,-8.34,-8.2211,-8.1382,-7.9755,0.0,0.0,0.0,0.0,0.0,0.0,0.0,0.0,-7.6116,0.0,-7.6971,-7.676,-7.7195,-7.8471,-7.8618,-7.9357,-8.1088,-8.1595,-8.1356,-8.0307,-8.0837,-8.1852,-8.3408,-8.2613,-8.265,-8.4209,-8.4135,-8.4027,-8.4319,-8.4319,-8.4501,-8.4753,-8.4701,-8.5075,-8.6073,-8.5793,-8.5693,-8.6517,-8.6559,-8.6717,-8.6934,-8.723,-8.789,-8.8877,-8.8621,-8.8033,-8.7534,-8.7501,-8.7156,-8.6467,-8.6294,-8.6294,-8.6278,-8.6194,-8.6043,-8.5941,-8.5378,-8.4882,-8.4522,-8.3498,-8.2511,-8.2184,-8.108,-8.0081,-7.9647,-7.8796,-7.8289,-7.917,-7.9412,-7.9762,-9.3474,-9.2567,-9.1283,-9.034,-8.9758,-8.8928,-8.8866,-8.9347,-8.9956,0.0,0.0,-9.12,-9.0603,-8.9509,-8.8809,-8.8533,-8.8562,-8.8745,-8.8803,-8.8803,-8.8592,-8.8242,-8.775,-8.6999,-8.6508,-8.6306,-8.4953,-8.4417,-8.4521,-8.3601,-8.3157,-8.312,-8.2862,-8.277,-8.2954,-8.373,-8.3484,-8.227,-8.2603,-8.3831,-8.5916,-8.5591,-8.451,-8.2602,-8.1654,-8.0179,-7.8243,-7.7883,-7.77,-7.7549,-7.7359,-7.7308,-7.7358,-7.7726,-7.8029,-7.82,-7.8565,-7.9599,-8.1295,-8.1406,-8.244,-8.4861,-8.5298,-8.5036,-8.377,-8.4838,-8.5614,-8.5692,-8.4666,-8.4351,-8.5227,-8.4896,-8.4749,-8.5299,-8.5372,-8.5337,-8.5228,-8.5174,-8.551,-8.6145,-8.5692,-8.5564,-8.6276,-8.6202,-8.6267,-8.6797,-8.6979,-8.7596,-8.9065,-8.89,-8.8222,-8.7461,-8.7568,-8.7706,-8.6674,-8.6294,-8.6294,-8.6294,-8.6294,-8.6194,-8.5939,-8.5323,-8.4624,-8.4131,-8.2785,-8.1851,-8.141,-8.0733,-7.9938,-7.958,-7.9094,-7.8829,-7.9023,-7.9096,-7.9484,-9.318,-9.2559,-9.0962,-9.0172,-8.9935,-8.9217,-8.9761,-9.1103,-9.1216,-9.1271,-9.12,-9.12,-9.07,-8.9735,-8.8877,-8.8592,-8.8774,-8.8803,-8.8803,-8.8803,-8.8592,-8.7944,-8.6969,-8.6703,-8.6571,-8.6497,-8.5645,-8.5627,-8.6165,-8.4811,-8.407,-8.4056,-8.3183,-8.3065,-8.3767,-8.4542,-8.5143,-8.5562,-8.4541,-8.4447,-8.5429,-8.3695,-8.254,-8.1998,-8.0622,-7.9539,-7.9035,-7.8351,-7.8026,-7.8302,-7.8143,-7.8823,-8.0486,-8.0509,-8.1133,-8.2423,-8.2641,-8.3149,-8.4056,-8.4129,-8.4751,-8.5992,-8.5874,-8.5518,-8.5138,-8.4382,-8.4146,-8.4646,-8.4306,-8.4499,-8.5624,-8.566,-8.5699,-8.5919,-8.5955,-8.5955,-8.5882,-8.5616,-8.5667,-8.6225,-8.5391,-8.5032,-8.5704,-8.5678,-8.5827,-8.6486,-8.7063,-8.749,-8.847,-8.9039,-8.8514,-8.726,-8.6884,-8.6751,-8.6463,-8.6294,-8.6294,-8.6294,-8.626,-8.6191,-8.5987,-8.5286,-8.4639,-8.437,-8.3004,-8.2051,-8.163,-8.122,-8.0678,-8.0326,-7.9819,-7.9671,-8.0372,-8.0122,-7.9815,-9.3002,-9.2247,-9.0877,-9.0014,-8.9545,-8.9142,-8.9667,-9.0756,-9.0794,-9.1459,-9.2436,-9.17,-9.1013,-9.0356,-8.9269,-8.8766,-8.8803,-8.8851,-8.8879,-8.8879,-8.8613,-8.822,-8.7734,-8.749,-8.7433,-8.7359,-8.658,-8.6388,-8.6672,-8.5534,-8.4977,-8.5,-8.4515,-8.4491,-8.4861,-8.5639,-8.6232,-8.6534,-8.5742,-8.5799,-8.6672,-8.5772,-8.5013,-8.4569,-8.3798,-8.321,-8.2671,-8.2205,-8.2001,-8.2057,-8.185,-8.1998,-8.2722,-8.3007,-8.3441,-8.4098,-8.4533,-8.4968,-8.533,-8.5366,-8.5554,-8.595,-8.576,-8.5334,-8.4762,-8.4714,-8.4826,-8.5026,-8.4863,-8.5041,-8.5612,-8.5761,-8.5912,-8.6063,-8.6174,-8.6247,-8.621,-8.5914,-8.5678,-8.5725,-8.5191,-8.4876,-8.5109,-8.5062,-8.5393,-8.6446,-8.7461,-8.8286,-8.8275,-8.8798,-8.8837,-8.775,-8.7512,-8.7255,-8.6844,-8.6593,-8.637,-8.5975,-8.5807,-8.5535,-8.519,-8.456,-8.4136,-8.3525,-8.2707,-8.2045,-8.1322,-8.0947,-8.0693,-8.041,-8.0074,-8.0084,-8.0568,-8.0664,-8.0648,-9.3184,-9.2288,-9.1245,-9.0196,-8.9238,-8.9102,-8.9583,-9.0418,-9.0306,-9.1534,-9.3387,-9.1975,-9.1063,-9.07,-8.9517,-8.8973,-8.8889,-8.8936,-8.8992,-8.8964,-8.8679,-8.8533,-8.8503,-8.8239,-8.8084,-8.8047,-8.7415,-8.7081,-8.7007,-8.6264,-8.5781,-8.5632,-8.5781,-8.5855,-8.5892,-8.6672,-8.7081,-8.7081,-8.6831,-8.71,-8.7858,-8.7895,-8.7624,-8.7155,-8.6895,-8.6486,-8.5929,-8.5553,-8.5397,-8.5355,-8.5066,-8.4769,-8.4569,-8.4937,-8.5117,-8.5041,-8.5547,-8.5909,-8.5909,-8.5909,-8.5919,-8.5974,-8.5573,-8.5083,-8.4685,-8.5026,-8.5388,-8.5255,-8.5335,-8.5459,-8.5569,-8.5827,-8.6056,-8.6099,-8.632,-8.6465,-8.6393,-8.61,-8.5725,-8.5297,-8.502,-8.4819,-8.4651,-8.4753,-8.5448,-8.6837,-8.8259,-8.8778,-8.8194,-8.8452,-8.8496,-8.8278,-8.8084,-8.7652,-8.7012,-8.6561,-8.6102,-8.5444,-8.5111,-8.4757,-8.4259,-8.3949,-8.3507,-8.2747,-8.2438,-8.1948,-8.1009,-8.0857,-8.0808,-8.056,-8.0276,-8.0242,-8.0445,-8.0783,-8.1138,-9.3978,-9.3222,-9.2288,-9.0963,-8.9473,-8.9302,-9.0032,-9.116,-9.0569,-9.162,-9.3506,-9.1395,-9.0315,-9.0137,-8.9414,-8.8992,-8.8964,-8.8992,-8.8992,-8.8964,-8.8679,-8.8533,-8.854,-8.8276,-8.8084,-8.8121,-8.8047,-8.8041,-8.7966,-8.7186,-8.6375,-8.5743,-8.6338,-8.6672,-8.6784,-8.7527,-8.7973,-8.7973,-8.7941,-8.7978,-8.8053,-8.8084,-8.8047,-8.7973,-8.7192,-8.6784,-8.6672,-8.585,-8.5657,-8.6094,-8.5876,-8.5832,-8.61,-8.6065,-8.5953,-8.5802,-8.5873,-8.5909,-8.5909,-8.5909,-8.6137,-8.6707,-8.5456,-8.5006,-8.557,-8.5077,-8.4581,-8.4672,-8.5153,-8.5567,-8.5567,-8.618,-8.6519,-8.6207,-8.6502,-8.6609,-8.6429,-8.6393,-8.6062,-8.5297,-8.506,-8.4819,-8.4835,-8.5324,-8.6239,-8.7378,-8.8251,-8.8608,-8.8238,-8.8088,-8.8089,-8.7925,-8.7748,-8.7196,-8.6412,-8.588,-8.5506,-8.4751,-8.4302,-8.4135,-8.388,-8.3535,-8.2887,-8.2913,-8.2446,-8.2102,-8.1716,-8.1524,-8.1545,-8.1092,-8.0879,-8.0832,-8.0588,-8.068,-8.0992,-9.3921,-9.3428,-9.2595,-9.1496,-9.0396,-9.0642,-9.0847,-9.0897,-9.0935,-9.1582,-9.2221,-9.0869,-9.0494,-9.0869,-8.9592,-8.8992,-8.8992,-8.8992,-8.8992,-8.9001,-8.9165,-8.928,-8.9287,-8.9467,-8.931,-8.8933,-8.9404,-8.943,-8.8977,-8.8666,-8.8391,-8.8055,-8.7853,-8.7681,-8.7718,-8.796,-8.8084,-8.8084,-8.8084,-8.8084,-8.8084,-8.8084,-8.8084,-8.8047,-8.775,-8.7564,-8.7527,-8.7205,-8.7042,-8.7179,-8.6856,-8.6664,-8.6572,-8.6283,-8.6062,-8.5947,-8.5909,-8.5909,-8.5909,-8.6098,-8.6028,-8.5568,-8.5548,-8.5415,-8.4986,-8.5471,-8.5864,-8.5803,-8.6024,-8.6358,-8.6672,-8.7148,-8.7161,-8.6706,-8.7012,-8.7192,-8.6645,-8.6572,-8.632,-8.5801,-8.5339,-8.5235,-8.5606,-8.6478,-8.7273,-8.784,-8.8295,-8.8452,-8.8259,-8.8029,-8.7925,-8.7878,-8.7784,-8.734,-8.6534,-8.6171,-8.5459,-8.4469,-8.4127,-8.4143,-8.3583,-8.4087,-8.4107,-8.3492,-8.3438,-8.3266,-8.2884,-8.2747,-8.2678,-8.1958,-8.1455,-8.1359,-8.1331,-8.131,-8.1514,-9.3921,-9.3492,-9.2671,-9.1875,-9.1293,-9.1703,-9.1606,-9.1206,-9.1471,-9.1818,-9.2119,-9.0888,-9.0804,-9.1283,-8.9826,-8.9047,-8.9047,-8.9047,-8.9047,-8.9039,-8.9577,-8.9691,-8.9608,-9.0237,-9.0185,-8.969,-9.0373,-9.0479,-8.995,-8.975,-8.9735,-8.9653,-8.8824,-8.8354,-8.8293,-8.8171,-8.8146,-8.8084,-8.8084,-8.8084,-8.8084,-8.8084,-8.8084,-8.8084,-8.8084,-8.8084,-8.8084,-8.8053,-8.7958,-8.7794,-8.7468,-8.7098,-8.6714,-8.6356,-8.6099,-8.5911,-8.5909,-8.5909,-8.5909,-8.621,-8.6061,-8.5348,-8.5972,-8.6084,-8.571,-8.641,-8.7215,-8.7632,-8.7589,-8.7745,-8.7645,-8.7833,-8.7552,-8.6947,-8.734,-8.7373,-8.6788,-8.6784,-8.6714,-8.6174,-8.5902,-8.5938,-8.6619,-8.7442,-8.8064,-8.8283,-8.8526,-8.8577,-8.8351,-8.8157,-8.7971,-8.7925,-8.7925,-8.7527,-8.686,-8.6452,-8.5601,-8.4751,-8.44,-8.4135,-8.339,-8.4426,-8.4777,-8.3817,-8.457,-8.4589,-8.3684,-8.3517,-8.3384,-8.252,-8.1949,-8.1749,-8.1747,-8.16,-8.1712,-9.4551,-9.3568,-9.2671,-9.2254,-9.2049,-9.2032,-9.2285,-9.2627,-9.2072,-9.2599,-9.3502,-9.162,-9.1024,-9.1698,-9.0056,-8.9249,-8.9211,-8.9249,-8.9242,-8.9189,-8.9689,-8.9518,-8.8961,-9.0123,-9.0441,-8.9892,-9.0781,-9.1148,-9.0961,-9.0092,-8.9614,-8.9803,-8.9093,-8.8481,-8.8398,-8.8405,-8.8239,-8.8115,-8.8084,-8.8084,-8.8084,-8.8084,-8.8084,-8.8084,-8.8084,-8.8084,-8.8084,-8.7927,-8.7794,-8.7794,-8.7505,-8.7132,-8.675,-8.6465,-8.621,-8.5985,-8.5909,-8.5909,-8.5947,-8.621,-8.6462,-8.6703,-8.6594,-8.6902,-8.7891,-8.7867,-8.8338,-8.9641,-8.9638,-8.9298,-8.8212,-8.8097,-8.7739,-8.7138,-8.7049,-8.7004,-8.675,-8.7129,-8.7027,-8.6466,-8.6565,-8.7072,-8.7848,-8.8036,-8.85,-8.8877,-8.9031,-8.881,-8.8577,-8.8351,-8.8121,-8.7971,-8.7854,-8.7597,-8.693,-8.6545,-8.6021,-8.524,-8.468,-8.4439,-8.4308,-8.4212,-8.4184,-8.419,-8.4501,-8.4535,-8.4141,-8.3851,-8.3581,-8.2958,-8.2235,-8.1952,-8.2089,-8.1358,-8.1346,-9.4967,-9.4338,-9.4035,-9.3593,-9.3125,-9.346,-9.3509,-9.3347,-9.3423,-9.3471,-9.3515,-9.2603,-9.1876,-9.1253,-9.1125,-9.068,-9.0077,-9.0039,-9.022,-9.0644,-9.1237,-9.1103,-9.0534,-9.182,-9.1497,-9.0288,-9.1762,-9.2818,-9.2795,-9.2016,-9.1575,-9.1454,-9.0684,-8.993,-8.9369,-8.9137,-8.8791,-8.8189,-8.8084,-8.8084,-8.8084,-8.8084,-8.8084,-8.8084,-8.8084,-8.8084,-8.8084,-8.8021,-8.799,-8.799,-8.7767,-8.7402,-8.6891,-8.6356,-8.6024,-8.5947,-8.5909,-8.5909,-8.5985,-8.6429,-8.6564,-8.6297,-8.7591,-8.8244,-8.852,-8.928,-9.0196,-9.0517,-9.085,-9.0367,-8.9403,-8.8951,-8.8508,-8.7787,-8.7669,-8.7474,-8.7142,-8.7231,-8.7332,-8.7039,-8.7301,-8.7713,-8.8111,-8.8535,-8.8999,-8.9206,-8.9066,-8.8899,-8.8766,-8.8622,-8.8351,-8.8167,-8.8075,-8.7959,-8.7562,-8.6919,-8.6324,-8.5683,-8.5157,-8.522,-8.518,-8.5353,-8.5328,-8.5294,-8.5259,-8.5225,-8.5156,-8.4693,-8.4368,-8.3964,-8.3171,-8.2544,-8.2411,-8.1851,-8.1524,-9.5119,-9.4819,-9.4793,-9.449,-9.4073,-9.4409,-9.4372,-9.3996,-9.4356,-9.4254,-9.3842,-9.3498,-9.2756,-9.1925,-9.2025,-9.188,-9.1326,-9.11,-9.1141,-9.1545,-9.2188,-9.2054,-9.1671,-9.2832,-9.2584,-9.1261,-9.2706,-9.38,-9.3873,-9.3064,-9.2651,-9.2605,-9.173,-9.0796,-8.9945,-8.9675,-8.9113,-8.8295,-8.8084,-8.8084,-8.8084,-8.8084,-8.8084,-8.8158,-8.8344,-8.8344,-8.8121,-8.8084,-8.8084,-8.8084,-8.7927,-8.7534,-8.6925,-8.632,-8.5948,-8.5909,-8.5909,-8.5947,-8.6061,-8.6609,-8.6775,-8.6363,-8.8159,-8.9237,-8.9007,-9.0546,-9.1354,-9.1458,-9.158,-9.129,-9.0185,-8.952,-8.8853,-8.7901,-8.7742,-8.7584,-8.7139,-8.7435,-8.7693,-8.7806,-8.8061,-8.832,-8.8528,-8.8963,-8.9249,-8.932,-8.911,-8.8987,-8.8899,-8.8766,-8.8622,-8.8396,-8.8351,-8.8213,-8.797,-8.7525,-8.7257,-8.6639,-8.6019,-8.6059,-8.6075,-8.6266,-8.631,-8.6294,-8.6294,-8.6294,-8.6087,-8.5604,-8.5229,-8.4908,-8.4311,-8.3597,-8.3124,-8.248,-8.224,-9.5045,-9.4819,-9.4793,-9.4755,-9.4679,-9.4625,-9.4621,-9.4625,-9.4729,-9.4781,-9.4617,-9.4023,-9.3656,-9.3478,-9.2746,-9.2538,-9.2771,-9.2291,-9.1939,-9.1845,-9.2338,-9.2263,-9.1704,-9.305,-9.3425,-9.2605,-9.332,-9.3762,-9.3948,-9.3117,-9.2713,-9.2605,-9.2108,-9.125,-8.9907,-9.0027,-8.9391,-8.8586,-8.8412,-8.8301,-8.8121,-8.8307,-8.8344,-8.8344,-8.8938,-8.8976,-8.827,-8.8195,-8.8158,-8.8121,-8.7964,-8.7468,-8.6964,-8.6393,-8.6098,-8.6021,-8.5983,-8.5986,-8.6282,-8.6789,-8.7211,-8.7593,-8.8774,-8.9982,-9.0451,-9.1407,-9.2133,-9.2217,-9.2264,-9.1795,-9.0484,-8.9606,-8.8618,-8.7295,-8.7194,-8.7142,-8.7169,-8.7637,-8.8224,-8.8545,-8.8812,-8.9112,-8.925,-8.932,-8.9356,-8.9463,-8.9348,-8.9154,-8.8987,-8.8943,-8.8846,-8.8667,-8.8577,-8.8487,-8.8351,-8.8132,-8.804,-8.7819,-8.7126,-8.6825,-8.6658,-8.674,-8.6444,-8.6344,-8.6294,-8.6294,-8.626,-8.5846,-8.5604,-8.5248,-8.4839,-8.4449,-8.3873,-8.3296,-8.2922,-9.5045,-9.4819,-9.4793,-9.4793,-9.4793,-9.4741,-9.4819,-9.4996,-9.5045,-9.5119,-9.5129,-9.4853,-9.4399,-9.3946,-9.3871,-9.3717,-9.3369,-9.3558,-9.3557,-9.3255,-9.3431,-9.3093,-9.2671,-9.3481,-9.3952,-9.368,-9.3197,-9.3364,-9.3806,-9.3537,-9.3425,-9.3506,-9.331,-9.2659,-9.1627,-9.1635,-9.1073,-9.0088,-8.9982,-8.9882,-8.9788,-8.9756,-8.9719,-8.9793,-9.0016,-8.9979,-8.9756,-8.9236,-8.8641,-8.8158,-8.8573,-8.8613,-8.8001,-8.6936,-8.6575,-8.6901,-8.6314,-8.6605,-8.7741,-8.7884,-8.8233,-8.9163,-9.0397,-9.1147,-9.1418,-9.2258,-9.2756,-9.2721,-9.2616,-9.2077,-9.0879,-8.9858,-8.8873,-8.7558,-8.7298,-8.7203,-8.7381,-8.8018,-8.8483,-8.8691,-8.9035,-8.9487,-8.9822,-8.9784,-8.9641,-8.9963,-8.9677,-8.9313,-8.9198,-8.9198,-8.9066,-8.8854,-8.881,-8.8757,-8.8577,-8.8442,-8.8351,-8.8157,-8.7737,-8.7322,-8.7178,-8.6922,-8.6593,-8.6394,-8.6344,-8.6294,-8.626,-8.6122,-8.588,-8.5708,-8.5401,-8.4995,-8.4556,-8.4148,-8.3756,-9.5119,-9.4819,-9.4793,-9.4793,-9.4819,-9.4844,-9.4971,-9.5143,-9.5286,-9.5356,-9.5356,-9.5286,-9.4925,-9.4475,-9.4668,-9.4412,-9.394,-9.4394,-9.4431,-9.418,-9.4122,-9.3821,-9.3408,-9.3944,-9.4236,-9.4104,-9.3567,-9.3518,-9.3948,-9.38,-9.3837,-9.3986,-9.3927,-9.3417,-9.2586,-9.2473,-9.1979,-9.1025,-9.0845,-9.0783,-9.0626,-9.0595,-9.0563,-9.0536,-9.0759,-9.0759,-9.0499,-9.0276,-8.983,-8.9236,-8.9432,-8.9493,-8.9122,-8.8239,-8.7813,-8.7997,-8.7742,-8.7851,-8.8947,-8.8937,-8.9325,-9.0513,-9.1725,-9.2481,-9.2719,-9.3561,-9.3974,-9.3779,-9.3749,-9.3128,-9.1819,-9.109,-8.9963,-8.8507,-8.769,-8.7556,-8.7944,-8.8716,-8.915,-8.9349,-8.9838,-9.0285,-9.0337,-9.0498,-9.022,-9.0514,-9.02,-8.9707,-8.9643,-8.9579,-8.9371,-8.9206,-8.9206,-8.9031,-8.8766,-8.8712,-8.8667,-8.8396,-8.8029,-8.7749,-8.7526,-8.7082,-8.674,-8.6444,-8.6344,-8.6294,-8.626,-8.6294,-8.6156,-8.6018,-8.588,-8.5696,-8.5323,-8.4966,-8.4523,-9.5286,-9.4819,-9.4793,-9.4793,-9.4819,-9.4921,-9.5021,-9.5094,-9.5402,-9.5554,-9.5463,-9.5402,-9.531,-9.5105,-9.4883,-9.4677,-9.461,-9.4572,-9.4557,-9.4421,-9.4431,-9.4356,-9.4291,-9.4366,-9.4349,-9.4236,-9.4142,-9.4131,-9.4173,-9.3845,-9.3837,-9.4106,-9.3905,-9.3402,-9.284,-9.2653,-9.2301,-9.1731,-9.1402,-9.1273,-9.1199,-9.105,-9.0956,-9.0865,-9.139,-9.1502,-9.1056,-9.1353,-9.1316,-9.0615,-9.037,-9.0165,-9.0076,-8.9873,-8.9445,-8.9451,-8.9416,-8.9488,-8.9772,-9.0131,-9.0668,-9.1717,-9.2798,-9.3561,-9.4169,-9.4797,-9.5202,-9.5105,-9.5109,-9.4558,-9.3236,-9.2687,-9.1739,-9.0023,-8.8591,-8.8277,-8.9182,-8.9806,-9.0109,-9.0187,-9.0925,-9.1516,-9.0915,-9.1256,-9.1201,-9.1046,-9.0767,-9.0387,-9.0013,-8.9791,-8.9755,-8.9628,-8.9421,-8.9285,-8.8978,-8.8934,-8.8934,-8.8801,-8.8487,-8.8259,-8.7854,-8.7418,-8.6887,-8.6593,-8.6344,-8.6294,-8.6294,-8.6294,-8.6294,-8.6191,-8.6191,-8.6294,-8.6006,-8.5529,-8.5104,-9.5286,-9.4819,-9.4793,-9.4793,-9.4819,-9.4946,-9.5119,-9.531,-9.556,-9.567,-9.5664,-9.556,-9.5364,-9.5167,-9.4921,-9.4767,-9.4741,-9.4741,-9.4741,-9.4689,-9.4689,-9.461,-9.453,-9.4567,-9.4486,-9.4349,-9.4236,-9.4394,-9.4774,-9.4032,-9.41,-9.4849,-9.4152,-9.3814,-9.3589,-9.3551,-9.3725,-9.3754,-9.3237,-9.3121,-9.3237,-9.2796,-9.2481,-9.2389,-9.2505,-9.2505,-9.2319,-9.2505,-9.2245,-9.1428,-9.0764,-9.0731,-9.1153,-9.055,-9.0347,-9.0684,-9.007,-9.0217,-9.1383,-9.1745,-9.2323,-9.3371,-9.4214,-9.4879,-9.5031,-9.5325,-9.5436,-9.5403,-9.5403,-9.5257,-9.4667,-9.4011,-9.2835,-9.1287,-9.0083,-8.9599,-9.0062,-9.0895,-9.1326,-9.0873,-9.1668,-9.2142,-9.212,-9.2067,-9.1905,-9.1634,-9.1212,-9.0688,-9.0247,-8.9833,-8.9713,-8.9628,-8.9457,-8.9328,-8.9198,-8.9198,-8.9233,-8.919,-8.8978,-8.8801,-8.8315,-8.7714,-8.7192,-8.674,-8.6494,-8.6394,-8.6344,-8.6294,-8.6294,-8.6344,-8.6294,-8.6294,-8.6093,-8.5719,-8.5515,-9.531,-9.487,-9.4819,-9.4844,-9.4895,-9.5021,-9.5215,-9.5471,-9.5713,-9.5776,-9.5772,-9.567,-9.5433,-9.5191,-9.4971,-9.4844,-9.4819,-9.4793,-9.4793,-9.4793,-9.4793,-9.4741,-9.4689,-9.4663,-9.4594,-9.4404,-9.4283,-9.4377,-9.4511,-9.3995,-9.4137,-9.4444,-9.4152,-9.3927,-9.3948,-9.4015,-9.4361,-9.4857,-9.4632,-9.4519,-9.4547,-9.4179,-9.3541,-9.3198,-9.2988,-9.2988,-9.2988,-9.3285,-9.3099,-9.2356,-9.1836,-9.191,-9.2616,-9.2154,-9.2131,-9.2835,-9.2259,-9.2553,-9.3322,-9.365,-9.416,-9.5035,-9.57,-9.6071,-9.6369,-9.6443,-9.6443,-9.6517,-9.648,-9.6257,-9.5777,-9.4973,-9.3937,-9.2862,-9.2353,-9.1879,-9.1354,-9.1712,-9.1987,-9.2072,-9.2605,-9.3084,-9.2916,-9.2951,-9.2725,-9.2274,-9.1893,-9.12,-9.0496,-9.0061,-8.9778,-8.9886,-8.9771,-8.965,-8.9564,-8.9521,-8.9463,-8.942,-8.9376,-8.9209,-8.8622,-8.7994,-8.7431,-8.6936,-8.6642,-8.6444,-8.6444,-8.6394,-8.6394,-8.6394,-8.6344,-8.6244,-8.6093,-8.5992,-8.5788,-9.5356,-9.4996,-9.487,-9.487,-9.4996,-9.5143,-9.5356,-9.5604,-9.5818,-9.5859,-9.5814,-9.5734,-9.5516,-9.5191,-9.5045,-9.4921,-9.4793,-9.4793,-9.4907,-9.4983,-9.5058,-9.5096,-9.5298,-9.4881,-9.4648,-9.4469,-9.4442,-9.4575,-9.457,-9.4175,-9.4092,-9.4369,-9.413,-9.3867,-9.4061,-9.4128,-9.46,-9.5117,-9.5163,-9.491,-9.4741,-9.4423,-9.3898,-9.3425,-9.3248,-9.3169,-9.3281,-9.3653,-9.3805,-9.3169,-9.3244,-9.3582,-9.4177,-9.4288,-9.4515,-9.4923,-9.4852,-9.4964,-9.5294,-9.5257,-9.5666,-9.6294,-9.6554,-9.7112,-9.7706,-9.7855,-9.7929,-9.8115,-9.8077,-9.7557,-9.678,-9.586,-9.5118,-9.4518,-9.4787,-9.4311,-9.3361,-9.2711,-9.2684,-9.323,-9.3851,-9.374,-9.3558,-9.3756,-9.4092,-9.2733,-9.2439,-9.207,-9.1355,-9.09,-9.0714,-9.0726,-9.0462,-9.0049,-8.9928,-8.9843,-8.9743,-8.9685,-8.9713,-8.9466,-8.8703,-8.8086,-8.7573,-8.7144,-8.6887,-8.6691,-8.6642,-8.6593,-8.6494,-8.6394,-8.6344,-8.6294,-8.6244,-8.6194,-8.6043,-9.544,-9.5119,-9.4895,-9.487,-9.5021,-9.5239,-9.5471,-9.5713,-9.5941,-9.5961,-9.5859,-9.5776,-9.5538,-9.5191,-9.507,-9.4921,-9.4895,-9.4971,-9.5134,-9.5816,-9.5816,-9.6233,-9.6309,-9.5551,-9.475,-9.4675,-9.5083,-9.5479,-9.5622,-9.5195,-9.5232,-9.5638,-9.4721,-9.4111,-9.4195,-9.4817,-9.5021,-9.506,-9.5067,-9.4983,-9.4691,-9.4185,-9.3914,-9.3876,-9.3917,-9.3611,-9.3379,-9.3797,-9.4132,-9.4235,-9.4578,-9.4994,-9.5105,-9.5143,-9.5291,-9.5514,-9.5514,-9.5477,-9.5551,-9.6034,-9.6406,-9.6666,-9.7223,-9.7966,-9.8709,-9.8783,-9.9118,-9.9452,-9.9229,-9.8486,-9.7669,-9.6817,-9.626,-9.5963,-9.5666,-9.5348,-9.5034,-9.4743,-9.4476,-9.4322,-9.4398,-9.4423,-9.3998,-9.407,-9.3952,-9.3199,-9.2935,-9.2819,-9.2273,-9.1619,-9.1517,-9.138,-9.1115,-9.0773,-9.0773,-9.0645,-9.0473,-9.0193,-9.007,-8.9919,-8.9156,-8.8351,-8.789,-8.7431,-8.7047,-8.6985,-8.6887,-8.6543,-8.6444,-8.6394,-8.6394,-8.6294,-8.6294,-8.6294,-8.6244,-9.5448,-9.5263,-9.4996,-9.5021,-9.5191,-9.544,-9.5648,-9.588,-9.6039,-9.6039,-9.592,-9.5839,-9.5626,-9.5324,-9.5181,-9.5211,-9.554,-9.5842,-9.6143,-9.6533,-9.6635,-9.6863,-9.7025,-9.6484,-9.5836,-9.576,-9.6017,-9.6374,-9.6312,-9.6081,-9.6006,-9.6479,-9.5636,-9.5439,-9.5289,-9.574,-9.6154,-9.6409,-9.5998,-9.578,-9.5751,-9.5102,-9.451,-9.4615,-9.4437,-9.402,-9.3756,-9.4392,-9.4764,-9.5132,-9.5916,-9.6331,-9.6034,-9.5997,-9.6146,-9.6517,-9.6591,-9.6591,-9.674,-9.6926,-9.7223,-9.7186,-9.7669,-9.8263,-9.8858,-9.9081,-9.9489,-9.9972,-9.9861,-9.9341,-9.856,-9.8152,-9.7595,-9.674,-9.6629,-9.6384,-9.5957,-9.5588,-9.5313,-9.5009,-9.4982,-9.4698,-9.4507,-9.4419,-9.4016,-9.3378,-9.3286,-9.3136,-9.2482,-9.1929,-9.2001,-9.1893,-9.1749,-9.1599,-9.1641,-9.1556,-9.1383,-9.0951,-9.0525,-9.0311,-8.985,-8.9057,-8.8259,-8.7843,-8.7431,-8.7322,-8.7178,-8.6789,-8.6543,-8.6642,-8.6677,-8.6444,-8.6294,-8.6294,-8.6294,-9.5522,-9.5448,-9.5191,-9.5239,-9.5448,-9.5582,-9.5835,-9.6078,-9.6117,-9.6058,-9.592,-9.5862,-9.5691,-9.5379,-9.5301,-9.5676,-9.6325,-9.712,-9.7431,-9.7377,-9.7469,-9.7658,-9.768,-9.7545,-9.7469,-9.7447,-9.7233,-9.713,-9.6957,-9.6764,-9.6831,-9.689,-9.6605,-9.6392,-9.6658,-9.6815,-9.6936,-9.7336,-9.6944,-9.6621,-9.6805,-9.62,-9.5651,-9.5243,-9.5135,-9.4723,-9.4719,-9.5206,-9.5656,-9.573,-9.7109,-9.7334,-9.7037,-9.6852,-9.7074,-9.7817,-9.7706,-9.7632,-9.7595,-9.778,-9.7855,-9.8003,-9.7929,-9.8523,-9.9229,-9.9526,-9.9824,-10.0121,-10.0158,-9.9563,-9.9043,-9.8598,-9.8003,-9.7334,-9.752,-9.7311,-9.6583,-9.5957,-9.5718,-9.544,-9.5248,-9.4857,-9.4675,-9.4507,-9.4068,-9.3665,-9.361,-9.3402,-9.2784,-9.2489,-9.2704,-9.2668,-9.2517,-9.2338,-9.2345,-9.2345,-9.2171,-9.1701,-9.1123,-9.0615,-9.0294,-8.9387,-8.8522,-8.8132,-8.7808,-8.7667,-8.7418,-8.7033,-8.6887,-8.702,-8.6824,-8.6494,-8.6394,-8.6294,-8.6294,-9.5839,-9.5818,-9.5582,-9.556,-9.5691,-9.5797,-9.592,-9.6098,-9.6232,-9.6117,-9.592,-9.59,-9.5746,-9.5432,-9.5371,-9.5748,-9.673,-9.7727,-9.8367,-9.834,-9.8367,-9.8567,-9.8908,-9.8556,-9.867,-9.9022,-9.8582,-9.8064,-9.7913,-9.7855,-9.7827,-9.7771,-9.7375,-9.713,-9.73,-9.7403,-9.7446,-9.7446,-9.7238,-9.703,-9.6554,-9.6243,-9.5963,-9.573,-9.5946,-9.5968,-9.5805,-9.6224,-9.6709,-9.6882,-9.7543,-9.7741,-9.7632,-9.7595,-9.7706,-9.7817,-9.7892,-9.7892,-9.7892,-9.7892,-9.8263,-9.8523,-9.8338,-9.9043,-10.0195,-10.0455,-10.0344,-10.0529,-10.0046,-9.9081,-9.8226,-9.8338,-9.8077,-9.7743,-9.7708,-9.783,-9.7544,-9.7061,-9.6427,-9.6126,-9.5596,-9.4979,-9.4763,-9.4543,-9.415,-9.3918,-9.3891,-9.3855,-9.3515,-9.3488,-9.3712,-9.3649,-9.3434,-9.3219,-9.3039,-9.3039,-9.2915,-9.2443,-9.1791,-9.0792,-9.0294,-8.9476,-8.8783,-8.8305,-8.7994,-8.7808,-8.7561,-8.7226,-8.7033,-8.6936,-8.674,-8.6543,-8.6394,-8.6294,-8.6294,-9.5862,-9.59,-9.5713,-9.5713,-9.5839,-9.5941,-9.6078,-9.6213,-9.6269,-9.6136,-9.6114,-9.6301,-9.6423,-9.6249,-9.6538,-9.7029,-9.7756,-9.8637,-9.919,-9.9228,-9.9266,-9.9379,-9.9834,-9.9379,-9.9455,-9.958,-9.9298,-9.9036,-9.8895,-9.881,-9.8838,-9.8791,-9.847,-9.8319,-9.8357,-9.8488,-9.843,-9.8049,-9.7764,-9.7524,-9.7199,-9.7003,-9.6802,-9.6944,-9.6828,-9.6775,-9.6723,-9.6663,-9.6928,-9.7077,-9.7546,-9.7852,-9.7892,-9.7929,-9.7929,-9.7929,-9.7929,-9.7929,-9.7892,-9.7929,-9.8263,-9.8932,-9.8709,-9.9229,-10.0307,-10.0529,-10.0529,-10.0567,-10.0455,-9.9378,-9.8672,-9.8486,-9.8338,-9.7966,-9.7929,-9.7868,-9.7802,-9.7616,-9.7273,-9.6804,-9.598,-9.5331,-9.4719,-9.4499,-9.4231,-9.4141,-9.4096,-9.405,-9.3995,-9.405,-9.4186,-9.4043,-9.3802,-9.3784,-9.3604,-9.356,-9.3515,-9.3077,-9.2306,-9.1306,-9.055,-8.9759,-8.9022,-8.8351,-8.8121,-8.8088,-8.7749,-8.7466,-8.7226,-8.6936,-8.6789,-8.6642,-8.6394,-8.6294,-8.6294,-9.6,-9.5961,-9.588,-9.588,-9.5981,-9.6098,-9.6213,-9.6269,-9.6288,-9.6136,-9.6035,-9.6744,-9.7018,-9.7104,-9.7644,-9.8312,-9.887,-9.9498,-9.971,-9.9758,-10.0013,-10.0089,-10.0099,-10.0224,-10.0386,-10.0472,-10.0038,-9.9876,-9.9631,-9.9736,-9.985,-9.9916,-9.9868,-10.0076,-10.0189,-10.0009,-9.9933,-9.9657,-9.9111,-9.8736,-9.8824,-9.8714,-9.8548,-9.8572,-9.7897,-9.7657,-9.7764,-9.7475,-9.7301,-9.7383,-9.762,-9.7892,-9.7929,-9.804,-9.8152,-9.8152,-9.8152,-9.8152,-9.8189,-9.8486,-9.8969,-9.9786,-9.9489,-9.9898,-10.0418,-10.0752,-10.0344,-10.0269,-9.9786,-9.9415,-9.8709,-9.8783,-9.8486,-9.8189,-9.7971,-9.8052,-9.8208,-9.8169,-9.8233,-9.7506,-9.6504,-9.5863,-9.5434,-9.4623,-9.4366,-9.4096,-9.405,-9.405,-9.3995,-9.3995,-9.405,-9.405,-9.4069,-9.4204,-9.4097,-9.4016,-9.3891,-9.3648,-9.2652,-9.1595,-9.091,-9.0226,-8.9502,-8.8929,-8.8693,-8.8661,-8.8182,-8.7737,-8.7466,-8.7226,-8.6936,-8.674,-8.6543,-8.6394,-8.6294,-9.6304,-9.6251,-9.6232,-9.6232,-9.6251,-9.6269,-9.6269,-9.6288,-9.6288,-9.6136,-9.6074,-9.68,-9.7112,-9.7356,-9.8287,-9.877,-9.9162,-9.9793,-10.0234,-10.0294,-10.0803,-10.1042,-10.1047,-10.1627,-10.1523,-10.1448,-10.088,-10.0265,-10.0151,-10.0557,-10.0775,-10.085,-10.1343,-10.1891,-10.157,-10.1284,-10.1611,-10.1505,-10.1051,-10.0698,-10.0474,-10.0341,-10.0243,-10.009,-9.9669,-9.9315,-9.91,-9.8586,-9.8184,-9.8091,-9.7958,-9.7929,-9.8003,-9.8635,-9.8895,-9.8969,-9.8969,-9.8969,-9.9043,-9.9415,-10.0046,-10.0604,-10.0492,-10.105,-10.131,-10.0901,-10.0269,-10.0232,-9.9192,-9.8449,-9.83,-9.8115,-9.8003,-9.8191,-9.8381,-9.8797,-9.9095,-9.9054,-9.9005,-9.8606,-9.771,-9.6968,-9.6394,-9.5374,-9.4535,-9.4222,-9.3995,-9.3995,-9.3995,-9.3995,-9.3995,-9.4041,-9.4041,-9.4177,-9.4222,-9.4141,-9.405,-9.3959,-9.2972,-9.1857,-9.1303,-9.0715,-9.0341,-8.9812,-8.9553,-8.913,-8.8639,-8.824,-8.783,-8.7488,-8.7304,-8.6992,-8.674,-8.6578,-8.6467,-9.6039,-9.634,-9.634,-9.6379,-9.634,-9.6379,-9.6379,-9.6361,-9.6306,-9.6482,-9.6845,-9.7531,-9.8222,-9.8868,-9.9936,-10.038,-10.057,-10.1038,-10.1441,-10.1377,-10.1821,-10.1958,-10.1915,-10.208,-10.2185,-10.2109,-10.1797,-10.1533,-10.1201,-10.0908,-10.0908,-10.1125,-10.1825,-10.2166,-10.245,-10.2068,-10.1845,-10.1626,-10.1339,-10.105,-10.0819,-10.0793,-10.0762,-10.0759,-10.052,-10.0437,-10.0213,-9.9548,-9.9337,-9.9246,-9.8999,-9.882,-9.9192,-9.9601,-9.9786,-9.9824,-10.0232,-10.0232,-9.9935,-10.0195,-10.0789,-10.1272,-10.1198,-10.131,-10.1681,-10.1087,-10.0084,-9.9601,-9.9043,-9.8449,-9.804,-9.7892,-9.8189,-9.8488,-9.8755,-9.9058,-9.9536,-9.9938,-9.9926,-9.9411,-9.888,-9.8135,-9.7231,-9.6194,-9.5235,-9.4713,-9.4316,-9.4066,-9.4031,-9.3995,-9.3995,-9.3995,-9.4041,-9.4041,-9.4086,-9.4005,-9.3914,-9.3715,-9.3125,-9.2162,-9.1705,-9.1234,-9.0856,-9.0492,-9.0129,-8.9695,-8.9189,-8.8779,-8.8486,-8.8038,-8.7623,-8.752,-8.7364,-8.715,-8.7053,-9.6001,-9.6463,-9.6446,-9.6429,-9.6429,-9.6429,-9.6429,-9.6411,-9.6322,-9.6731,-9.75,-9.8298,-9.9409,-10.0366,-10.0811,-10.1015,-10.1509,-10.2041,-10.2433,-10.2585,-10.2877,-10.2901,-10.2907,-10.2846,-10.2933,-10.2676,-10.2525,-10.2374,-10.2156,-10.192,-10.1646,-10.1523,-10.264,-10.3094,-10.3063,-10.3074,-10.2968,-10.2781,-10.2552,-10.2137,-10.1641,-10.1502,-10.1464,-10.1352,-10.1271,-10.1155,-10.111,-10.0337,-10.0168,-10.0108,-9.9783,-9.9638,-10.0046,-10.0381,-10.0567,-10.0752,-10.1272,-10.1495,-10.1161,-10.1124,-10.1272,-10.157,-10.1793,-10.1867,-10.1793,-10.1087,-10.0492,-10.0046,-9.9229,-9.882,-9.8375,-9.8077,-9.8158,-9.857,-9.8981,-9.9242,-9.9566,-10.0071,-10.0203,-9.9691,-9.9269,-9.9071,-9.809,-9.6958,-9.6066,-9.5301,-9.4744,-9.4281,-9.4066,-9.3995,-9.3995,-9.3995,-9.3995,-9.3995,-9.3995,-9.3949,-9.3858,-9.3612,-9.2986,-9.2599,-9.2247,-9.1857,-9.149,-9.1138,-9.0738,-9.0514,-9.016,-8.9633,-8.913,-8.8807,-8.8565,-8.8355,-8.8127,-8.7911,-8.7708,-9.6661,-9.6683,-9.6564,-9.6514,-9.6514,-9.6476,-9.6514,-9.6613,-9.6506,-9.69,-9.7808,-9.8891,-9.9893,-10.0385,-10.0696,-10.1027,-10.1418,-10.1496,-10.2333,-10.3044,-10.3515,-10.3933,-10.3992,-10.4143,-10.4354,-10.4105,-10.3584,-10.3156,-10.3134,-10.3281,-10.3217,-10.3482,-10.3965,-10.4748,-10.5015,-10.4763,-10.465,-10.4522,-10.4429,-10.3964,-10.3421,-10.3133,-10.3095,-10.2739,-10.2326,-10.195,-10.1737,-10.0992,-10.0627,-10.0638,-10.0344,-10.0381,-10.0752,-10.1161,-10.1421,-10.1607,-10.2015,-10.2275,-10.2164,-10.2164,-10.2424,-10.2573,-10.2573,-10.2461,-10.235,-10.183,-10.1384,-10.1012,-9.9972,-9.9229,-9.8783,-9.8451,-9.8089,-9.8502,-9.891,-9.916,-9.9579,-10.029,-10.0339,-9.988,-9.9541,-9.9331,-9.9064,-9.7974,-9.689,-9.6158,-9.5137,-9.4637,-9.4138,-9.3995,-9.3995,-9.3995,-9.3995,-9.3995,-9.4066,-9.4021,-9.3975,-9.3872,-9.3438,-9.3191,-9.2967,-9.254,-9.2005,-9.1921,-9.1591,-9.1402,-9.1178,-9.0722,-9.0274,-8.9822,-8.9507,-8.9175,-8.9029,-8.8828,-8.8656,-9.6274,-9.6738,-9.6707,-9.6661,-9.6613,-9.6613,-9.6889,-9.7247,-9.7238,-9.7845,-9.8861,-9.9943,-10.0496,-10.0748,-10.1596,-10.208,-10.2715,-10.429,-10.4456,-10.4811,-10.5382,-10.5447,-10.5306,-10.4877,-10.493,-10.4666,-10.4248,-10.4076,-10.4084,-10.4475,-10.4978,-10.5234,-10.5307,-10.5718,-10.6056,-10.6144,-10.595,-10.5847,-10.5814,-10.5455,-10.5133,-10.4466,-10.4207,-10.3926,-10.3182,-10.2774,-10.2448,-10.1742,-10.1636,-10.1531,-10.1272,-10.1347,-10.157,-10.1978,-10.2127,-10.2164,-10.2573,-10.2647,-10.2684,-10.2684,-10.2684,-10.2684,-10.2684,-10.2684,-10.2684,-10.235,-10.1941,-10.1347,-10.0531,-9.9751,-9.9043,-9.82,-9.769,-9.8356,-9.8718,-9.8956,-9.944,-10.0141,-10.0294,-9.9686,-9.9643,-9.9614,-9.9316,-9.8954,-9.7903,-9.6944,-9.5897,-9.4994,-9.4566,-9.4209,-9.4281,-9.4316,-9.4316,-9.4423,-9.4495,-9.4388,-9.4209,-9.4061,-9.3864,-9.3688,-9.3427,-9.2784,-9.2316,-9.2302,-9.2302,-9.207,-9.1859,-9.174,-9.1291,-9.0535,-9.017,-8.9924,-8.981,-8.9674,-8.945,-9.6241,-9.6783,-9.6822,-9.6753,-9.6746,-9.7017,-9.7395,-9.7832,-9.8061,-9.8673,-9.9735,-10.0578,-10.1,-10.1268,-10.1824,-10.3134,-10.3909,-10.5281,-10.5942,-10.6283,-10.6495,-10.6422,-10.5765,-10.5318,-10.5067,-10.4884,-10.4799,-10.4704,-10.4617,-10.5642,-10.5992,-10.6237,-10.6496,-10.6835,-10.7013,-10.7101,-10.694,-10.6715,-10.6677,-10.6355,-10.5923,-10.5068,-10.4743,-10.4418,-10.3638,-10.3268,-10.3012,-10.2567,-10.2272,-10.2275,-10.2238,-10.2201,-10.2461,-10.2684,-10.2684,-10.2721,-10.2721,-10.2721,-10.2721,-10.2684,-10.2684,-10.2684,-10.2684,-10.2684,-10.2684,-10.2684,-10.2313,-10.1869,-10.1053,-10.0199,-9.9383,-9.8465,-9.7765,-9.8241,-9.8041,-9.827,-9.8932,-9.9547,-9.9629,-9.9483,-9.9542,-9.9569,-9.9304,-9.8975,-9.8415,-9.7419,-9.6433,-9.5672,-9.5387,-9.503,-9.4851,-9.4851,-9.4816,-9.4959,-9.5066,-9.4887,-9.4709,-9.4617,-9.4431,-9.4101,-9.3711,-9.3185,-9.2941,-9.306,-9.299,-9.2681,-9.2421,-9.2126,-9.1656,-9.1032,-9.0778,-9.0517,-9.0365,-9.0209,-8.9985,-9.6783,-9.6822,-9.6822,-9.6822,-9.6961,-9.7711,-9.8083,-9.8292,-9.888,-9.9384,-9.9947,-10.0732,-10.1322,-10.1631,-10.2093,-10.3414,-10.4875,-10.5676,-10.6209,-10.6853,-10.7258,-10.6619,-10.5827,-10.5358,-10.5201,-10.4912,-10.4951,-10.5027,-10.4922,-10.6059,-10.6607,-10.7215,-10.7666,-10.7962,-10.8112,-10.8497,-10.8292,-10.7691,-10.7578,-10.6959,-10.6113,-10.5258,-10.5011,-10.4573,-10.3795,-10.3387,-10.35,-10.3389,-10.3092,-10.287,-10.287,-10.2758,-10.2684,-10.2721,-10.2758,-10.2833,-10.2833,-10.2796,-10.2758,-10.2721,-10.2684,-10.2684,-10.2684,-10.2684,-10.2684,-10.2648,-10.2611,-10.2167,-10.15,-10.0722,-9.9834,-9.8872,-9.8239,-9.7674,-9.7502,-9.7693,-9.8342,-9.9288,-9.9439,-9.9298,-9.9316,-9.9329,-9.9096,-9.8884,-9.8526,-9.7788,-9.6908,-9.6361,-9.6029,-9.5779,-9.5494,-9.5422,-9.5422,-9.5708,-9.5779,-9.5422,-9.5244,-9.5151,-9.5022,-9.4799,-9.4468,-9.4123,-9.393,-9.3868,-9.3299,-9.2744,-9.2611,-9.2477,-9.1909,-9.148,-9.1309,-9.1109,-9.0901,-9.064,-9.0364,-9.6822,-9.6822,-9.6822,-9.7131,-9.7673,-9.7943,-9.8377,-9.8995,-10.0063,-10.0654,-10.0757,-10.146,-10.1766,-10.2223,-10.3563,-10.4747,-10.5762,-10.7858,-10.8413,-10.7273,-10.7861,-10.7028,-10.6103,-10.5485,-10.5268,-10.5175,-10.5301,-10.5595,-10.5709,-10.6788,-10.7494,-10.8061,-10.8576,-10.8982,-10.869,-10.8739,-10.8592,-10.8442,-10.8329,-10.7924,-10.6996,-10.5997,-10.5191,-10.4794,-10.398,-10.3723,-10.4059,-10.3984,-10.391,-10.3613,-10.3576,-10.3353,-10.2944,-10.2833,-10.3056,-10.339,-10.3539,-10.3576,-10.339,-10.3167,-10.2721,-10.2684,-10.2684,-10.2684,-10.2684,-10.2684,-10.2612,-10.2315,-10.1722,-10.0796,-9.9646,-9.8454,-9.7628,-9.7024,-9.6846,-9.7143,-9.7796,-9.8997,-9.9542,-9.9119,-9.8964,-9.9129,-9.9038,-9.8944,-9.8658,-9.8454,-9.7681,-9.6944,-9.654,-9.6279,-9.6029,-9.6029,-9.61,-9.6422,-9.6493,-9.6172,-9.6172,-9.6303,-9.6031,-9.5629,-9.5344,-9.5119,-9.4596,-9.4296,-9.3515,-9.2806,-9.266,-9.2463,-9.218,-9.1895,-9.1625,-9.1265,-9.0917,-9.0674,-9.0467,-9.6822,-9.6822,-9.6822,-9.7286,-9.806,-9.8408,-9.9081,-10.0088,-10.1033,-10.1423,-10.1541,-10.1953,-10.2678,-10.3508,-10.4744,-10.66,-10.7203,-10.8431,-10.9182,-10.7922,-10.8167,-10.7158,-10.6098,-10.5546,-10.5268,-10.5279,-10.5652,-10.605,-10.6001,-10.754,-10.8288,-10.8666,-10.9208,-10.9073,-10.893,-10.8934,-10.8974,-10.8746,-10.8405,-10.7958,-10.7109,-10.6256,-10.5226,-10.4754,-10.4238,-10.3834,-10.4319,-10.4616,-10.4727,-10.4467,-10.4319,-10.4022,-10.3464,-10.3464,-10.365,-10.3984,-10.4022,-10.3836,-10.339,-10.3093,-10.2721,-10.2684,-10.2684,-10.2684,-10.2684,-10.2684,-10.2501,-10.2204,-10.1759,-10.0719,-9.9526,-9.8287,-9.7641,-9.7032,-9.6749,-9.7077,-9.7963,-9.9206,-9.9452,-9.8983,-9.8862,-9.9,-9.9027,-9.8991,-9.8836,-9.8705,-9.849,-9.7788,-9.7194,-9.704,-9.6861,-9.6778,-9.6886,-9.7207,-9.7207,-9.6921,-9.7064,-9.7421,-9.7076,-9.6494,-9.6435,-9.6245,-9.5461,-9.4689,-9.4062,-9.3423,-9.2765,-9.2379,-9.223,-9.198,-9.1727,-9.1368,-9.0917,-9.0709,-9.0536,-9.6744,-9.6822,-9.6822,-9.7286,-9.8137,-9.8973,-10.0193,-10.1546,-10.1516,-10.1749,-10.2244,-10.2286,-10.335,-10.509,-10.5674,-10.7145,-10.8935,-10.9014,-10.8865,-10.865,-10.8367,-10.7027,-10.606,-10.5546,-10.5242,-10.5262,-10.5709,-10.6371,-10.6148,-10.7652,-10.8591,-10.8817,-10.9073,-10.9005,-10.9049,-10.9205,-10.9093,-10.8596,-10.8104,-10.7511,-10.6625,-10.5669,-10.5158,-10.4757,-10.4317,-10.4393,-10.4765,-10.5062,-10.5025,-10.5062,-10.521,-10.469,-10.4505,-10.4727,-10.4505,-10.4244,-10.4022,-10.3762,-10.3204,-10.2944,-10.2721,-10.2684,-10.2684,-10.2684,-10.2684,-10.2648,-10.2501,-10.2313,-10.1903,-10.071,-9.9475,-9.8826,-9.8213,-9.7637,-9.7095,-9.7693,-9.8506,-9.909,-9.9146,-9.9026,-9.9046,-9.8991,-9.8849,-9.8849,-9.8944,-9.8967,-9.8823,-9.8752,-9.8264,-9.8324,-9.8015,-9.7599,-9.7742,-9.8027,-9.792,-9.7635,-9.7671,-9.7956,-9.7849,-9.7433,-9.7445,-9.7148,-9.6304,-9.5509,-9.4798,-9.3943,-9.2919,-9.2428,-9.228,-9.203,-9.1778,-9.1368,-9.0917,-9.0778,-9.0605,-9.6241,-9.6783,-9.6822,-9.7286,-9.8238,-9.9583,-10.0998,-10.2267,-10.2365,-10.2575,-10.3014,-10.3642,-10.4573,-10.5674,-10.7006,-10.8437,-10.9505,-11.0161,-10.9731,-10.9237,-10.8388,-10.718,-10.6213,-10.5472,-10.5175,-10.5462,-10.6021,-10.6834,-10.7071,-10.8201,-10.8699,-10.8882,-10.9237,-10.9162,-10.9165,-10.9396,-10.8865,-10.822,-10.7691,-10.6952,-10.6182,-10.5373,-10.5048,-10.4648,-10.4913,-10.521,-10.5619,-10.6213,-10.6251,-10.6028,-10.6065,-10.5508,-10.417,-10.4244,-10.4133,-10.417,-10.4356,-10.4542,-10.3724,-10.3056,-10.2721,-10.2721,-10.2684,-10.2684,-10.2684,-10.2648,-10.2538,-10.2276,-10.2048,-10.1002,-9.9979,-9.9212,-9.863,-9.8051,-9.7766,-9.8339,-9.9077,-9.9172,-9.9235,-9.9067,-9.9038,-9.8896,-9.8718,-9.8849,-9.8991,-9.9085,-9.9132,-9.9085,-9.9085,-9.8991,-9.8825,-9.8325,-9.8242,-9.842,-9.8491,-9.8277,-9.8313,-9.8384,-9.8242,-9.8135,-9.8099,-9.773,-9.7065,-9.6055,-9.4775,-9.3718,-9.2716,-9.2463,-9.2329,-9.208,-9.1828,-9.142,-9.1022,-9.0917,-9.0674,-9.6009,-9.6744,-9.6822,-9.7464,-9.8656,-9.9889,-10.1395,-10.2771,-10.2693,-10.299,-10.3872,-10.4644,-10.5682,-10.6857,-10.8251,-10.9497,-11.0452,-11.0137,-10.9761,-10.9223,-10.8391,-10.6973,-10.5921,-10.5498,-10.5441,-10.5775,-10.6476,-10.7297,-10.7697,-10.8318,-10.8919,-10.9343,-10.973,-10.9578,-10.9537,-10.954,-10.8937,-10.8033,-10.7203,-10.6577,-10.5994,-10.5261,-10.4602,-10.4946,-10.5545,-10.5768,-10.6436,-10.7068,-10.6956,-10.6845,-10.6882,-10.6325,-10.5062,-10.4765,-10.4839,-10.4913,-10.495,-10.4727,-10.4022,-10.3539,-10.313,-10.2796,-10.2684,-10.2684,-10.2684,-10.2648,-10.2463,-10.22,-10.1974,-10.152,-10.0525,-9.9552,-9.8966,-9.8418,-9.8738,-9.9093,-9.927,-9.9362,-9.9278,-9.9107,-9.8955,-9.8765,-9.8765,-9.8896,-9.8991,-9.9038,-9.9038,-9.9038,-9.9038,-9.9038,-9.8896,-9.8575,-9.8527,-9.8634,-9.867,-9.867,-9.8598,-9.8563,-9.8527,-9.8491,-9.8563,-9.8206,-9.7469,-9.6008,-9.4408,-9.3493,-9.2779,-9.2562,-9.2379,-9.213,-9.1929,-9.1523,-9.1213,-9.0917,-9.0692,-9.5932,-9.6822,-9.6899,-9.7821,-9.921,-9.9999,-10.1519,-10.3374,-10.2837,-10.3323,-10.4629,-10.5467,-10.6627,-10.7861,-10.9088,-11.0225,-11.0615,-11.03,-10.9706,-10.9147,-10.7777,-10.6518,-10.5883,-10.5574,-10.5757,-10.6269,-10.7006,-10.7872,-10.8251,-10.8827,-10.9453,-10.9982,-11.0135,-11.006,-10.9872,-10.9872,-10.9234,-10.8142,-10.7282,-10.6614,-10.6297,-10.5226,-10.4155,-10.5208,-10.5284,-10.5173,-10.6176,-10.6696,-10.6845,-10.7328,-10.7477,-10.7068,-10.6288,-10.5693,-10.5805,-10.5768,-10.5545,-10.4876,-10.4282,-10.3799,-10.3353,-10.2945,-10.2611,-10.2646,-10.2646,-10.2684,-10.2501,-10.2387,-10.2197,-10.1997,-10.1149,-10.0709,-10.0239,-9.9686,-9.9622,-9.9796,-9.9765,-9.9669,-9.9257,-9.9096,-9.8861,-9.8718,-9.8718,-9.8849,-9.8849,-9.8944,-9.8944,-9.8896,-9.8944,-9.8991,-9.8896,-9.8718,-9.8718,-9.867,-9.867,-9.867,-9.867,-9.867,-9.867,-9.867,-9.8634,-9.8313,-9.7825,-9.6304,-9.4692,-9.3792,-9.3079,-9.2779,-9.2498,-9.223,-9.198,-9.1711,-9.142,-9.1161,-9.0796,-9.539,-9.686,-9.7518,-9.8362,-9.9233,-9.993,-10.1443,-10.3399,-10.3196,-10.3925,-10.539,-10.6283,-10.725,-10.8456,-10.9504,-11.0523,-11.0952,-11.0362,-10.9899,-10.9012,-10.7701,-10.66,-10.6022,-10.6019,-10.6197,-10.6582,-10.7356,-10.8455,-10.8893,-10.9358,-10.9794,-11.0094,-11.0545,-11.0808,-11.0282,-11.0207,-10.9531,-10.8517,-10.7766,-10.6955,-10.6343,-10.6574,-10.632,-10.6437,-10.6251,-10.6511,-10.7217,-10.7291,-10.7402,-10.7625,-10.7625,-10.7179,-10.6436,-10.6213,-10.5879,-10.5656,-10.5916,-10.5173,-10.443,-10.4022,-10.3576,-10.2723,-10.2314,-10.2459,-10.257,-10.2646,-10.2686,-10.2611,-10.2494,-10.2291,-10.2077,-10.1831,-10.1471,-10.0955,-10.0478,-10.0347,-10.0259,-9.9741,-9.9329,-9.9049,-9.8813,-9.8718,-9.8718,-9.8718,-9.8753,-9.8753,-9.8801,-9.8718,-9.8765,-9.8801,-9.8849,-9.8718,-9.8718,-9.867,-9.867,-9.867,-9.867,-9.867,-9.867,-9.867,-9.867,-9.8027,-9.7373,-9.6411,-9.5248,-9.4229,-9.3352,-9.2884,-9.2618,-9.2399,-9.213,-9.1914,-9.1762,-9.1471,-9.1126,-9.5226,-9.6827,-9.7339,-9.8192,-9.9089,-9.9455,-10.1018,-10.3147,-10.3313,-10.4382,-10.6207,-10.7173,-10.8088,-10.905,-11.0042,-11.0435,-11.0918,-11.0304,-10.9414,-10.8624,-10.7759,-10.6967,-10.6567,-10.6515,-10.6968,-10.7359,-10.8213,-10.9057,-10.9395,-10.9772,-11.0057,-11.062,-11.1333,-11.1559,-11.0995,-11.0733,-11.0132,-10.9343,-10.848,-10.7705,-10.6754,-10.676,-10.6953,-10.6921,-10.7069,-10.7365,-10.7588,-10.7625,-10.7625,-10.7625,-10.7625,-10.7514,-10.6956,-10.6585,-10.6436,-10.6362,-10.625,-10.5767,-10.4838,-10.4244,-10.3836,-10.2834,-10.2278,-10.2571,-10.2902,-10.3053,-10.3353,-10.3316,-10.3316,-10.3162,-10.3125,-10.2944,-10.2328,-10.1782,-10.1356,-10.1117,-10.0521,-9.9831,-9.9421,-9.9085,-9.8944,-9.8849,-9.8765,-9.867,-9.8753,-9.8753,-9.867,-9.867,-9.867,-9.867,-9.867,-9.867,-9.867,-9.867,-9.867,-9.867,-9.867,-9.867,-9.867,-9.867,-9.8563,-9.7635,-9.6756,-9.6506,-9.577,-9.4454,-9.3718,-9.3215,-9.2702,-9.2463,-9.223,-9.203,-9.1964,-9.1847,-9.1471,-9.524,-9.6793,-9.6967,-9.7813,-9.8983,-9.8979,-10.065,-10.3142,-10.3297,-10.4692,-10.6971,-10.7997,-10.8849,-10.9796,-11.0616,-11.0543,-11.0265,-10.957,-10.8774,-10.8081,-10.695,-10.6758,-10.682,-10.6858,-10.7548,-10.8257,-10.9006,-10.9334,-10.9551,-11.0077,-11.0733,-11.1446,-11.2047,-11.2535,-11.2197,-11.1634,-11.0695,-10.9681,-10.8934,-10.8674,-10.7902,-10.7018,-10.7177,-10.7256,-10.7181,-10.6994,-10.7402,-10.7625,-10.7625,-10.7625,-10.7625,-10.7551,-10.7402,-10.7031,-10.7105,-10.7068,-10.6882,-10.6139,-10.5284,-10.495,-10.4059,-10.3131,-10.2796,-10.2795,-10.3125,-10.346,-10.3761,-10.4282,-10.4282,-10.4167,-10.4176,-10.399,-10.3379,-10.2457,-10.2074,-10.1647,-10.0819,-10.0065,-9.9631,-9.9251,-9.911,-9.9063,-9.8849,-9.8753,-9.8706,-9.8706,-9.867,-9.867,-9.867,-9.867,-9.867,-9.867,-9.867,-9.867,-9.867,-9.867,-9.867,-9.867,-9.867,-9.867,-9.8456,-9.7706,-9.7314,-9.7326,-9.6447,-9.5081,-9.419,-9.3616,-9.3152,-9.2723,-9.2414,-9.23,-9.2445,-9.2294,-9.1746,-9.5269,-9.6836,-9.7557,-9.8354,-9.9099,-9.9518,-10.1147,-10.3068,-10.3273,-10.4921,-10.7326,-10.8299,-10.9029,-10.9758,-11.0161,-11.0279,-11.015,-10.916,-10.8574,-10.8071,-10.6854,-10.6818,-10.7188,-10.7607,-10.8328,-10.8993,-10.9548,-10.9621,-11.0197,-11.0791,-11.1446,-11.2197,-11.2948,-11.2798,-11.1596,-11.1108,-11.0582,-10.9644,-10.908,-10.8746,-10.8643,-10.8059,-10.7885,-10.7777,-10.759,-10.7515,-10.7588,-10.7625,-10.7625,-10.7625,-10.7625,-10.7625,-10.7551,-10.7402,-10.7477,-10.7477,-10.7291,-10.6472,-10.5804,-10.5322,-10.4282,-10.3168,-10.2908,-10.2905,-10.3274,-10.3645,-10.4354,-10.5694,-10.5731,-10.5502,-10.5439,-10.5237,-10.4701,-10.3253,-10.2408,-10.1888,-10.121,-10.0544,-10.002,-9.9699,-9.9502,-9.9242,-9.8896,-9.8848,-9.8848,-9.8813,-9.8706,-9.8741,-9.8884,-9.8813,-9.867,-9.867,-9.867,-9.867,-9.867,-9.867,-9.867,-9.867,-9.867,-9.867,-9.8456,-9.7956,-9.7659,-9.7742,-9.6932,-9.56,-9.4826,-9.4109,-9.375,-9.332,-9.2758,-9.2519,-9.2785,-9.2635,-9.2069]},{"header":{"parameterUnit":"m.s-1","parameterCategory":1,"la1":31.0,"la2":29.5877,"lo1":-88.7671,"lo2":-86.6584,"dy":0.0162,"dx":0.0185,"nx":115,"ny":88,"refTime":"2023-11-19T18:00:00:Z","depth":0,"parameterNumber":3,"parameterNumberName":"V-component_of_WINDS"},"data":[0.0,0.0,0.0,0.0,0.0,0.0,0.0,0.0,0.0,0.0,0.0,0.0,0.0,0.0,0.0,0.0,0.0,0.0,0.0,0.0,0.0,0.0,0.0,0.0,0.0,0.0,0.0,0.0,0.0,0.0,0.0,0.0,0.0,0.0,0.0,0.0,0.0,0.0,0.0,0.0,0.0,0.0,0.0,0.0,0.0,0.0,0.0,0.0,0.0,0.0,0.0,0.0,0.0,0.0,0.0,0.0,0.0,0.0,0.0,0.0,0.0,0.0,0.0,0.0,0.0,0.0,0.0,0.0,0.0,0.0,0.0,0.0,0.0,0.0,0.0,0.0,0.0,0.0,0.0,0.0,0.0,0.0,0.0,0.0,0.0,0.0,0.0,0.0,0.0,0.0,0.0,0.0,0.0,0.0,0.0,0.0,0.0,0.0,0.0,0.0,0.0,0.0,0.0,0.0,0.0,0.0,0.0,0.0,0.0,0.0,0.0,0.0,0.0,0.0,0.0,0.0,0.0,0.0,0.0,0.0,0.0,0.0,0.0,0.0,0.0,0.0,0.0,0.0,0.0,0.0,0.0,0.0,0.0,0.0,0.0,0.0,0.0,0.0,0.0,0.0,0.0,0.0,0.0,0.0,0.0,0.0,0.0,0.0,0.0,0.0,0.0,0.0,0.0,0.0,0.0,0.0,0.0,0.0,0.0,0.0,0.0,0.0,0.0,0.0,0.0,0.0,0.0,0.0,0.0,0.0,0.0,0.0,0.0,0.0,0.0,0.0,0.0,0.0,0.0,0.0,0.0,0.0,0.0,0.0,0.0,0.0,0.0,0.0,0.0,0.0,0.0,0.0,0.0,0.0,0.0,0.0,0.0,0.0,0.0,0.0,0.0,0.0,0.0,0.0,0.0,0.0,0.0,0.0,0.0,0.0,0.0,0.0,0.0,0.0,0.0,0.0,0.0,0.0,0.0,0.0,0.0,0.0,0.0,0.0,0.0,0.0,0.0,0.0,0.0,0.0,0.0,0.0,0.0,0.0,0.0,0.0,0.0,0.0,0.0,0.0,0.0,0.0,0.0,0.0,0.0,0.0,0.0,0.0,0.0,0.0,0.0,0.0,0.0,0.0,0.0,0.0,0.0,0.0,0.0,0.0,0.0,0.0,0.0,0.0,0.0,0.0,0.0,0.0,0.0,0.0,0.0,0.0,0.0,0.0,0.0,0.0,0.0,0.0,0.0,0.0,0.0,0.0,0.0,0.0,0.0,0.0,0.0,0.0,0.0,0.0,0.0,0.0,0.0,0.0,0.0,0.0,0.0,0.0,0.0,0.0,0.0,0.0,0.0,0.0,0.0,0.0,0.0,0.0,0.0,0.0,0.0,0.0,0.0,0.0,0.0,0.0,0.0,0.0,0.0,0.0,0.0,0.0,0.0,0.0,0.0,0.0,0.0,0.0,0.0,0.0,0.0,0.0,0.0,0.0,0.0,0.0,0.0,0.0,0.0,0.0,0.0,0.0,0.0,0.0,0.0,0.0,0.0,0.0,0.0,0.0,0.0,0.0,0.0,0.0,0.0,0.0,0.0,0.0,0.0,0.0,0.0,0.0,0.0,0.0,0.0,0.0,0.0,0.0,0.0,0.0,0.0,0.0,0.0,0.0,0.0,0.0,0.0,0.0,0.0,0.0,0.0,0.0,0.0,0.0,0.0,0.0,0.0,0.0,0.0,0.0,0.0,0.0,0.0,0.0,0.0,0.0,0.0,0.0,0.0,0.0,0.0,0.0,0.0,0.0,0.0,0.0,0.0,0.0,0.0,0.0,0.0,0.0,0.0,0.0,0.0,0.0,0.0,0.0,0.0,0.0,0.0,0.0,0.0,0.0,0.0,0.0,0.0,0.0,0.0,0.0,0.0,0.0,0.0,0.0,0.0,0.0,0.0,0.0,0.0,0.0,0.0,0.0,0.0,0.0,0.0,0.0,0.0,0.0,0.0,0.0,0.0,0.0,0.0,0.0,0.0,0.0,0.0,0.0,0.0,0.0,0.0,0.0,0.0,0.0,0.0,0.0,0.0,0.0,0.0,0.0,0.0,0.0,0.0,0.0,0.0,0.0,0.0,0.0,0.0,0.0,0.0,0.0,0.0,0.0,0.0,0.0,0.0,0.0,0.0,0.0,0.0,0.0,0.0,0.0,0.0,0.0,0.0,0.0,0.0,0.0,0.0,0.0,0.0,0.0,0.0,0.0,0.0,0.0,0.0,0.0,0.0,0.0,0.0,0.0,0.0,0.0,0.0,0.0,0.0,0.0,0.0,0.0,0.0,0.0,0.0,0.0,0.0,0.0,0.0,0.0,0.0,0.0,0.0,0.0,0.0,0.0,0.0,0.0,0.0,0.0,0.0,0.0,0.0,0.0,0.0,0.0,0.0,0.0,0.0,0.0,0.0,0.0,0.0,0.0,0.0,0.0,0.0,0.0,0.0,0.0,0.0,0.0,0.0,0.0,0.0,0.0,0.0,0.0,0.0,0.0,0.0,0.0,0.0,0.0,0.0,0.0,0.0,0.0,0.0,0.0,0.0,0.0,0.0,0.0,0.0,0.0,0.0,0.0,0.0,0.0,0.0,0.0,0.0,0.0,0.0,0.0,0.0,0.0,0.0,0.0,0.0,0.0,0.0,0.0,0.0,0.0,0.0,0.0,0.0,0.0,0.0,0.0,0.0,0.0,0.0,0.0,0.0,0.0,0.0,0.0,0.0,0.0,0.0,0.0,0.0,0.0,0.0,0.0,0.0,0.0,0.0,0.0,0.0,0.0,0.0,0.0,0.0,0.0,0.0,0.0,0.0,0.0,0.0,0.0,0.0,0.0,0.0,0.0,0.0,0.0,0.0,0.0,0.0,0.0,0.0,0.0,0.0,0.0,0.0,0.0,0.0,0.0,0.0,0.0,0.0,0.0,0.0,0.0,0.0,0.0,0.0,0.0,0.0,0.0,0.0,0.0,0.0,0.0,0.0,0.0,0.0,0.0,0.0,0.0,0.0,0.0,0.0,0.0,0.0,0.0,0.0,0.0,0.0,0.0,0.0,0.0,0.0,0.0,0.0,0.0,0.0,0.0,0.0,0.0,0.0,0.0,0.0,0.0,0.0,0.0,0.0,0.0,0.0,0.0,0.0,0.0,0.0,0.0,0.0,0.0,0.0,0.0,0.0,0.0,0.0,0.0,0.0,0.0,0.0,0.0,0.0,0.0,0.0,0.0,0.0,0.0,0.0,0.0,0.0,0.0,0.0,0.0,0.0,0.0,0.0,0.0,0.0,0.0,0.0,0.0,0.0,0.0,0.0,0.0,0.0,0.0,0.0,0.0,0.0,0.0,0.0,0.0,0.0,0.0,0.0,0.0,0.0,0.0,0.0,0.0,0.0,0.0,0.0,0.0,0.0,0.0,0.0,0.0,0.0,0.0,0.0,0.0,0.0,0.0,0.0,0.0,0.0,0.0,0.0,0.0,0.0,0.0,0.0,0.0,0.0,0.0,0.0,0.0,0.0,0.0,0.0,0.0,0.0,0.0,0.0,0.0,0.0,0.0,0.0,0.0,0.0,0.0,0.0,0.0,0.0,0.0,0.0,0.0,0.0,0.0,0.0,0.0,0.0,0.0,0.0,0.0,0.0,0.0,0.0,0.0,0.0,0.0,0.0,0.0,0.0,0.0,0.0,0.0,0.0,0.0,0.0,0.0,0.0,0.0,0.0,0.0,0.0,0.0,0.0,0.0,0.0,0.0,0.0,0.0,0.0,0.0,0.0,0.0,0.0,0.0,0.0,0.0,0.0,0.0,0.0,0.0,0.0,0.0,0.0,0.0,0.0,0.0,0.0,0.0,0.0,0.0,0.0,0.0,0.0,0.0,0.0,0.0,0.0,0.0,0.0,0.0,0.0,0.0,0.0,0.0,0.0,0.0,0.0,0.0,0.0,0.0,0.0,0.0,0.0,0.0,0.0,0.0,0.0,0.0,0.0,0.0,0.0,0.0,0.0,0.0,0.0,0.0,0.0,0.0,0.0,0.0,0.0,0.0,0.0,0.0,0.0,0.0,0.0,0.0,0.0,0.0,0.0,0.0,0.0,0.0,0.0,0.0,0.0,0.0,0.0,0.0,0.0,0.0,0.0,0.0,0.0,0.0,0.0,0.0,0.0,0.0,0.0,0.0,0.0,0.0,0.0,0.0,0.0,0.0,0.0,0.0,0.0,0.0,0.0,0.0,0.0,0.0,0.0,0.0,0.0,0.0,3.4457,0.0,0.0,0.0,0.0,0.0,0.0,0.0,0.0,0.0,0.0,0.0,0.0,0.0,0.0,0.0,0.0,0.0,0.0,0.0,0.0,0.0,0.0,0.0,0.0,0.0,0.0,0.0,0.0,0.0,0.0,0.0,0.0,0.0,0.0,0.0,0.0,0.0,0.0,0.0,0.0,0.0,0.0,0.0,0.0,0.0,0.0,0.0,0.0,0.0,0.0,0.0,0.0,0.0,0.0,0.0,0.0,0.0,0.0,0.0,0.0,0.0,0.0,0.0,0.0,0.0,0.0,0.0,0.0,0.0,0.0,0.0,0.0,0.0,0.0,0.0,0.0,0.0,0.0,0.0,0.0,0.0,0.0,0.0,0.0,0.0,0.0,0.0,0.0,0.0,0.0,0.0,0.0,0.0,0.0,0.0,0.0,0.0,0.0,0.0,0.0,0.0,0.0,0.0,0.0,0.0,0.0,0.0,0.0,0.0,0.0,3.4142,3.4311,3.459,3.4702,3.4513,0.0,0.0,0.0,0.0,0.0,0.0,0.0,0.0,0.0,0.0,0.0,0.0,0.0,0.0,0.0,0.0,0.0,0.0,0.0,0.0,0.0,0.0,0.0,0.0,0.0,0.0,0.0,0.0,0.0,0.0,0.0,0.0,0.0,0.0,0.0,0.0,0.0,0.0,0.0,0.0,0.0,0.0,0.0,0.0,0.0,0.0,0.0,0.0,0.0,0.0,0.0,0.0,0.0,0.0,0.0,0.0,0.0,0.0,0.0,0.0,0.0,0.0,0.0,0.0,0.0,0.0,0.0,0.0,0.0,0.0,0.0,0.0,0.0,0.0,0.0,0.0,0.0,0.0,0.0,0.0,0.0,0.0,0.0,0.0,0.0,0.0,0.0,0.0,0.0,0.0,0.0,0.0,0.0,0.0,0.0,0.0,0.0,0.0,0.0,0.0,0.0,0.0,0.0,0.0,0.0,0.0,0.0,0.0,0.0,0.0,0.0,0.0,3.4869,3.4924,3.4702,0.0,0.0,0.0,0.0,0.0,0.0,0.0,0.0,0.0,0.0,0.0,0.0,0.0,0.0,0.0,0.0,0.0,0.0,0.0,0.0,0.0,0.0,0.0,0.0,0.0,0.0,0.0,0.0,0.0,0.0,0.0,0.0,0.0,0.0,0.0,0.0,0.0,0.0,0.0,0.0,0.0,0.0,0.0,0.0,0.0,0.0,0.0,0.0,0.0,0.0,0.0,0.0,0.0,0.0,0.0,0.0,0.0,0.0,0.0,0.0,0.0,0.0,0.0,0.0,0.0,0.0,0.0,0.0,0.0,0.0,0.0,0.0,0.0,0.0,0.0,0.0,0.0,0.0,0.0,0.0,0.0,0.0,0.0,0.0,0.0,0.0,0.0,0.0,0.0,0.0,0.0,0.0,0.0,0.0,0.0,0.0,0.0,0.0,0.0,0.0,0.0,0.0,0.0,0.0,0.0,0.0,0.0,0.0,0.0,0.0,3.4646,3.4924,3.498,0.0,3.5312,0.0,0.0,0.0,0.0,0.0,0.0,0.0,0.0,0.0,0.0,0.0,0.0,0.0,0.0,0.0,0.0,0.0,0.0,0.0,0.0,0.0,0.0,0.0,0.0,0.0,0.0,0.0,0.0,0.0,0.0,0.0,0.0,0.0,0.0,0.0,0.0,0.0,0.0,0.0,0.0,0.0,0.0,0.0,0.0,0.0,0.0,0.0,0.0,0.0,0.0,0.0,0.0,0.0,0.0,0.0,0.0,0.0,0.0,0.0,0.0,0.0,0.0,0.0,0.0,0.0,0.0,0.0,0.0,0.0,0.0,0.0,0.0,0.0,0.0,0.0,0.0,0.0,0.0,0.0,0.0,0.0,0.0,0.0,0.0,0.0,0.0,0.0,0.0,0.0,0.0,0.0,0.0,0.0,0.0,0.0,0.0,0.0,0.0,0.0,0.0,0.0,0.0,0.0,0.0,0.0,0.0,0.0,0.0,0.0,0.0,3.4869,3.5002,3.5146,3.5368,0.0,0.0,0.0,0.0,0.0,0.0,0.0,0.0,0.0,0.0,0.0,0.0,0.0,0.0,0.0,0.0,0.0,0.0,0.0,0.0,0.0,0.0,0.0,0.0,0.0,0.0,0.0,0.0,0.0,0.0,0.0,0.0,0.0,0.0,0.0,0.0,0.0,0.0,0.0,0.0,0.0,0.0,0.0,0.0,0.0,0.0,0.0,0.0,0.0,0.0,0.0,0.0,0.0,0.0,0.0,0.0,0.0,0.0,0.0,0.0,0.0,0.0,0.0,0.0,0.0,0.0,0.0,0.0,0.0,0.0,0.0,0.0,0.0,0.0,0.0,0.0,0.0,0.0,0.0,0.0,0.0,0.0,0.0,0.0,0.0,0.0,0.0,0.0,0.0,0.0,0.0,0.0,0.0,0.0,0.0,0.0,0.0,0.0,0.0,0.0,0.0,0.0,0.0,0.0,0.0,0.0,0.0,0.0,0.0,0.0,3.4813,3.5091,3.5202,3.5533,3.573,3.5895,0.0,0.0,0.0,0.0,0.0,0.0,0.0,0.0,0.0,0.0,0.0,0.0,0.0,0.0,0.0,0.0,0.0,0.0,0.0,0.0,0.0,0.0,0.0,0.0,0.0,0.0,0.0,0.0,0.0,0.0,0.0,0.0,0.0,0.0,0.0,0.0,0.0,0.0,0.0,0.0,0.0,0.0,0.0,0.0,0.0,0.0,0.0,0.0,0.0,0.0,0.0,0.0,0.0,0.0,0.0,0.0,0.0,0.0,0.0,0.0,0.0,0.0,0.0,0.0,0.0,0.0,0.0,0.0,0.0,0.0,0.0,0.0,0.0,0.0,0.0,0.0,0.0,0.0,0.0,0.0,0.0,0.0,0.0,0.0,0.0,0.0,0.0,0.0,0.0,0.0,0.0,0.0,0.0,0.0,0.0,0.0,0.0,0.0,0.0,0.0,0.0,0.0,0.0,0.0,0.0,0.0,0.0,0.0,3.4534,3.4813,3.5257,3.573,3.6059,3.6277,0.0,0.0,0.0,0.0,0.0,0.0,0.0,0.0,0.0,0.0,0.0,0.0,0.0,0.0,0.0,0.0,0.0,0.0,0.0,0.0,0.0,0.0,0.0,0.0,0.0,0.0,0.0,0.0,0.0,0.0,0.0,0.0,0.0,0.0,0.0,0.0,0.0,0.0,0.0,0.0,0.0,0.0,0.0,0.0,0.0,0.0,0.0,0.0,0.0,0.0,0.0,0.0,0.0,0.0,0.0,0.0,0.0,0.0,0.0,0.0,0.0,0.0,0.0,0.0,0.0,0.0,0.0,0.0,0.0,0.0,0.0,0.0,0.0,0.0,0.0,0.0,0.0,0.0,0.0,0.0,0.0,0.0,0.0,0.0,0.0,0.0,0.0,0.0,0.0,0.0,0.0,0.0,0.0,0.0,0.0,0.0,0.0,0.0,0.0,0.0,0.0,0.0,0.0,0.0,0.0,0.0,0.0,0.0,0.0,3.4513,3.498,3.5533,3.6114,3.6223,3.6254,0.0,0.0,0.0,0.0,0.0,0.0,0.0,0.0,0.0,0.0,0.0,0.0,0.0,0.0,0.0,0.0,0.0,0.0,0.0,0.0,0.0,0.0,0.0,0.0,0.0,0.0,0.0,0.0,0.0,0.0,0.0,0.0,0.0,0.0,0.0,0.0,0.0,0.0,0.0,0.0,0.0,0.0,0.0,0.0,0.0,0.0,0.0,0.0,0.0,0.0,0.0,0.0,0.0,0.0,0.0,0.0,0.0,0.0,0.0,0.0,0.0,0.0,0.0,0.0,0.0,0.0,0.0,0.0,0.0,0.0,0.0,0.0,0.0,0.0,0.0,0.0,0.0,0.0,0.0,0.0,0.0,0.0,0.0,0.0,0.0,0.0,0.0,0.0,0.0,0.0,0.0,0.0,0.0,0.0,0.0,0.0,0.0,0.0,0.0,0.0,0.0,0.0,0.0,0.0,0.0,0.0,0.0,0.0,0.0,3.4924,0.0,3.5676,3.6277,3.6254,3.6254,0.0,0.0,0.0,0.0,0.0,0.0,0.0,0.0,0.0,0.0,0.0,0.0,0.0,0.0,0.0,0.0,0.0,0.0,0.0,0.0,0.0,0.0,0.0,0.0,0.0,0.0,0.0,0.0,0.0,0.0,0.0,0.0,0.0,0.0,0.0,0.0,0.0,0.0,0.0,0.0,0.0,0.0,0.0,0.0,0.0,0.0,0.0,0.0,0.0,0.0,0.0,0.0,0.0,0.0,0.0,0.0,0.0,0.0,0.0,0.0,0.0,0.0,0.0,0.0,0.0,0.0,0.0,0.0,0.0,0.0,0.0,0.0,0.0,0.0,0.0,0.0,0.0,0.0,0.0,0.0,0.0,0.0,0.0,0.0,0.0,0.0,0.0,0.0,0.0,0.0,0.0,0.0,0.0,0.0,0.0,0.0,0.0,0.0,0.0,0.0,0.0,0.0,0.0,0.0,0.0,0.0,0.0,0.0,3.5725,3.5776,3.5556,3.5721,3.6277,3.6277,3.6277,0.0,0.0,0.0,0.0,0.0,0.0,0.0,0.0,0.0,0.0,0.0,0.0,0.0,0.0,0.0,0.0,0.0,0.0,0.0,0.0,0.0,0.0,0.0,0.0,0.0,0.0,0.0,0.0,0.0,0.0,0.0,0.0,0.0,0.0,0.0,0.0,0.0,0.0,0.0,0.0,0.0,0.0,0.0,0.0,0.0,0.0,0.0,0.0,0.0,0.0,0.0,0.0,0.0,0.0,0.0,0.0,0.0,0.0,0.0,0.0,0.0,0.0,0.0,0.0,0.0,0.0,0.0,0.0,0.0,0.0,0.0,0.0,0.0,0.0,0.0,0.0,0.0,0.0,0.0,0.0,0.0,0.0,0.0,0.0,0.0,0.0,0.0,0.0,0.0,0.0,0.0,0.0,0.0,0.0,0.0,0.0,0.0,0.0,0.0,0.0,0.0,0.0,0.0,0.0,0.0,0.0,0.0,0.0,0.0,3.6027,3.5916,3.6195,3.6727,3.6438,3.6438,0.0,0.0,0.0,0.0,0.0,0.0,0.0,0.0,0.0,0.0,0.0,0.0,0.0,0.0,0.0,0.0,0.0,0.0,0.0,0.0,0.0,0.0,0.0,0.0,0.0,0.0,0.0,0.0,0.0,0.0,0.0,0.0,0.0,0.0,0.0,0.0,0.0,0.0,0.0,0.0,0.0,0.0,0.0,0.0,0.0,0.0,0.0,0.0,0.0,0.0,0.0,0.0,0.0,0.0,0.0,0.0,0.0,0.0,0.0,0.0,0.0,0.0,0.0,0.0,0.0,0.0,0.0,0.0,0.0,0.0,0.0,0.0,0.0,0.0,0.0,0.0,0.0,0.0,0.0,0.0,0.0,0.0,0.0,0.0,0.0,0.0,0.0,0.0,0.0,0.0,0.0,0.0,0.0,0.0,0.0,0.0,0.0,0.0,0.0,0.0,0.0,0.0,0.0,0.0,0.0,0.0,0.0,0.0,0.0,3.5721,3.5296,3.536,3.5972,3.5632,3.5957,3.6924,0.0,0.0,0.0,0.0,0.0,0.0,0.0,0.0,0.0,0.0,0.0,0.0,0.0,0.0,0.0,0.0,0.0,0.0,0.0,0.0,0.0,0.0,0.0,0.0,0.0,0.0,0.0,0.0,0.0,0.0,0.0,0.0,0.0,0.0,0.0,0.0,0.0,0.0,0.0,0.0,0.0,0.0,0.0,0.0,0.0,0.0,0.0,0.0,0.0,0.0,0.0,0.0,0.0,0.0,0.0,0.0,0.0,0.0,0.0,0.0,0.0,0.0,0.0,0.0,0.0,0.0,0.0,0.0,0.0,0.0,0.0,0.0,0.0,0.0,0.0,0.0,0.0,0.0,0.0,0.0,0.0,0.0,0.0,0.0,0.0,0.0,0.0,0.0,0.0,0.0,0.0,0.0,0.0,0.0,0.0,0.0,0.0,0.0,0.0,0.0,0.0,0.0,0.0,0.0,0.0,0.0,0.0,0.0,3.5062,3.3882,3.3613,3.4228,3.4184,3.4974,0.0,0.0,0.0,0.0,0.0,0.0,0.0,0.0,0.0,0.0,0.0,0.0,0.0,0.0,0.0,0.0,0.0,0.0,0.0,0.0,0.0,0.0,0.0,0.0,0.0,0.0,0.0,0.0,0.0,0.0,0.0,0.0,0.0,0.0,0.0,0.0,0.0,0.0,0.0,0.0,0.0,0.0,0.0,0.0,0.0,0.0,0.0,0.0,0.0,0.0,0.0,0.0,0.0,0.0,0.0,0.0,0.0,0.0,0.0,0.0,0.0,0.0,0.0,0.0,0.0,0.0,0.0,0.0,0.0,0.0,0.0,0.0,0.0,0.0,0.0,0.0,0.0,0.0,0.0,0.0,0.0,0.0,0.0,0.0,0.0,0.0,0.0,0.0,0.0,0.0,0.0,0.0,0.0,0.0,0.0,0.0,0.0,0.0,0.0,0.0,0.0,0.0,0.0,0.0,0.0,0.0,0.0,0.0,0.0,3.2999,3.2206,3.2609,3.4113,3.4407,3.5022,0.0,0.0,0.0,0.0,0.0,0.0,0.0,0.0,0.0,0.0,0.0,0.0,0.0,0.0,0.0,0.0,0.0,0.0,0.0,0.0,0.0,0.0,0.0,0.0,0.0,0.0,0.0,0.0,0.0,0.0,0.0,0.0,0.0,0.0,0.0,0.0,0.0,0.0,0.0,0.0,0.0,0.0,0.0,0.0,0.0,0.0,0.0,0.0,0.0,0.0,0.0,0.0,0.0,0.0,0.0,0.0,0.0,0.0,0.0,0.0,0.0,0.0,0.0,0.0,0.0,0.0,0.0,0.0,0.0,0.0,0.0,0.0,0.0,0.0,0.0,0.0,0.0,0.0,0.0,0.0,0.0,0.0,0.0,0.0,0.0,0.0,0.0,0.0,0.0,0.0,0.0,0.0,0.0,0.0,0.0,0.0,0.0,0.0,0.0,0.0,0.0,0.0,0.0,0.0,0.0,0.0,0.0,0.0,3.3925,3.299,3.1638,3.166,3.3315,3.3661,3.449,0.0,0.0,0.0,0.0,0.0,0.0,0.0,0.0,0.0,0.0,0.0,0.0,0.0,0.0,0.0,0.0,0.0,0.0,0.0,0.0,0.0,0.0,0.0,0.0,0.0,0.0,0.0,0.0,0.0,0.0,0.0,0.0,0.0,0.0,0.0,0.0,0.0,0.0,0.0,0.0,0.0,0.0,0.0,0.0,0.0,0.0,0.0,0.0,0.0,0.0,0.0,0.0,0.0,0.0,0.0,0.0,0.0,0.0,0.0,0.0,0.0,0.0,0.0,0.0,0.0,0.0,0.0,0.0,0.0,0.0,0.0,0.0,0.0,0.0,0.0,0.0,0.0,0.0,0.0,0.0,0.0,0.0,0.0,0.0,0.0,0.0,0.0,0.0,0.0,0.0,0.0,0.0,0.0,0.0,0.0,0.0,0.0,0.0,0.0,0.0,0.0,0.0,0.0,0.0,0.0,0.0,0.0,0.0,3.3436,3.3778,3.1676,3.1092,3.2135,3.2554,3.3712,0.0,0.0,0.0,0.0,0.0,0.0,0.0,0.0,0.0,0.0,0.0,0.0,0.0,0.0,0.0,0.0,0.0,0.0,0.0,0.0,0.0,0.0,0.0,0.0,0.0,0.0,0.0,0.0,0.0,0.0,0.0,0.0,0.0,0.0,0.0,0.0,0.0,0.0,0.0,0.0,0.0,0.0,0.0,0.0,0.0,0.0,0.0,0.0,0.0,0.0,0.0,0.0,0.0,0.0,0.0,0.0,0.0,0.0,0.0,0.0,0.0,0.0,0.0,0.0,0.0,0.0,0.0,0.0,0.0,0.0,0.0,0.0,0.0,0.0,0.0,0.0,0.0,0.0,0.0,0.0,0.0,0.0,0.0,0.0,0.0,0.0,0.0,0.0,0.0,0.0,0.0,0.0,0.0,0.0,0.0,0.0,0.0,0.0,0.0,0.0,0.0,0.0,0.0,0.0,0.0,0.0,0.0,0.0,3.3337,3.2062,3.1671,3.1859,3.2558,3.3178,3.4007,0.0,0.0,0.0,0.0,0.0,0.0,0.0,0.0,0.0,0.0,0.0,0.0,0.0,0.0,0.0,0.0,0.0,0.0,0.0,0.0,0.0,0.0,0.0,0.0,0.0,0.0,0.0,0.0,0.0,0.0,0.0,0.0,0.0,0.0,0.0,0.0,0.0,0.0,0.0,0.0,0.0,0.0,0.0,0.0,0.0,0.0,0.0,0.0,3.906,0.0,0.0,0.0,0.0,0.0,0.0,0.0,0.0,0.0,0.0,0.0,0.0,0.0,0.0,0.0,0.0,0.0,0.0,0.0,0.0,0.0,0.0,0.0,0.0,0.0,0.0,0.0,0.0,0.0,0.0,0.0,0.0,0.0,0.0,0.0,0.0,0.0,0.0,0.0,0.0,0.0,0.0,0.0,0.0,0.0,0.0,0.0,0.0,0.0,0.0,0.0,0.0,0.0,0.0,0.0,0.0,0.0,0.0,0.0,3.3558,3.2273,3.21,3.2384,3.3069,3.3693,3.4424,0.0,0.0,0.0,0.0,0.0,0.0,0.0,0.0,0.0,0.0,0.0,0.0,0.0,0.0,0.0,0.0,0.0,0.0,0.0,0.0,0.0,0.0,0.0,0.0,0.0,0.0,0.0,0.0,0.0,0.0,0.0,0.0,0.0,0.0,0.0,0.0,0.0,0.0,0.0,0.0,0.0,0.0,0.0,0.0,0.0,0.0,0.0,0.0,0.0,0.0,0.0,0.0,0.0,0.0,0.0,0.0,0.0,0.0,0.0,0.0,0.0,0.0,0.0,0.0,0.0,0.0,0.0,0.0,0.0,0.0,0.0,0.0,0.0,0.0,0.0,0.0,0.0,0.0,0.0,0.0,0.0,0.0,0.0,0.0,0.0,0.0,0.0,0.0,0.0,0.0,0.0,0.0,0.0,0.0,0.0,0.0,0.0,0.0,0.0,0.0,0.0,0.0,0.0,0.0,0.0,0.0,0.0,3.4656,3.3888,3.2805,3.2508,3.2753,3.3609,3.4226,3.4981,3.5955,0.0,0.0,0.0,0.0,0.0,0.0,0.0,0.0,0.0,0.0,0.0,0.0,0.0,0.0,0.0,0.0,0.0,0.0,0.0,0.0,0.0,0.0,0.0,0.0,0.0,0.0,0.0,0.0,0.0,0.0,0.0,0.0,0.0,0.0,0.0,0.0,0.0,0.0,3.6698,3.779,0.0,0.0,0.0,0.0,0.0,0.0,0.0,0.0,3.8694,0.0,0.0,0.0,0.0,0.0,0.0,0.0,0.0,0.0,0.0,0.0,0.0,0.0,0.0,0.0,0.0,0.0,0.0,0.0,0.0,0.0,0.0,0.0,0.0,0.0,0.0,0.0,0.0,0.0,0.0,0.0,0.0,0.0,0.0,0.0,0.0,0.0,0.0,0.0,0.0,0.0,0.0,0.0,0.0,0.0,0.0,0.0,0.0,0.0,0.0,0.0,0.0,0.0,0.0,0.0,0.0,3.4077,3.4491,3.3604,3.1573,3.2269,3.2966,3.3594,3.4874,3.6,3.6901,0.0,0.0,0.0,0.0,0.0,0.0,0.0,0.0,0.0,0.0,0.0,0.0,0.0,0.0,0.0,0.0,0.0,0.0,0.0,0.0,0.0,0.0,0.0,0.0,0.0,0.0,0.0,0.0,0.0,0.0,0.0,0.0,0.0,0.0,0.0,0.0,0.0,0.0,0.0,3.8099,3.8992,0.0,0.0,0.0,0.0,0.0,0.0,0.0,0.0,3.9511,0.0,0.0,0.0,0.0,0.0,0.0,0.0,0.0,0.0,0.0,0.0,0.0,0.0,0.0,0.0,0.0,0.0,0.0,0.0,0.0,0.0,0.0,0.0,0.0,0.0,0.0,0.0,0.0,0.0,0.0,0.0,0.0,0.0,0.0,0.0,0.0,0.0,0.0,0.0,0.0,0.0,0.0,0.0,0.0,0.0,0.0,0.0,0.0,0.0,0.0,0.0,0.0,0.0,0.0,0.0,3.3803,3.3613,3.2823,3.1544,3.2484,3.3171,3.3475,3.4735,3.6035,0.0,0.0,0.0,0.0,0.0,0.0,0.0,0.0,0.0,0.0,0.0,0.0,0.0,0.0,0.0,0.0,0.0,0.0,0.0,0.0,0.0,0.0,0.0,0.0,0.0,0.0,0.0,0.0,0.0,0.0,0.0,0.0,0.0,0.0,0.0,0.0,0.0,0.0,0.0,0.0,3.8615,3.9409,3.9731,0.0,0.0,0.0,0.0,0.0,0.0,3.946,3.9979,0.0,0.0,0.0,0.0,0.0,0.0,0.0,0.0,0.0,0.0,0.0,0.0,0.0,0.0,0.0,0.0,0.0,0.0,0.0,0.0,0.0,0.0,0.0,0.0,0.0,0.0,0.0,0.0,0.0,0.0,0.0,0.0,0.0,0.0,0.0,0.0,0.0,0.0,0.0,0.0,0.0,0.0,0.0,0.0,0.0,0.0,0.0,0.0,0.0,0.0,0.0,0.0,0.0,0.0,0.0,3.369,3.2871,3.2205,3.1759,3.2611,3.3182,3.3421,3.4789,3.616,0.0,0.0,0.0,0.0,0.0,0.0,0.0,0.0,0.0,0.0,0.0,0.0,0.0,0.0,0.0,0.0,0.0,0.0,0.0,0.0,0.0,0.0,0.0,0.0,0.0,0.0,0.0,0.0,0.0,0.0,0.0,0.0,0.0,0.0,0.0,0.0,0.0,0.0,0.0,0.0,0.0,3.9781,4.0214,4.0755,0.0,0.0,0.0,0.0,3.9309,4.0259,0.0,0.0,0.0,0.0,0.0,0.0,0.0,0.0,0.0,0.0,0.0,0.0,0.0,0.0,0.0,0.0,0.0,0.0,0.0,0.0,0.0,0.0,0.0,0.0,0.0,0.0,0.0,0.0,0.0,0.0,0.0,0.0,0.0,0.0,0.0,0.0,0.0,0.0,0.0,0.0,0.0,0.0,0.0,0.0,0.0,0.0,0.0,0.0,0.0,0.0,0.0,0.0,0.0,0.0,0.0,0.0,3.4117,3.298,3.2205,3.1746,3.2219,3.2803,3.3591,3.579,3.7186,0.0,0.0,0.0,0.0,0.0,0.0,0.0,0.0,0.0,0.0,0.0,0.0,0.0,0.0,0.0,0.0,0.0,0.0,0.0,0.0,0.0,0.0,0.0,0.0,0.0,0.0,0.0,0.0,0.0,0.0,0.0,0.0,0.0,0.0,0.0,0.0,0.0,0.0,0.0,0.0,0.0,4.0132,3.984,4.0942,4.1499,0.0,0.0,4.0694,4.0235,4.1586,0.0,0.0,0.0,0.0,0.0,0.0,0.0,0.0,0.0,0.0,0.0,0.0,0.0,0.0,0.0,0.0,0.0,0.0,0.0,0.0,0.0,0.0,0.0,0.0,0.0,0.0,0.0,0.0,0.0,0.0,0.0,0.0,0.0,0.0,0.0,0.0,0.0,0.0,0.0,0.0,0.0,0.0,0.0,0.0,0.0,0.0,0.0,0.0,0.0,0.0,0.0,0.0,0.0,0.0,0.0,3.3939,3.3851,3.2182,3.1457,3.1705,3.2421,3.3047,3.3519,3.5575,3.6994,0.0,0.0,0.0,0.0,0.0,0.0,0.0,0.0,0.0,0.0,0.0,0.0,0.0,0.0,0.0,0.0,0.0,0.0,0.0,0.0,0.0,0.0,0.0,0.0,0.0,0.0,0.0,0.0,0.0,0.0,0.0,0.0,0.0,0.0,0.0,0.0,0.0,0.0,0.0,0.0,0.0,0.0,4.0012,4.0983,0.0,0.0,0.0,4.1733,4.1593,0.0,0.0,0.0,0.0,0.0,0.0,0.0,0.0,0.0,0.0,0.0,0.0,0.0,0.0,0.0,0.0,0.0,0.0,0.0,0.0,0.0,0.0,0.0,0.0,0.0,0.0,0.0,0.0,0.0,0.0,0.0,0.0,0.0,0.0,0.0,0.0,0.0,0.0,0.0,0.0,0.0,0.0,0.0,0.0,0.0,0.0,0.0,0.0,0.0,0.0,0.0,0.0,0.0,0.0,0.0,0.0,0.0,3.3707,3.1425,3.0675,3.1517,3.238,3.2929,3.3215,3.471,0.0,0.0,0.0,0.0,0.0,0.0,0.0,0.0,0.0,0.0,0.0,0.0,0.0,0.0,0.0,0.0,0.0,0.0,0.0,0.0,0.0,0.0,0.0,0.0,0.0,0.0,0.0,3.8798,0.0,0.0,0.0,0.0,0.0,0.0,0.0,0.0,0.0,0.0,0.0,0.0,0.0,0.0,4.0733,4.0451,4.1318,4.1854,0.0,0.0,4.2926,4.2962,4.3881,4.4479,0.0,0.0,0.0,0.0,0.0,0.0,0.0,0.0,0.0,0.0,0.0,0.0,0.0,0.0,0.0,0.0,0.0,0.0,0.0,0.0,0.0,0.0,0.0,0.0,0.0,0.0,0.0,0.0,0.0,0.0,0.0,0.0,0.0,0.0,0.0,0.0,0.0,0.0,0.0,0.0,0.0,0.0,0.0,0.0,0.0,0.0,0.0,0.0,0.0,0.0,0.0,0.0,0.0,0.0,3.3017,3.3787,3.1296,3.0381,3.1223,3.1624,3.2083,3.2673,3.3418,3.4752,0.0,0.0,0.0,0.0,0.0,0.0,0.0,0.0,0.0,0.0,0.0,0.0,0.0,0.0,0.0,0.0,0.0,0.0,0.0,0.0,0.0,0.0,0.0,0.0,0.0,0.0,0.0,0.0,0.0,0.0,0.0,0.0,0.0,0.0,0.0,0.0,0.0,0.0,0.0,0.0,0.0,4.1118,4.1118,4.222,4.3031,0.0,4.3856,4.4284,4.4051,4.5848,4.66,4.4302,0.0,0.0,0.0,0.0,0.0,0.0,0.0,0.0,0.0,0.0,0.0,0.0,0.0,0.0,0.0,0.0,0.0,0.0,0.0,0.0,0.0,0.0,0.0,0.0,0.0,0.0,0.0,0.0,0.0,0.0,0.0,0.0,0.0,0.0,0.0,0.0,0.0,0.0,0.0,0.0,0.0,0.0,0.0,0.0,0.0,0.0,0.0,0.0,0.0,0.0,0.0,0.0,0.0,3.2878,3.3483,3.1307,3.0621,3.1463,3.1894,3.2271,3.2608,3.3264,3.458,0.0,0.0,0.0,0.0,0.0,0.0,0.0,0.0,0.0,0.0,0.0,0.0,0.0,0.0,0.0,0.0,0.0,0.0,0.0,0.0,0.0,0.0,0.0,0.0,0.0,0.0,0.0,0.0,3.5067,3.5645,3.7801,0.0,0.0,0.0,0.0,0.0,0.0,0.0,0.0,0.0,0.0,4.1582,4.1386,4.2417,0.0,0.0,4.3796,4.4535,4.4078,4.5608,4.6485,4.5312,4.5163,0.0,0.0,0.0,0.0,0.0,0.0,0.0,0.0,0.0,0.0,0.0,0.0,0.0,0.0,0.0,0.0,0.0,0.0,0.0,0.0,0.0,0.0,0.0,0.0,0.0,0.0,0.0,0.0,0.0,0.0,0.0,0.0,0.0,0.0,0.0,0.0,0.0,0.0,0.0,0.0,0.0,0.0,0.0,0.0,0.0,0.0,0.0,0.0,0.0,0.0,0.0,0.0,3.2664,3.3206,3.1277,3.0608,3.1396,3.1948,3.2177,3.2222,3.2624,3.3576,0.0,0.0,0.0,0.0,0.0,0.0,0.0,0.0,0.0,0.0,0.0,0.0,0.0,0.0,0.0,0.0,0.0,0.0,0.0,0.0,0.0,0.0,0.0,0.0,0.0,0.0,0.0,0.0,3.5618,3.6516,3.8873,0.0,0.0,0.0,0.0,0.0,0.0,0.0,0.0,0.0,0.0,4.1946,4.1829,4.2741,4.3399,4.2962,4.4018,4.4842,4.4663,4.5761,4.6455,4.5862,0.0,0.0,0.0,0.0,0.0,0.0,0.0,0.0,0.0,0.0,0.0,0.0,0.0,0.0,0.0,0.0,0.0,0.0,0.0,0.0,0.0,0.0,0.0,0.0,0.0,0.0,0.0,2.8818,0.0,0.0,2.9934,0.0,0.0,0.0,0.0,0.0,0.0,0.0,0.0,0.0,0.0,0.0,0.0,0.0,0.0,0.0,0.0,0.0,0.0,0.0,0.0,0.0,0.0,3.2394,3.2953,3.0965,3.0221,3.0822,3.137,3.153,3.1223,3.1093,3.1609,3.2761,0.0,0.0,0.0,0.0,0.0,0.0,0.0,0.0,0.0,0.0,0.0,0.0,0.0,0.0,0.0,0.0,0.0,0.0,0.0,0.0,0.0,0.0,0.0,0.0,0.0,0.0,4.2479,4.1088,3.9715,0.0,0.0,0.0,0.0,0.0,0.0,0.0,0.0,0.0,0.0,4.1991,4.221,4.2566,4.34,4.416,4.4523,4.4921,4.5478,4.6241,4.6743,4.663,0.0,0.0,0.0,0.0,0.0,0.0,0.0,0.0,0.0,0.0,0.0,0.0,0.0,0.0,0.0,0.0,0.0,0.0,0.0,0.0,0.0,0.0,0.0,0.0,0.0,0.0,0.0,2.7348,2.7951,0.0,0.0,0.0,0.0,0.0,0.0,0.0,0.0,0.0,0.0,0.0,3.0253,3.1027,0.0,0.0,0.0,0.0,0.0,0.0,0.0,0.0,0.0,0.0,0.0,0.0,3.2348,3.2815,3.0963,3.0301,3.1062,3.1463,3.153,3.1236,3.0941,3.1222,3.1991,0.0,0.0,0.0,0.0,0.0,0.0,0.0,0.0,0.0,0.0,0.0,0.0,0.0,0.0,0.0,0.0,0.0,0.0,0.0,0.0,0.0,0.0,0.0,0.0,0.0,3.9605,0.0,0.0,0.0,0.0,0.0,0.0,0.0,0.0,0.0,0.0,0.0,4.1493,4.1887,4.3028,4.3816,4.4,4.458,4.4813,0.0,0.0,0.0,0.0,0.0,0.0,0.0,0.0,0.0,0.0,0.0,0.0,0.0,0.0,4.9305,4.6674,4.6723,4.709,4.6784,0.0,0.0,0.0,0.0,0.0,0.0,0.0,0.0,0.0,0.0,0.0,0.0,0.0,0.0,2.6738,2.7734,2.7254,0.0,0.0,0.0,0.0,0.0,0.0,0.0,0.0,2.9429,2.9559,2.9621,3.0743,3.1175,0.0,3.1768,3.2511,0.0,0.0,0.0,0.0,0.0,0.0,0.0,0.0,3.2491,3.2839,3.1045,3.0394,3.1049,3.1356,3.137,3.1076,3.067,3.053,3.0807,3.2248,3.3811,0.0,0.0,0.0,0.0,0.0,0.0,0.0,0.0,0.0,0.0,0.0,0.0,0.0,0.0,0.0,0.0,0.0,0.0,0.0,0.0,0.0,0.0,0.0,3.955,0.0,0.0,0.0,0.0,0.0,0.0,0.0,0.0,0.0,4.2272,4.1782,4.1725,4.2329,4.3459,4.4339,4.4662,0.0,0.0,0.0,0.0,0.0,0.0,0.0,4.6857,4.7319,4.7964,4.8548,4.8982,4.9813,5.0491,5.0828,0.0,0.0,4.8796,4.8831,4.9221,4.9221,5.0059,5.0851,5.1055,5.1668,5.2384,0.0,0.0,0.0,0.0,2.5361,0.0,0.0,0.0,2.5368,2.6331,0.0,2.6581,0.0,0.0,0.0,0.0,2.9198,2.8704,0.0,0.0,2.7931,2.8425,2.9573,3.0752,3.0909,3.0354,3.1647,3.2053,3.1471,3.1575,0.0,0.0,0.0,0.0,0.0,0.0,3.2723,3.2901,3.1243,3.0488,3.0782,3.1062,3.1076,3.0768,3.0117,2.9603,2.9347,3.1284,3.2394,3.2414,3.672,0.0,0.0,0.0,0.0,0.0,0.0,0.0,0.0,0.0,0.0,0.0,0.0,0.0,0.0,0.0,0.0,0.0,0.0,0.0,0.0,4.1397,0.0,0.0,0.0,0.0,0.0,0.0,0.0,0.0,0.0,0.0,4.3254,4.2594,4.2368,4.3275,0.0,0.0,0.0,0.0,4.4962,4.5244,4.5647,4.6109,4.681,4.7284,4.7698,4.7761,0.0,0.0,4.992,5.0485,5.0993,5.1345,5.2057,5.2372,5.1498,5.1792,5.2282,5.2258,5.2841,5.3494,5.3566,5.3883,5.4365,2.5161,0.0,0.0,0.0,0.0,2.5863,2.5615,2.547,2.4939,2.5141,2.5886,2.569,0.0,0.0,0.0,0.0,0.0,0.0,2.7757,2.7791,2.8313,2.8731,2.8817,2.9872,3.0213,3.0043,3.0271,3.0167,2.9689,2.9397,3.08,3.3953,0.0,0.0,0.0,0.0,3.2048,3.1673,3.0632,3.0181,3.0474,3.0768,3.0782,3.0488,3.0185,3.0079,3.0021,3.0803,3.1884,3.3413,3.4504,0.0,0.0,0.0,0.0,0.0,0.0,0.0,0.0,0.0,0.0,0.0,0.0,0.0,0.0,0.0,0.0,0.0,0.0,0.0,4.1357,3.9407,3.94,0.0,0.0,0.0,0.0,0.0,0.0,0.0,0.0,0.0,4.4025,4.3918,4.398,0.0,0.0,4.5976,4.66,4.6085,4.5692,4.5839,4.5835,0.0,4.6168,4.6563,4.7124,4.8107,4.9126,5.0146,5.0909,5.0974,5.101,5.1081,5.2152,5.292,5.2729,5.2985,5.329,5.3346,5.4022,5.4756,5.5098,5.5835,5.6494,2.5972,2.6193,2.6644,2.677,2.673,2.6246,2.5762,2.5306,2.4891,2.5016,2.552,2.5287,2.6054,2.7622,2.7808,0.0,0.0,0.0,2.733,2.7009,2.8247,2.8739,2.8718,2.9754,3.0207,3.0087,2.9793,2.9499,2.9205,2.9118,3.036,3.2833,0.0,0.0,3.3525,3.2251,3.1533,3.1221,3.0519,3.0181,3.0354,3.0528,3.0488,3.0181,3.028,3.0381,3.034,3.0765,3.1399,3.2379,3.3307,3.4759,0.0,0.0,0.0,0.0,0.0,0.0,0.0,0.0,0.0,0.0,0.0,3.9564,4.1862,0.0,0.0,0.0,3.9641,4.0097,4.036,3.9598,0.0,0.0,0.0,0.0,0.0,0.0,0.0,4.604,4.3879,4.2809,4.4349,4.4449,4.4441,4.4557,4.529,4.6018,4.6518,0.0,4.6072,4.6261,4.6494,4.6679,4.6689,4.7196,4.7959,4.9003,4.9742,5.0331,5.0902,5.0964,5.0993,5.1149,5.225,5.3226,5.3226,5.3818,5.4435,5.4626,5.5274,5.5901,5.6321,5.708,5.771,2.6613,2.7522,2.796,2.7535,2.6701,2.7047,2.6383,2.509,2.4987,2.5389,2.6163,2.5389,2.6205,2.823,2.8449,0.0,2.702,2.7416,2.7034,2.6108,2.7792,2.8678,2.9024,3.0175,3.0608,3.0314,3.0047,2.9766,2.9547,3.0135,3.0638,3.0909,3.018,3.0704,3.2417,3.1729,3.1262,3.1425,3.0815,3.0482,3.0354,3.0341,3.0207,2.9967,3.0348,3.054,3.028,3.113,3.1224,3.0432,3.2757,3.3772,3.3088,0.0,0.0,0.0,0.0,0.0,0.0,0.0,0.0,0.0,0.0,0.0,0.0,0.0,0.0,0.0,3.757,0.0,3.8538,4.0633,0.0,0.0,0.0,4.2484,4.0508,4.0792,4.1414,4.25,0.0,0.0,4.4365,4.45,4.4242,4.3231,4.3997,4.4766,4.5222,4.5725,4.6042,4.6524,4.7341,4.7815,4.7547,4.8398,4.915,4.9713,5.0154,5.0074,5.0165,5.0459,5.0752,5.0732,5.2,5.2898,5.3008,5.4036,5.5291,5.564,5.6207,5.6773,5.7096,5.7504,5.7995,2.6078,2.7456,2.8211,2.8127,2.7522,2.7029,2.6839,2.6676,2.5848,2.5537,2.5749,2.5729,2.6244,2.7278,2.7443,2.7262,2.7031,2.7148,2.7309,2.7441,2.8519,2.9136,2.9292,3.007,3.0314,3.0034,2.9953,2.9766,2.9486,2.969,3.0101,3.0638,3.0492,3.1131,3.2554,3.2274,3.1771,3.1153,3.1189,3.0959,3.0432,3.014,3.01,3.0247,3.0609,3.0775,3.0779,3.1339,3.1524,3.1058,3.1435,3.2114,3.3177,3.5821,0.0,0.0,0.0,0.0,0.0,0.0,0.0,0.0,0.0,4.0266,4.2973,0.0,4.0381,0.0,3.6617,3.4945,3.5769,3.6482,0.0,0.0,4.0409,4.1065,4.1434,4.0006,4.0,4.2725,4.1996,4.1836,4.3319,4.4009,4.407,4.3082,4.4173,4.5309,4.6158,4.603,4.5977,4.6511,4.6805,4.682,4.6979,4.7481,4.8042,4.8532,4.859,4.8775,4.9144,4.9308,4.94,4.9492,5.0297,5.1025,5.1479,5.2487,5.3316,5.3865,5.5092,5.6233,5.6429,5.6732,5.7056,2.6824,2.8171,2.8583,2.8498,2.795,2.7807,2.7653,2.752,2.6618,2.6236,2.6134,2.628,2.6689,2.72,2.7354,2.7283,2.7045,2.7027,2.7157,2.745,2.8278,2.8837,2.9288,2.9847,3.0093,3.0114,2.9787,2.9462,2.9406,2.9406,2.9588,2.9937,3.0212,3.0908,3.2052,3.2348,3.2279,3.1925,3.1786,3.1287,3.0432,3.0194,3.0474,3.1284,3.1621,3.2091,3.2722,3.3227,3.3475,3.3286,3.3099,3.3413,3.4252,3.6443,3.8173,0.0,0.0,0.0,0.0,0.0,0.0,0.0,0.0,0.0,0.0,0.0,3.8961,3.9462,3.6089,3.4603,3.656,3.6743,3.7024,3.7854,3.8212,3.832,3.8168,3.7401,3.787,4.0437,4.0465,4.0787,4.2214,4.301,4.3287,4.2871,4.3581,4.4486,4.54,4.5685,4.5983,4.6672,4.6969,4.7171,4.7253,4.7272,4.7403,4.77,4.7755,4.7941,4.8405,4.8497,4.859,4.8848,4.9517,5.0106,5.0357,5.1266,5.2054,5.2602,5.3648,5.4695,5.5265,5.5635,5.5831,2.7672,2.8808,2.8867,2.8531,2.8168,2.8702,2.8462,2.7646,2.7164,2.6924,2.6845,2.6935,2.7287,2.764,2.784,2.7627,2.704,2.7063,2.7063,2.7134,2.7615,2.8339,2.9288,2.9519,2.986,3.0263,2.9506,2.9195,2.9144,2.9195,2.9259,2.9296,2.9847,3.0588,3.1555,3.2304,3.2777,3.3026,3.2325,3.1483,3.0758,3.0754,3.1463,3.269,3.2919,3.3591,3.4851,3.5373,3.5609,3.5771,3.5738,3.5632,3.5361,3.7523,3.8791,0.0,4.0971,0.0,0.0,0.0,0.0,0.0,0.0,0.0,0.0,3.6345,3.6605,3.7811,3.5662,3.5342,3.8067,3.8184,3.7251,3.5371,3.5556,3.5169,3.3841,3.4607,3.5851,3.7378,3.8748,4.0044,4.113,4.1771,4.2321,4.2594,4.2741,4.3374,4.4251,4.5131,4.5915,4.6887,4.735,4.7418,4.7441,4.7214,4.7007,4.7178,4.7289,4.7401,4.7774,4.8053,4.8219,4.8736,4.9156,4.9492,4.9563,5.034,5.0868,5.1284,5.185,5.278,5.4148,5.4585,5.4804,2.5638,2.7989,2.7985,2.8003,2.7933,2.823,2.7976,2.7152,2.6681,2.6827,2.7346,2.7312,2.784,2.8656,2.8488,2.8057,2.7309,2.7604,2.758,2.7298,2.8069,2.879,2.9314,2.9726,2.986,2.9717,2.9416,2.9119,2.8988,2.9119,2.9409,2.9866,3.0761,3.1569,3.2185,0.0,0.0,0.0,3.2441,3.2119,3.2464,3.2822,3.3375,3.4154,3.3855,0.0,3.4548,3.4768,3.5062,3.5467,3.5467,0.0,0.0,0.0,0.0,0.0,0.0,0.0,0.0,0.0,0.0,0.0,3.8733,3.8171,3.718,3.6125,3.5382,3.5216,3.475,3.4391,3.4202,3.4412,3.4487,3.4053,3.4112,3.408,3.4088,3.4953,3.5914,3.6775,3.8241,3.9275,3.9903,4.0957,4.1727,4.1924,4.2369,4.3156,4.4141,4.4806,4.5454,4.6389,4.6606,4.6329,4.6313,4.6295,4.62,4.6184,4.6541,4.6728,4.6916,4.755,4.8034,4.8293,4.8404,4.8638,4.9,4.9029,4.908,4.9497,5.0246,5.1466,5.3561,5.4019,5.4172,2.5693,2.7192,2.7878,2.7998,0.0,2.7639,2.7278,2.6692,2.6524,2.6811,2.7232,2.7232,2.7755,2.8605,2.8053,2.7672,2.7268,2.7106,2.6999,2.6884,2.7588,2.826,2.8954,2.93,2.9534,2.9659,2.896,2.865,2.849,2.8511,2.8565,2.8845,2.9659,3.0124,3.0401,3.0817,3.1504,3.2646,3.2349,3.2014,3.1775,3.191,3.2384,3.2984,3.2629,0.0,0.0,0.0,0.0,0.0,0.0,0.0,0.0,3.6407,0.0,3.661,3.7854,3.8383,3.7639,3.7604,3.7321,3.6741,3.5796,3.5269,3.5231,3.3794,3.2863,3.254,3.3064,3.3288,3.2959,3.2718,3.2782,3.3108,3.3214,3.3392,3.392,3.5084,3.6112,3.6758,3.8086,3.9165,3.9428,4.0363,4.113,4.1582,4.1958,4.2748,4.4192,4.479,4.534,4.6298,4.6525,4.6342,4.5975,4.5883,4.5883,4.5996,4.6072,4.6353,4.6541,4.684,4.7172,4.7577,4.7482,4.7398,4.7808,4.776,4.7761,4.8331,4.9118,5.0357,5.2153,5.3061,5.38,2.6032,2.6653,2.769,2.7835,2.7335,2.6976,2.664,2.6254,2.6539,0.0,0.0,2.7015,2.7376,2.8008,2.7364,2.7067,2.6971,2.6498,2.6305,2.6305,2.6874,2.7611,2.8512,2.8793,2.9155,2.9507,2.8631,2.8143,2.8076,2.7871,2.7723,2.7711,2.8229,2.85,2.8563,2.8831,2.9768,3.1477,3.1915,3.1656,3.0741,3.0836,3.1178,3.1811,3.1446,3.1786,3.281,3.326,3.3684,3.4224,3.4746,3.5333,3.597,3.6658,3.7114,3.73,3.7895,3.7541,3.6089,3.6031,3.5419,3.4071,3.2743,3.2005,3.2471,3.1193,3.0423,3.0556,3.1655,3.2485,3.3036,3.2482,3.232,3.285,3.2878,3.3078,3.3572,3.5063,3.6187,3.6788,3.7929,3.8881,3.9204,3.974,4.0342,4.1052,4.1487,4.2369,4.4164,4.4931,4.5315,4.6016,4.6316,4.6389,4.6085,4.5883,4.5883,4.5883,4.5883,4.6072,4.6298,4.6206,4.6427,4.7236,4.66,4.6427,4.6648,4.6729,4.6852,4.7228,4.8113,4.9138,5.0586,5.1981,5.3235,2.5185,2.6541,2.6298,2.6496,2.6747,2.6004,2.5951,2.6231,2.6263,2.6495,2.7015,2.7015,2.719,2.7542,2.7278,2.6874,2.6401,2.6305,2.6305,2.6305,2.6874,2.7518,2.8258,2.8695,2.8966,2.8942,2.8657,2.8339,2.8205,2.8069,2.7824,2.7616,2.8136,2.8602,2.8843,2.911,2.9525,2.9984,3.098,3.1573,3.1622,3.2232,3.2826,3.3233,3.2676,3.2642,3.3142,3.2956,3.3422,3.4454,3.5099,3.5301,3.531,3.574,3.5488,3.4457,3.4442,3.4441,3.4495,3.4525,3.4134,3.3333,3.2107,3.0809,2.9419,2.9571,3.0005,3.0808,3.1836,3.286,3.4161,3.4283,3.3974,3.3736,3.375,3.375,3.383,3.4809,3.5813,3.66,3.7351,3.797,3.8382,3.882,3.934,3.9871,4.0946,4.2318,4.3869,4.5001,4.5344,4.5304,4.535,4.5521,4.5732,4.5883,4.5883,4.5883,4.5865,4.5828,4.5961,4.5946,4.6075,4.6647,4.6128,4.5833,4.6184,4.5718,4.5645,4.6026,4.69,4.7989,4.9615,5.1043,5.2453,2.4485,2.5041,2.5309,2.5493,2.5571,2.5561,2.5712,2.6024,2.6035,2.655,2.7381,2.6837,2.6959,2.7517,2.6655,2.6294,2.6305,2.6003,2.5906,2.5906,2.6669,2.7287,2.7663,2.8427,2.8725,2.8701,2.8445,2.8278,2.8162,2.7998,2.7816,2.7618,2.7971,2.8168,2.8291,2.8551,2.8748,2.8954,2.9943,3.0488,3.0479,3.0795,3.0942,3.0676,3.0396,3.0183,3.0294,3.0429,3.0863,3.1704,3.2448,3.3129,3.3527,3.4171,3.4349,3.3978,3.4154,3.4329,3.4475,3.449,3.3809,3.2349,3.1851,3.0743,2.8464,2.9687,3.0769,3.1473,3.3002,3.4251,3.5025,3.4867,3.4493,3.401,3.3728,3.354,3.3634,3.4385,3.5379,3.6278,3.6931,3.7457,3.7893,3.8095,3.8691,3.9396,4.1016,4.2466,4.3293,4.3911,4.4535,4.4952,4.5072,4.506,4.5088,4.5318,4.5321,4.5234,4.5385,4.548,4.5297,4.5317,4.5445,4.5587,4.5374,4.5361,4.5776,4.5565,4.5538,4.5958,4.6464,4.7527,4.877,5.0404,5.2248,2.4099,2.3975,2.4556,2.4696,2.4643,2.5129,2.5582,2.5927,2.5895,2.6571,2.733,2.6591,2.665,2.719,2.6092,2.5723,2.6014,2.5712,2.5518,2.5615,2.6584,2.7067,2.7164,2.8139,2.862,2.8608,2.8403,2.8294,2.827,2.8029,2.7872,2.7824,2.7872,2.7896,2.7908,2.8162,2.8294,2.8294,2.9053,2.9355,2.9184,2.9196,2.8894,2.8318,2.8234,2.8101,2.792,2.8315,2.8781,2.939,3.0333,3.1378,3.2463,3.3137,3.3851,3.4251,3.4563,3.471,3.471,3.471,3.3736,3.1611,3.157,3.0863,2.9056,3.0214,3.1395,3.2088,3.3937,3.5398,3.5335,3.5222,3.466,3.4024,3.3351,3.3083,3.3271,3.3916,3.4853,3.5987,3.6637,3.71,3.7578,3.7734,3.838,3.9574,4.1156,4.2345,4.2658,4.3021,4.3641,4.4255,4.4639,4.4541,4.4335,4.4701,4.4822,4.4479,4.4779,4.4947,4.4801,4.4636,4.4635,4.4811,4.4644,4.4726,4.5135,4.5166,4.5255,4.5695,4.6114,4.6796,4.8217,4.999,5.2065,2.4304,2.4109,2.3975,2.3948,2.4079,2.4556,2.5286,2.6032,2.597,2.6272,2.6923,2.6207,2.6004,2.6059,2.5745,2.5518,2.5615,2.5518,2.5518,2.5615,2.6584,2.7067,2.7175,2.8151,2.862,2.8632,2.8608,2.85,2.8476,2.8223,2.8065,2.786,2.8053,2.8162,2.8198,2.8439,2.8584,2.8584,2.868,2.8692,2.8716,2.862,2.8608,2.8584,2.8331,2.8198,2.8162,2.8413,2.8868,2.9644,3.0621,3.1771,3.2943,3.3577,3.4075,3.4557,3.4695,3.471,3.471,3.471,3.3822,3.1881,3.1209,3.073,3.0197,3.065,3.1099,3.1974,3.3973,3.5443,3.5443,3.5697,3.5286,3.4175,3.3097,3.2705,3.3069,3.3271,3.4118,3.5987,3.6545,3.71,3.7549,3.7988,3.8622,3.9705,4.0801,4.179,4.2206,4.2607,4.2964,4.3121,4.3392,4.3712,4.3792,4.4231,4.4275,4.4119,4.4471,4.4618,4.46,4.4416,4.4304,4.4667,4.43,4.4115,4.4253,4.4034,4.416,4.5066,4.5527,4.5849,4.7826,4.9562,5.135,2.3417,2.3619,2.3409,2.345,2.3799,2.4393,2.4981,2.5529,2.5968,2.6261,2.6444,2.6056,2.5949,2.6056,2.569,2.5518,2.5518,2.5518,2.5518,2.5626,2.673,2.7296,2.7404,2.8531,2.9019,2.8789,2.8726,2.8519,2.8268,2.7956,2.7658,2.7553,2.7805,2.7961,2.7973,2.8368,2.862,2.862,2.862,2.862,2.862,2.862,2.862,2.8608,2.8512,2.8451,2.8439,2.8545,2.8913,2.9487,3.0544,3.1543,3.2691,3.3445,3.4118,3.4616,3.471,3.471,3.471,3.4132,3.3023,3.1356,3.061,2.9933,2.9263,3.0477,3.1571,3.2294,3.432,3.5881,3.6345,3.6321,3.5881,3.5031,3.3728,3.2708,3.2719,3.2691,3.3351,3.4666,3.5786,3.673,3.7445,3.8277,3.9085,3.9916,4.0705,4.1481,4.1979,4.246,4.2765,4.2861,4.3053,4.3071,4.3026,4.3316,4.3426,4.3388,4.3794,4.427,4.4325,4.471,4.4838,4.4745,4.4598,4.4506,4.4885,4.4811,4.4774,4.5196,4.5617,4.6265,4.8027,4.8977,5.0442,2.2765,2.3202,2.3105,2.3227,2.361,2.4357,2.4867,2.5294,2.5797,2.6004,2.6089,2.5847,2.5716,2.5744,2.5439,2.5324,2.5324,2.5324,2.5324,2.5637,2.6853,2.7421,2.7289,2.856,2.8977,2.8602,2.8386,2.8311,2.8038,2.7761,2.7542,2.741,2.7581,2.7646,2.7839,2.8224,2.8428,2.862,2.862,2.862,2.862,2.862,2.862,2.862,2.862,2.862,2.862,2.8716,2.9004,2.9375,3.0331,3.1379,3.2313,3.3257,3.4024,3.4601,3.471,3.471,3.471,3.3742,3.2606,3.1275,3.0233,2.9431,2.9199,3.0282,3.1744,3.3091,3.4612,3.5898,3.6753,3.6606,3.6265,3.5682,3.3855,3.2559,3.2449,3.2124,3.2313,3.3728,3.5143,3.6478,3.7663,3.8703,3.9324,3.9885,4.0577,4.1304,4.1787,4.2285,4.2669,4.2765,4.2765,4.269,4.2364,4.2751,4.2796,4.2834,4.3352,4.4032,4.4106,4.4654,4.5077,4.4801,4.4966,4.5095,4.4965,4.5111,4.5274,4.5389,4.5776,4.6369,4.7316,4.8186,4.9219,2.2482,2.3221,2.3105,2.3322,2.3806,2.4337,2.5052,2.5579,2.5534,2.568,2.593,2.5408,2.4923,2.4678,2.4763,2.4751,2.474,2.4751,2.5064,2.568,2.6887,2.7048,2.6457,2.7876,2.8299,2.7697,2.7863,2.7867,2.781,2.7974,2.7933,2.7455,2.7238,2.7368,2.7766,2.7874,2.8139,2.8524,2.862,2.862,2.862,2.862,2.862,2.862,2.862,2.862,2.862,2.91,2.9375,2.9375,3.0344,3.1284,3.2327,3.2974,3.3742,3.4522,3.471,3.471,3.4616,3.3742,3.265,3.1665,3.0346,2.9817,2.9942,3.0255,3.1391,3.4074,3.4409,3.5175,3.6201,3.6378,3.6119,3.5317,3.3197,3.2205,3.2327,3.1175,3.146,3.3299,3.4755,3.6401,3.8654,3.9196,3.9403,3.9803,4.0222,4.0707,4.1304,4.1787,4.2268,4.2669,4.2731,4.2724,4.2399,4.2562,4.2654,4.2732,4.3147,4.3956,4.4122,4.4306,4.4526,4.4765,4.493,4.4948,4.4857,4.4819,4.491,4.516,4.5583,4.6248,4.6799,4.7209,4.8156,2.2252,2.3521,2.3446,2.3444,2.3543,2.4279,2.4401,2.425,2.5033,2.5155,2.4839,2.4921,2.4618,2.3919,2.4098,2.4404,2.498,2.497,2.5338,2.5992,2.7026,2.7202,2.6925,2.8072,2.8192,2.7604,2.7726,2.7604,2.7267,2.7147,2.7126,2.6981,2.6969,2.7173,2.7536,2.7891,2.8209,2.8548,2.862,2.862,2.862,2.862,2.862,2.862,2.862,2.862,2.862,2.8812,2.8908,2.8908,2.9579,3.0522,3.1948,3.3365,3.432,3.4616,3.471,3.471,3.4522,3.3177,3.2043,3.141,2.9733,2.8885,2.9297,2.9981,3.1167,3.2722,3.3855,3.4689,3.5442,3.5939,3.6097,3.5691,3.3653,3.1946,3.1717,3.089,3.0604,3.211,3.4169,3.6894,3.8541,3.9418,3.9625,3.9834,4.0238,4.0513,4.0804,4.1208,4.1787,4.2172,4.2364,4.2426,4.2707,4.2511,4.257,4.272,4.3156,4.3891,4.4224,4.4906,4.537,4.5352,4.5333,4.5315,4.5278,4.5151,4.5096,4.5352,4.5747,4.5991,4.6389,4.69,4.7544,2.2288,2.3531,2.3635,2.3559,2.3455,2.4196,2.4187,2.3763,2.4402,2.4485,2.4051,2.4289,2.388,2.3346,2.3585,2.4297,2.5005,2.4943,2.5383,2.625,2.6979,2.7158,2.6937,2.7829,2.7975,2.7358,2.7571,2.7451,2.6918,2.6905,2.6786,2.6663,2.6737,2.7003,2.7392,2.7738,2.8097,2.8476,2.862,2.862,2.862,2.862,2.862,2.8644,2.8705,2.8705,2.8632,2.862,2.862,2.862,2.91,3.014,3.1853,3.346,3.4508,3.471,3.471,3.4616,3.4226,3.2705,3.1583,3.1114,2.9391,2.8351,2.8813,2.9639,3.0677,3.1939,3.2768,3.3792,3.4619,3.5037,3.5449,3.5514,3.3571,3.1986,3.1609,3.0427,3.0517,3.2176,3.4799,3.7263,3.8953,3.9609,3.9736,3.9768,4.0141,4.0319,4.0513,4.0804,4.1208,4.169,4.1787,4.2076,4.2313,4.2335,4.244,4.2726,4.3357,4.3968,4.445,4.5267,4.5771,4.5883,4.5883,4.5883,4.5773,4.5517,4.5556,4.5742,4.5777,4.5863,4.6314,4.6665,4.7242,2.2599,2.3531,2.3635,2.3625,2.3606,2.4142,2.4471,2.4142,2.3728,2.3522,2.3372,2.3334,2.3026,2.2766,2.3447,2.4255,2.4749,2.4729,2.5281,2.6336,2.7023,2.7001,2.6404,2.7232,2.7341,2.6663,2.7421,2.744,2.6939,2.7141,2.7133,2.6663,2.6412,2.6705,2.738,2.7524,2.7863,2.8463,2.862,2.8584,2.8632,2.8693,2.8705,2.8705,2.8898,2.891,2.8681,2.8656,2.8644,2.8632,2.9112,3.0331,3.1975,3.3271,3.4132,3.4537,3.463,3.4414,3.3879,3.2557,3.1527,3.0803,2.9273,2.8587,2.9171,2.926,2.9936,3.1416,3.1882,3.2394,3.3494,3.3614,3.3906,3.4717,3.3035,3.1717,3.1297,2.9962,3.0055,3.3326,3.5657,3.7597,3.9155,3.9768,3.9784,3.9832,3.9897,4.0044,4.0319,4.0416,4.0724,4.1111,4.1304,4.1497,4.1787,4.2155,4.2347,4.2714,4.3677,4.4359,4.4512,4.5034,4.5601,4.5789,4.5883,4.5883,4.5865,4.5645,4.5517,4.5686,4.5705,4.5852,4.6253,4.6648,4.6915,2.2599,2.3531,2.3635,2.3635,2.3635,2.3841,2.3531,2.2806,2.2599,2.2288,2.2072,2.2226,2.2446,2.2663,2.3296,2.391,2.4473,2.4523,2.5287,2.652,2.6901,2.6804,2.6573,2.6585,2.6497,2.631,2.6724,2.6992,2.7009,2.7374,2.7341,2.6923,2.6756,2.6898,2.7359,2.747,2.7844,2.8513,2.8587,2.8772,2.9065,2.9163,2.9151,2.9175,2.9248,2.9236,2.9163,2.8994,2.8801,2.8644,2.8886,2.9757,3.1055,3.2612,3.3558,3.4012,3.4436,3.4443,3.39,3.264,3.157,3.081,2.959,2.9176,2.9483,2.9421,2.9915,3.1024,3.1214,3.1705,3.2405,3.2706,3.3118,3.4049,3.2423,3.1202,3.1051,3.0414,3.1333,3.3713,3.5521,3.741,3.9406,3.9974,3.9911,4.0054,3.9927,3.9881,3.9947,3.9947,4.0238,4.061,4.0707,4.0917,4.1304,4.1594,4.1787,4.2285,4.3148,4.3895,4.418,4.4768,4.5318,4.5695,4.5789,4.5883,4.5865,4.5792,4.5663,4.5572,4.5648,4.5909,4.6389,4.6644,4.6786,2.2288,2.3531,2.3635,2.3635,2.3531,2.3428,2.291,2.2184,2.1561,2.1249,2.1249,2.1561,2.1915,2.2464,2.3165,2.3868,2.4295,2.4412,2.5192,2.6118,2.6324,2.624,2.6124,2.5943,2.5913,2.6097,2.6279,2.6595,2.6939,2.7451,2.7462,2.695,2.7155,2.7229,2.7425,2.7392,2.7683,2.8264,2.8317,2.8515,2.901,2.9109,2.9207,2.9417,2.9489,2.9489,2.9405,2.9332,2.9188,2.8994,2.9274,2.9836,3.0687,3.1899,3.2832,3.3229,3.3571,3.3613,3.3145,3.2151,3.1412,3.0725,2.9803,2.9492,2.9903,2.9837,3.0081,3.081,3.1027,3.116,3.1616,3.181,3.23,3.2871,3.1808,3.079,3.0389,3.0547,3.1789,3.3851,3.5615,3.7628,3.9397,4.0292,4.0051,4.0063,3.9807,3.9472,3.9327,3.9183,3.9557,3.9834,3.9834,4.0222,4.0804,4.1014,4.1111,4.169,4.246,4.3035,4.34,4.437,4.5034,4.5601,4.5789,4.5883,4.5865,4.5883,4.581,4.5737,4.5663,4.5926,4.6206,4.6373,4.6611,2.1561,2.3531,2.3635,2.3635,2.3531,2.3117,2.2703,2.2392,2.1041,2.0529,2.0945,2.1041,2.1457,2.2175,2.3108,2.3935,2.4358,2.4348,2.4564,2.5079,2.5192,2.5172,2.5265,2.5285,2.5501,2.5913,2.6108,2.6437,2.7004,2.7576,2.7462,2.7096,2.7371,2.7556,2.739,2.7335,2.756,2.7826,2.7835,2.8123,2.8755,2.8708,2.9006,2.9414,2.9695,2.9731,2.9586,2.9682,2.967,2.9552,2.9799,3.0169,3.0796,3.1385,3.1894,3.2337,3.2434,3.235,3.179,3.1475,3.0998,3.0577,3.004,2.9837,3.037,3.0459,3.0474,3.0902,3.1017,3.1066,3.1083,3.1125,3.1365,3.1548,3.1263,3.0504,2.9408,3.0376,3.2241,3.4394,3.616,3.8024,4.0122,4.051,4.0248,3.9824,3.9584,3.9184,3.8672,3.8693,3.8678,3.8971,3.9346,3.9752,4.0433,4.053,4.053,4.0821,4.1497,4.1979,4.2731,4.3704,4.475,4.5318,4.5789,4.5883,4.5883,4.5883,4.5883,4.5828,4.5828,4.5883,4.6092,4.6318,4.669,2.1561,2.3531,2.3635,2.3635,2.3531,2.3014,2.2288,2.1457,2.0312,1.979,2.0007,2.0312,2.1033,2.208,2.3117,2.3738,2.3841,2.3841,2.3841,2.4048,2.4048,2.4358,2.4667,2.4677,2.4986,2.5501,2.5913,2.6511,2.7176,2.7631,2.7539,2.7198,2.722,2.7122,2.7057,2.7046,2.7429,2.7882,2.7839,2.8359,2.9174,2.9147,2.9492,2.9908,3.0057,3.0057,2.9996,3.0057,2.9972,2.9707,2.96,2.9699,3.0168,3.0738,3.133,3.1668,3.2117,3.2169,3.18,3.159,3.1227,3.0676,3.0612,3.0714,3.0877,3.0858,3.0894,3.0998,3.0998,3.1066,3.0988,3.1228,3.1175,3.0877,3.1018,3.0742,3.0353,3.1298,3.3127,3.5224,3.7036,3.8756,4.0294,4.0511,4.02,3.9844,3.9542,3.908,3.8424,3.8595,3.8776,3.8971,3.9362,3.9655,3.9947,3.9947,3.9963,4.006,4.0433,4.0821,4.177,4.3018,4.4068,4.5034,4.5506,4.5695,4.5789,4.5883,4.5883,4.5789,4.5883,4.5883,4.6259,4.6542,4.6915,2.1457,2.3324,2.3531,2.3428,2.3221,2.2703,2.1873,2.0729,1.9582,1.9268,1.9485,1.979,2.072,2.1977,2.291,2.3428,2.3531,2.3635,2.3635,2.3635,2.3635,2.3841,2.4048,2.4151,2.4574,2.5295,2.5594,2.6284,2.7101,2.762,2.755,2.7193,2.722,2.7155,2.6939,2.6847,2.7058,2.7312,2.7247,2.7774,2.8906,2.8906,2.9381,2.9945,3.0214,3.0214,3.0214,3.031,3.025,3.0008,2.9839,2.9864,3.0093,3.0499,3.0938,3.1175,3.1655,3.1643,3.1565,3.1448,3.1277,3.0993,3.1095,3.1215,3.1312,3.1336,3.1336,3.136,3.1348,3.1276,3.1235,3.1432,3.1203,3.0846,3.1013,3.1077,3.0677,3.1803,3.3708,3.5805,3.7532,3.9034,4.1005,4.0537,4.0078,3.9644,3.9243,3.8477,3.7832,3.8461,3.892,3.8967,3.9034,3.9214,3.9409,3.9507,3.9832,3.9929,4.0027,4.0303,4.1208,4.2443,4.3591,4.4655,4.5223,4.5601,4.5601,4.5695,4.5695,4.5695,4.5789,4.5978,4.6259,4.6447,4.6822,2.1249,2.2806,2.3324,2.3324,2.2806,2.2184,2.1249,2.0103,1.9059,1.885,1.9276,1.9477,2.052,2.1977,2.2599,2.3117,2.3635,2.3635,2.3663,2.3682,2.3701,2.371,2.3871,2.3766,2.4367,2.5203,2.5306,2.6006,2.6894,2.7561,2.7425,2.7171,2.7436,2.736,2.6971,2.688,2.6791,2.6826,2.6951,2.7551,2.8401,2.8643,2.9156,3.0131,3.0298,3.016,3.0196,3.0317,3.0479,3.016,3.0184,3.0407,3.06,3.0636,3.0824,3.0957,3.1048,3.1085,3.1078,3.1066,3.1199,3.1288,3.1372,3.1553,3.1747,3.1795,3.1819,3.1879,3.1867,3.1698,3.1562,3.161,3.1365,3.0939,3.1371,3.1442,3.1692,3.2263,3.3963,3.649,3.768,3.9188,4.0317,4.0645,4.0061,3.9961,3.9357,3.8726,3.8308,3.8585,3.8623,3.8394,3.8515,3.8688,3.8869,3.9065,3.9488,3.9813,3.9943,4.0302,4.1127,4.2251,4.3305,4.4163,4.475,4.5129,4.5223,4.5318,4.5506,4.5695,4.5789,4.5883,4.5978,4.6072,4.6353,2.1049,2.2288,2.3221,2.3324,2.2703,2.1769,2.0729,1.9582,1.8432,1.8327,1.885,1.9268,2.0416,2.1977,2.2495,2.3117,2.355,2.3569,2.372,2.389,2.389,2.3994,2.4013,2.3824,2.4284,2.5036,2.5477,2.6255,2.7194,2.7409,2.742,2.7424,2.6937,2.6653,2.6788,2.6741,2.7023,2.7595,2.771,2.8135,2.8837,2.902,2.9498,3.0389,3.0515,3.019,2.9891,3.025,3.0358,3.0165,3.0502,3.0865,3.0902,3.0914,3.0962,3.1034,3.1034,3.1022,3.1046,3.1203,3.1324,3.1409,3.159,3.1831,3.2073,3.2097,3.2205,3.2314,3.2242,3.2,3.1735,3.1575,3.1393,3.1296,3.1199,3.1788,3.2955,3.3899,3.5088,3.6917,3.8619,4.008,4.0872,4.0903,4.0487,4.0162,3.9688,3.9161,3.9049,3.889,3.8729,3.8553,3.8676,3.8882,3.8882,3.9179,3.9574,3.9921,4.0102,4.0152,4.0984,4.1787,4.2748,4.3591,4.4353,4.456,4.475,4.5412,4.5601,4.5695,4.5695,4.5883,4.5883,4.5883,4.5978,2.0833,2.1665,2.2806,2.2703,2.1977,2.1049,1.9895,1.8746,1.8125,1.8125,1.8536,1.8955,1.9999,2.157,2.2193,2.2748,2.3379,2.3785,2.4194,2.4404,2.4318,2.4375,2.4529,2.428,2.4451,2.5212,2.5615,2.6388,2.705,2.7437,2.7416,2.7323,2.6859,2.6692,2.665,2.6776,2.6892,2.685,2.73,2.7917,2.8704,2.8962,2.9686,3.0514,3.0684,3.0322,3.0124,3.0442,3.0562,3.0566,3.0934,3.13,3.1203,3.1191,3.124,3.136,3.1384,3.1384,3.1433,3.1493,3.159,3.1578,3.1735,3.1928,3.2121,3.2193,3.2326,3.2483,3.2447,3.2278,3.2024,3.1891,3.171,3.1433,3.1397,3.2016,3.3275,3.432,3.5636,3.7305,3.8737,3.9832,4.0481,4.0688,4.0636,4.0239,3.9959,3.9414,3.9256,3.9258,3.9289,3.9243,3.9182,3.9236,3.9136,3.9336,3.9735,4.0138,4.0423,4.0327,4.0592,4.1292,4.1979,4.2844,4.3591,4.3895,4.418,4.4939,4.5412,4.5223,4.5241,4.5601,4.5883,4.5883,4.5883,2.0304,2.0833,2.1977,2.1769,2.0833,2.0208,1.9172,1.7915,1.7706,1.802,1.8536,1.8634,1.9686,2.1145,2.1674,2.2308,2.3126,2.399,2.4518,2.4731,2.4528,2.4575,2.4808,2.4547,2.4528,2.5088,2.5599,2.6139,2.6775,2.7176,2.7081,2.687,2.7018,2.6619,2.6239,2.6849,2.6997,2.6423,2.7113,2.782,2.8446,2.8838,2.97,3.0602,3.0682,3.0435,3.032,3.059,3.085,3.0874,3.1435,3.1626,3.1529,3.1469,3.1541,3.1783,3.1747,3.1722,3.171,3.1771,3.1795,3.1843,3.1819,3.2012,3.2242,3.2338,3.2435,3.2531,3.2543,3.235,3.2181,3.2036,3.1843,3.1626,3.1686,3.2324,3.3256,3.4216,3.5669,3.7595,3.8603,3.9655,4.0187,4.0481,4.0415,4.0363,4.0097,3.9887,3.9743,3.9736,3.9829,3.9814,3.9868,3.9791,3.9675,3.9675,4.0077,4.0469,4.0809,4.07,4.0556,4.0854,4.1514,4.2155,4.2827,4.3114,4.3704,4.4465,4.475,4.4578,4.4957,4.5506,4.5695,4.5883,4.5883,1.8955,1.9059,2.0208,2.0312,1.9686,1.9164,1.8536,1.7811,1.7293,1.7706,1.8536,1.8641,1.9806,2.1266,2.1362,2.1995,2.3111,2.414,2.464,2.4747,2.464,2.4804,2.489,2.4687,2.4716,2.4919,2.538,2.5818,2.6236,2.6449,2.6556,2.6312,2.5978,2.5685,2.5958,2.6327,2.691,2.691,2.7653,2.8512,2.9289,2.9769,3.0142,3.0874,3.0713,3.0258,2.9863,3.0224,3.0376,3.0083,3.1106,3.164,3.1722,3.171,3.1747,3.1783,3.1807,3.1807,3.1807,3.1807,3.1928,3.2012,3.1952,3.2181,3.2555,3.264,3.2604,3.2664,3.2507,3.2193,3.1916,3.1952,3.1867,3.1759,3.1865,3.2496,3.3825,3.461,3.5216,3.7019,3.826,3.9463,3.9981,4.0497,4.0816,4.0959,4.0825,4.0809,4.0904,4.0771,4.0747,4.0598,4.0505,4.0412,4.0334,4.0334,4.0521,4.0917,4.1228,4.1257,4.1031,4.0659,4.1047,4.1883,4.2443,4.2827,4.3418,4.4085,4.4465,4.4655,4.5034,4.5412,4.5695,4.5883,4.5883,1.8634,1.8641,1.9582,1.9582,1.8955,1.8432,1.7915,1.7398,1.7083,1.7601,1.8356,1.8828,1.9617,2.1008,2.1512,2.2178,2.3356,2.4364,2.4731,2.474,2.475,2.4778,2.4891,2.4778,2.4797,2.4943,2.5103,2.5497,2.6037,2.636,2.6253,2.6125,2.581,2.5771,2.5781,2.6505,2.672,2.7076,2.7803,2.8772,2.9717,3.0352,3.0987,3.0799,3.0646,3.0165,2.9802,3.013,3.0329,3.0376,3.1225,3.1676,3.1807,3.1819,3.1819,3.1819,3.1819,3.1819,3.1807,3.1819,3.1928,3.2145,3.2073,3.2242,3.2592,3.2664,3.2664,3.2676,3.264,3.229,3.206,3.2,3.1952,3.1831,3.1819,3.2628,3.3676,3.4328,3.5404,3.6555,3.7929,3.9122,4.0084,4.06,4.1218,4.1423,4.1526,4.1628,4.1849,4.1628,4.132,4.1258,4.103,4.0778,4.07,4.0802,4.0904,4.1319,4.1702,4.1731,4.1505,4.1261,4.1275,4.1787,4.2268,4.2607,4.3035,4.3609,4.4085,4.4655,4.4939,4.5223,4.5695,4.5883,4.5883,1.8118,1.8327,1.8746,1.8746,1.8222,1.7811,1.7398,1.7083,1.6978,1.7601,1.8559,1.8805,1.9628,2.0751,2.1759,2.2697,2.3737,2.4462,2.4745,2.4873,2.482,2.4839,2.4958,2.5105,2.5262,2.54,2.5522,2.5365,2.5535,2.591,2.5939,2.584,2.6177,2.5998,2.5561,2.6564,2.6543,2.682,2.7486,2.8662,2.9743,3.077,3.1427,3.0961,3.0632,3.009,3.0006,3.015,3.0446,3.0705,3.1249,3.1807,3.1819,3.1855,3.1891,3.1891,3.1891,3.1891,3.1904,3.2,3.2157,3.2423,3.2326,3.2459,3.2628,3.2736,3.2604,3.2579,3.2423,3.2302,3.2073,3.2097,3.2,3.1904,3.2069,3.257,3.3576,3.4523,3.539,3.6577,3.7771,3.8853,3.9896,4.0409,4.0909,4.1526,4.1628,4.1628,4.1849,4.1849,4.1628,4.1628,4.1392,4.1084,4.1037,4.1124,4.1313,4.1572,4.198,4.2226,4.203,4.1834,4.2093,4.2298,4.2067,4.2408,4.2771,4.3148,4.3609,4.4085,4.4655,4.5034,4.5412,4.5695,4.5883,1.6656,1.7188,1.7293,1.7293,1.7188,1.7083,1.7083,1.6978,1.6978,1.7601,1.8566,1.8926,1.9758,2.1249,2.2804,2.3485,2.3692,2.4073,2.4411,2.4658,2.455,2.4725,2.5194,2.5928,2.602,2.6,2.6324,2.6047,2.5551,2.5538,2.5477,2.5496,2.562,2.5522,2.5678,2.6784,2.7226,2.7317,2.838,2.947,3.0359,3.0797,3.1246,3.1079,3.0591,3.0009,3.018,3.0258,3.0369,3.0928,3.1474,3.1819,3.1843,3.2048,3.2133,3.2157,3.2157,3.2157,3.2181,3.2302,3.2507,3.2688,3.2652,3.2833,3.2917,3.2785,3.2579,3.2567,3.2229,3.1988,3.194,3.1879,3.1843,3.2023,3.2322,3.3177,3.4121,3.4713,3.5668,3.6867,3.812,3.8932,3.9928,4.0239,4.0615,4.1336,4.1849,4.1849,4.1849,4.1849,4.1849,4.1747,4.1747,4.1439,4.1336,4.1423,4.1628,4.1833,4.2125,4.259,4.2575,4.2542,4.2969,4.3079,4.2715,4.2513,4.2993,4.3276,4.3313,4.3739,4.4364,4.4804,4.5034,4.543,4.5975,1.5641,1.6446,1.6446,1.6453,1.6446,1.6453,1.6453,1.6558,1.6873,1.7447,1.8277,1.8848,1.9983,2.1466,2.2957,2.329,2.3334,2.3908,2.4237,2.4338,2.4328,2.4596,2.4938,2.557,2.5952,2.6407,2.6208,2.614,2.5702,2.5745,2.5745,2.5683,2.5624,2.571,2.6019,2.6872,2.7408,2.8064,2.8939,2.9932,3.0703,3.1056,3.1287,3.1166,3.0612,3.0348,3.028,3.0316,3.0607,3.1292,3.1809,3.2109,3.2229,3.2362,3.2423,3.2435,3.2567,3.2567,3.2471,3.2555,3.2748,3.2905,3.2881,3.2917,3.3038,3.2845,3.2519,3.2362,3.2181,3.1988,3.1855,3.1807,3.1904,3.212,3.2684,3.3746,3.4638,3.5145,3.5877,3.7168,3.8452,3.9276,4.015,4.0708,4.1162,4.1675,4.1992,4.1881,4.1865,4.1849,4.1849,4.1849,4.1747,4.1747,4.1644,4.1731,4.1936,4.2093,4.2072,4.2487,4.3007,4.3272,4.3702,4.3648,4.3231,4.3143,4.338,4.342,4.3397,4.3774,4.4166,4.4714,4.5358,4.5852,4.6287,1.4883,1.571,1.5815,1.592,1.592,1.592,1.592,1.6026,1.6551,1.7165,1.7961,1.8996,2.0225,2.1562,2.2811,2.3321,2.3086,2.391,2.412,2.4156,2.4106,2.4348,2.4825,2.5404,2.6022,2.6554,2.6515,2.6476,2.6538,2.6358,2.6169,2.602,2.6067,2.6183,2.6774,2.7498,2.8193,2.8866,2.9527,3.0254,3.0954,3.1275,3.1263,3.1229,3.0962,3.0806,3.0551,3.0676,3.1223,3.1804,3.2181,3.2374,3.2507,3.2616,3.2676,3.2736,3.2905,3.2978,3.2869,3.2857,3.2905,3.3002,3.3074,3.3099,3.3074,3.2845,3.2652,3.2507,3.2242,3.2109,3.1964,3.1867,3.2249,3.2623,3.3119,3.4172,3.5258,3.6052,3.6719,3.7645,3.8853,3.9776,4.063,4.1406,4.1895,4.2182,4.2183,4.1976,4.1881,4.1849,4.1849,4.1849,4.1849,4.1849,4.1849,4.1952,4.2157,4.2415,4.2376,4.2566,4.3138,4.3691,4.4006,4.3837,4.3767,4.3781,4.3974,4.3717,4.3592,4.4157,4.4641,4.5141,4.5754,4.6252,4.6635,1.4446,1.4557,1.5078,1.5394,1.5394,1.5388,1.5394,1.5518,1.5933,1.665,1.7797,1.9222,2.0778,2.2025,2.2785,2.344,2.3998,2.3666,2.3861,2.3908,2.3779,2.3876,2.4487,2.5363,2.6139,2.6802,2.6789,2.7038,2.7273,2.671,2.6334,2.5921,2.6404,2.6968,2.7648,2.8439,2.9145,2.9601,3.0068,3.0549,3.1003,3.1285,3.1274,3.1901,3.1651,3.1413,3.1834,3.16,3.1848,3.2457,3.2604,3.2616,3.2736,3.2869,3.2954,3.3014,3.3147,3.3231,3.3195,3.3195,3.328,3.3328,3.3328,3.3292,3.3255,3.3086,3.2942,3.2821,3.2483,3.2242,3.2097,3.2107,3.2582,3.3317,3.4057,3.5236,3.649,3.7497,3.814,3.8465,3.9336,4.0384,4.1034,4.1714,4.2255,4.2561,4.2358,4.2135,4.1913,4.1849,4.1849,4.1849,4.1849,4.1849,4.1881,4.1984,4.2086,4.241,4.2705,4.2962,4.3351,4.3892,4.4378,4.4461,4.4425,4.4457,4.4471,4.4248,4.4274,4.4661,4.5115,4.5682,4.6222,4.6858,4.7015,1.3852,1.3919,1.413,1.4446,1.4762,1.4762,1.5021,1.5511,1.6054,1.7143,1.8546,1.954,2.056,2.1644,2.2523,2.2864,2.2889,2.3001,2.3157,2.2996,2.276,2.3015,2.3828,2.4816,2.5434,2.6339,2.6718,2.6916,2.7039,2.6776,2.6539,2.6482,2.6989,2.7587,2.8294,2.9312,3.0006,3.0226,3.0342,3.0737,3.1142,3.1192,3.1239,3.1897,3.1792,3.1789,3.2179,3.2079,3.2412,3.2867,3.2905,3.293,3.3002,3.3135,3.3183,3.3195,3.3328,3.3352,3.3364,3.3364,3.3364,3.3364,3.3364,3.3364,3.3364,3.3255,3.3123,3.293,3.2786,3.2531,3.2181,3.2619,3.328,3.3987,3.5079,3.6262,3.7426,3.844,3.9128,3.9393,4.0132,4.1134,4.1647,4.2004,4.2569,4.2909,4.2571,4.2294,4.2103,4.1945,4.1976,4.1992,4.1992,4.204,4.2072,4.2024,4.1945,4.2371,4.29,4.3191,4.3566,4.438,4.4901,4.5019,4.5019,4.4781,4.4679,4.4745,4.4773,4.4893,4.5449,4.619,4.6752,4.743,4.7436,1.3526,1.3602,1.3607,1.3813,1.4135,1.4175,1.4556,1.5058,1.5861,1.7399,1.9386,1.955,2.0434,2.1641,2.2574,2.2982,2.2917,2.2859,2.276,2.247,2.203,2.2378,2.3206,2.3952,2.4861,2.5786,2.6129,2.6348,2.6691,2.6462,2.6673,2.6981,2.7542,2.8252,2.8799,2.9953,3.0665,3.06,3.0589,3.1,3.1501,3.1497,3.1898,3.2423,3.2429,3.2436,3.2727,3.2709,3.2861,3.3108,3.3219,3.3207,3.3292,3.3364,3.3364,3.3376,3.3376,3.3376,3.3376,3.3364,3.3364,3.3364,3.3364,3.3364,3.3364,3.3364,3.3367,3.3468,3.32,3.292,3.2651,3.3305,3.4021,3.4789,3.5805,3.6986,3.81,3.9213,3.9748,4.032,4.1105,4.1753,4.228,4.2651,4.2665,4.2992,4.2809,4.2596,4.2469,4.231,4.2231,4.2231,4.2215,4.2278,4.2326,4.2246,4.2167,4.2374,4.2786,4.3133,4.3698,4.4447,4.4954,4.4887,4.4853,4.4953,4.4952,4.4933,4.4827,4.4769,4.5632,4.6745,4.7292,4.7839,4.7846,1.3602,1.3607,1.3607,1.3607,1.3735,1.3732,1.3894,1.4361,1.544,1.7189,1.9315,1.958,2.0614,2.2182,2.2984,2.3163,2.325,2.3065,2.2818,2.2226,2.1213,2.1813,2.2736,2.3599,2.4288,2.5672,2.6167,2.6186,2.6282,2.6566,2.6951,2.7728,2.8472,2.9181,2.9222,3.0472,3.1052,3.088,3.0848,3.1302,3.1684,3.1679,3.2356,3.2972,3.31,3.3094,3.338,3.3344,3.3372,3.3424,3.3424,3.3388,3.3364,3.3376,3.3388,3.3412,3.3412,3.34,3.3388,3.3376,3.3364,3.3364,3.3364,3.3364,3.3364,3.3476,3.3588,3.3813,3.3838,3.3701,3.3889,3.4286,3.4909,3.5671,3.6697,3.7623,3.8862,3.9863,4.0429,4.0877,4.1647,4.2419,4.296,4.3253,4.3096,4.3028,4.2893,4.2777,4.2755,4.2644,4.2517,4.2485,4.2485,4.2612,4.2644,4.2485,4.2405,4.2613,4.2805,4.3203,4.355,4.4015,4.4426,4.4647,4.4751,4.4734,4.4919,4.5104,4.52,4.5361,4.6399,4.7302,4.7952,4.8194,4.8047,1.3607,1.3607,1.3607,1.3651,1.3727,1.3765,1.4045,1.4684,1.596,1.7635,1.9243,1.9722,2.0589,2.1845,2.2486,2.2743,2.248,2.2189,2.1811,2.1338,2.0356,2.1168,2.219,2.3024,2.382,2.525,2.5889,2.6328,2.6356,2.6873,2.7425,2.8198,2.9601,3.048,3.0654,3.1052,3.1138,3.1095,3.1063,3.1202,3.1313,3.1524,3.2035,3.279,3.3034,3.3327,3.3811,3.3787,3.3762,3.3666,3.3654,3.3581,3.3449,3.3412,3.3485,3.3593,3.3642,3.3654,3.3593,3.3521,3.3376,3.3364,3.3364,3.3364,3.3364,3.3364,3.3712,3.411,3.4159,3.4216,3.4676,3.547,3.6138,3.6638,3.754,3.8388,3.9388,4.0375,4.1105,4.131,4.188,4.2589,4.3192,4.3408,4.3282,4.3065,4.2981,4.2909,4.2856,4.2866,4.2755,4.2755,4.2787,4.293,4.2961,4.2818,4.2818,4.3003,4.3133,4.3455,4.3702,4.3725,4.4111,4.4473,4.4479,4.4515,4.4818,4.5222,4.5708,4.6193,4.6811,4.7509,4.8088,4.8212,4.8102,1.3607,1.3607,1.3607,1.3673,1.3781,1.383,1.4366,1.5293,1.6567,1.7998,1.9508,2.0049,2.1007,2.2001,2.2384,2.2294,2.1689,2.1322,2.0729,2.0246,1.956,2.0708,2.1827,2.2555,2.382,2.5154,2.6097,2.6441,2.6798,2.7561,2.8257,2.9117,3.0543,3.1019,3.1235,3.1365,3.1505,3.1311,3.1085,3.1084,3.1346,3.1475,3.192,3.2527,3.2866,3.3362,3.3769,3.3992,3.4028,3.3944,3.3895,3.3799,3.3618,3.3618,3.3678,3.3787,3.3799,3.3738,3.3593,3.3497,3.3376,3.3364,3.3364,3.3364,3.3364,3.3364,3.3924,3.4321,3.4295,3.4803,3.5489,3.6382,3.6993,3.749,3.811,3.8976,3.9704,4.0586,4.1322,4.1634,4.2219,4.279,4.3315,4.33,4.336,4.3174,4.308,4.3028,4.302,4.3078,4.2999,4.3089,4.3136,4.3279,4.3279,4.3152,4.3216,4.3375,4.3475,4.3721,4.3568,4.3608,4.4008,4.428,4.4237,4.431,4.4869,4.5306,4.5608,4.611,4.6611,4.731,4.8088,4.8231,4.8139,1.3597,1.3607,1.3607,1.3673,1.3792,1.402,1.4862,1.6083,1.676,1.817,1.999,2.0578,2.1614,2.2817,2.2703,2.2164,2.1792,2.119,2.03,1.9525,1.9108,2.0562,2.1819,2.2555,2.3935,2.5393,2.6356,2.6768,2.7328,2.8217,2.9097,3.005,3.1019,3.1257,3.1527,3.183,3.1798,3.1268,3.0998,3.1082,3.1331,3.1803,3.2276,3.2779,3.3392,3.3793,3.404,3.4137,3.4125,3.4137,3.4185,3.4016,3.3956,3.4028,3.3956,3.3871,3.3799,3.3714,3.3533,3.3449,3.3376,3.3364,3.3364,3.3364,3.3364,3.3476,3.3924,3.4606,3.4964,3.554,3.6206,3.695,3.7577,3.8092,3.8614,3.9223,3.9924,4.0665,4.1448,4.2034,4.2682,4.33,4.3623,4.3623,4.3408,4.316,4.3098,4.3067,4.3109,4.3264,4.3383,4.3454,4.3518,4.3645,4.3597,4.347,4.3486,4.3613,4.3565,4.3635,4.3513,4.3507,4.3762,4.3904,4.3953,4.4306,4.4819,4.5205,4.5507,4.601,4.6511,4.731,4.8088,4.8267,4.8176,1.3526,1.3602,1.3607,1.3673,1.3916,1.4439,1.5545,1.677,1.713,1.8433,2.0724,2.0969,2.187,2.2703,2.2257,2.1692,2.0914,2.0169,1.9472,1.8893,1.899,2.0591,2.1851,2.29,2.4402,2.5563,2.6557,2.7008,2.7815,2.874,2.989,3.0836,3.1581,3.156,3.169,3.2015,3.1602,3.116,3.088,3.1047,3.1452,3.1839,3.2367,3.2995,3.3835,3.4185,3.4318,3.4511,3.4523,3.445,3.4463,3.4281,3.3847,3.3871,3.3835,3.3847,3.3907,3.3968,3.3702,3.3485,3.3376,3.3376,3.3364,3.3364,3.3364,3.3476,3.3936,3.4718,3.5262,3.5767,3.676,3.7588,3.8231,3.8747,3.9252,3.9607,4.0281,4.1079,4.174,4.2435,4.3192,4.3515,4.3823,4.3623,4.33,4.3083,4.2975,4.3083,4.3083,4.33,4.3484,4.3649,4.374,4.3819,4.3851,4.3756,4.3772,4.3804,4.374,4.3692,4.3676,4.364,4.3597,4.3649,4.3817,4.4325,4.4971,4.5222,4.5407,4.5909,4.6411,4.7211,4.7889,4.8088,4.8212,1.3493,1.3597,1.3607,1.3806,1.4304,1.504,1.6286,1.7775,1.7992,1.9204,2.1015,2.1528,2.2102,2.2591,2.2024,2.116,2.0097,1.942,1.8614,1.8278,1.8747,2.043,2.1911,2.3147,2.4464,2.5761,2.6671,2.725,2.8354,2.9658,3.0847,3.1354,3.1984,3.1809,3.1668,3.1798,3.1495,3.1105,3.074,3.0938,3.1397,3.1805,3.2355,3.3089,3.4039,3.4366,3.4583,3.4788,3.4752,3.4716,3.4728,3.4547,3.4137,3.404,3.4064,3.4088,3.41,3.4028,3.3799,3.3642,3.3509,3.34,3.3364,3.3364,3.3364,3.3476,3.416,3.4941,3.5237,3.5826,3.7086,3.8339,3.8984,3.9514,3.9767,4.0036,4.0739,4.1538,4.2141,4.2836,4.3284,4.3715,4.3715,4.3515,4.33,4.3192,4.3192,4.3192,4.3192,4.3192,4.3515,4.376,4.3867,4.3915,4.3931,4.3931,4.3899,4.3883,4.3867,4.3851,4.3883,4.3724,4.3651,4.3753,4.3773,4.4344,4.4751,4.502,4.5306,4.5809,4.6211,4.7011,4.7609,4.8088,4.8095,1.3482,1.3607,1.3618,1.4074,1.4827,1.5615,1.7216,1.9276,1.9176,1.9967,2.1406,2.2177,2.2543,2.2558,2.1823,2.0678,1.9629,1.8705,1.799,1.7287,1.8398,2.0103,2.1903,2.3164,2.4659,2.5881,2.6804,2.7521,2.9006,3.0308,3.1256,3.1537,3.1711,3.1689,3.1635,3.1635,3.1451,3.1009,3.0889,3.0949,3.1613,3.192,3.2216,3.3298,3.3828,3.4173,3.4499,3.4668,3.4716,3.4873,3.4921,3.4788,3.4535,3.4342,3.4378,3.4366,3.4294,3.4203,3.4009,3.3852,3.3706,3.3573,3.3464,3.3228,3.3228,3.3364,3.4048,3.4756,3.5189,3.6119,3.7316,3.8155,3.8729,3.9393,3.9871,4.0067,4.0561,4.1412,4.2388,4.296,4.35,4.3823,4.3823,4.3623,4.3623,4.3408,4.3408,4.3515,4.3408,4.33,4.3515,4.3823,4.3823,4.3931,4.3931,4.3931,4.3931,4.3931,4.3931,4.3931,4.3915,4.3772,4.3811,4.3762,4.3904,4.3985,4.4396,4.4751,4.5239,4.5608,4.611,4.6729,4.7211,4.7708,4.815,1.3406,1.3613,1.3705,1.4152,1.4941,1.6051,1.7887,1.9982,2.041,2.1144,2.2161,2.247,2.243,2.2189,2.1533,2.036,1.9065,1.8097,1.7283,1.7388,1.8144,1.9877,2.1811,2.3504,2.5006,2.608,2.7016,2.7922,2.9178,3.0585,3.1483,3.1569,3.1698,3.1774,3.1623,3.1601,3.1408,3.1117,3.0901,3.1175,3.2005,3.2456,3.3013,3.3943,3.4523,3.4607,3.4837,3.4861,3.4897,3.497,3.497,3.4825,3.4583,3.4511,3.4402,3.433,3.4414,3.4427,3.431,3.405,3.3904,3.3749,3.3491,3.3044,3.2956,3.3228,3.3737,3.4458,3.5166,3.6223,3.7279,3.7947,3.8571,3.9259,3.9833,4.0161,4.038,4.1442,4.2419,4.3068,4.3608,4.3823,4.3823,4.3823,4.3839,4.3839,4.3731,4.3823,4.3715,4.3731,4.3623,4.3823,4.3823,4.3931,4.3931,4.3931,4.3931,4.3931,4.3931,4.3931,4.3931,4.3645,4.3481,4.381,4.391,4.4065,4.4277,4.4802,4.5173,4.5441,4.5809,4.6328,4.6629,4.7111,4.769,1.3171,1.3285,1.3572,1.4237,1.5362,1.6532,1.8267,2.005,2.1019,2.183,2.2454,2.2414,2.2236,2.1815,2.1017,1.997,1.8561,1.7471,1.684,1.684,1.8033,1.9825,2.1681,2.3614,2.5311,2.6519,2.7608,2.8712,2.9568,3.07,3.1558,3.172,3.1924,3.1989,3.1827,3.1752,3.158,3.1354,3.1106,3.1393,3.2129,3.2513,3.3082,3.4097,3.466,3.4885,3.4957,3.497,3.497,3.497,3.497,3.4933,3.4752,3.4632,3.4583,3.4559,3.4651,3.4621,3.4444,3.4249,3.3989,3.3785,3.3602,3.308,3.2815,3.3112,3.3581,3.4194,3.4319,3.5144,3.7026,3.7978,3.8513,3.907,3.9415,3.9704,4.0358,4.1224,4.2202,4.3083,4.3408,4.3623,4.3715,4.3931,4.3839,4.3839,4.3931,4.3931,4.3931,4.3931,4.3931,4.3931,4.3931,4.3931,4.3931,4.3931,4.3931,4.3931,4.3931,4.3931,4.3883,4.347,4.3332,4.36,4.3898,4.4045,4.4325,4.4836,4.5089,4.5222,4.5608,4.601,4.6228,4.6546,4.7111,1.3067,1.2958,1.3412,1.44,1.5788,1.7008,1.8541,2.0282,2.1486,2.2253,2.2615,2.2095,2.2022,2.1466,2.0501,1.9367,1.8205,1.7109,1.6378,1.6515,1.7897,1.9666,2.1611,2.369,2.5572,2.7117,2.8445,2.904,2.9739,3.0915,3.1752,3.1957,3.2129,3.2269,3.2172,3.201,3.1741,3.1451,3.1365,3.1419,3.1834,3.2336,3.3151,3.3818,3.4438,3.4764,3.4897,3.497,3.497,3.497,3.497,3.4945,3.4897,3.4776,3.4801,3.4788,3.4728,3.4615,3.4463,3.4354,3.3936,3.3758,3.3525,3.3276,3.2887,3.2993,3.3589,3.3883,3.3883,3.4854,3.6635,3.7849,3.8267,3.8945,3.9182,3.9528,4.035,4.1065,4.1907,4.2898,4.3223,4.3331,4.3623,4.3839,4.3947,4.3947,4.3931,4.3931,4.3931,4.3931,4.3931,4.3931,4.3931,4.3931,4.3931,4.3931,4.3931,4.3931,4.3931,4.3931,4.3835,4.3502,4.3327,4.3587,4.3826,4.4085,4.4423,4.4903,4.5056,4.5224,4.5323,4.5643,4.5966,4.6268,4.6747,1.286,1.3502,1.3711,1.448,1.5807,1.71,1.8861,2.0852,2.1598,2.2302,2.2446,2.1788,2.1317,2.1459,2.0169,1.8826,1.7446,1.6436,1.5863,1.579,1.7761,1.9557,2.1564,2.4102,2.6007,2.7554,2.8842,2.9629,3.0043,3.1116,3.1957,3.2172,3.2387,3.2344,3.2,3.186,3.1709,3.144,3.1278,3.1311,3.1667,3.2265,3.3241,3.3982,3.4569,3.4804,3.4957,3.497,3.497,3.497,3.497,3.497,3.4945,3.4897,3.4921,3.4921,3.4861,3.4852,3.4633,3.4348,3.4009,3.402,3.3685,3.3188,3.2934,3.2928,3.3404,3.396,3.4227,3.5173,3.6692,3.7266,3.7721,3.8605,3.9183,3.9878,4.0635,4.1134,4.1686,4.2448,4.3007,4.3409,4.3902,4.401,4.401,4.3994,4.3947,4.3962,4.4026,4.3994,4.3931,4.3931,4.3931,4.3931,4.3931,4.3931,4.3931,4.3931,4.3931,4.3931,4.3835,4.3613,4.3608,4.3901,4.4174,4.4452,4.4723,4.514,4.5346,4.5515,4.5241,4.5375,4.5631,4.5934,4.6281]}]]